<?xml version="1.0" encoding="UTF-8" standalone="no" ?>
<gpx xmlns="http://www.topografix.com/GPX/1/1" xmlns:xsi="http://www.w3.org/2001/XMLSchema-instance" xsi:schemaLocation="http://www.topografix.com/GPX/1/1 http://www.topografix.com/GPX/1/1/gpx.xsd" version="1.1" creator="VisuGPX - https://www.visugpx.com">
  <metadata>
    <name>Rando La bresse 2</name>
    <desc><![CDATA[Rando La bresse 2]]></desc>
  </metadata>
  <trk>
    <name><![CDATA[78 Rue du Hohneck]]></name>
    <desc><![CDATA[]]></desc>
    <trkseg>
      <trkpt lat="47.99054" lon="6.9268">
        <ele>1102.6</ele>
        <time>2013-01-19T12:46:54.000Z</time>
      </trkpt>
      <trkpt lat="47.99054" lon="6.92681">
        <ele>1105.1</ele>
        <time>2013-01-19T12:48:33.000Z</time>
      </trkpt>
      <trkpt lat="47.99054" lon="6.92691">
        <ele>1115.6</ele>
        <time>2013-01-19T12:48:34.000Z</time>
      </trkpt>
      <trkpt lat="47.99055" lon="6.92687">
        <ele>1114.5</ele>
        <time>2013-01-19T12:48:55.000Z</time>
      </trkpt>
      <trkpt lat="47.99056" lon="6.92685">
        <ele>1114.9</ele>
        <time>2013-01-19T12:48:56.000Z</time>
      </trkpt>
      <trkpt lat="47.99056" lon="6.92691">
        <ele>1113.1</ele>
        <time>2013-01-19T12:49:09.000Z</time>
      </trkpt>
      <trkpt lat="47.99055" lon="6.92692">
        <ele>1113</ele>
        <time>2013-01-19T12:49:10.000Z</time>
      </trkpt>
      <trkpt lat="47.99054" lon="6.92695">
        <ele>1114.9</ele>
        <time>2013-01-19T12:49:43.000Z</time>
      </trkpt>
      <trkpt lat="47.99053" lon="6.927">
        <ele>1116.1</ele>
        <time>2013-01-19T12:49:44.000Z</time>
      </trkpt>
      <trkpt lat="47.99053" lon="6.92705">
        <ele>1116.7</ele>
        <time>2013-01-19T12:49:47.000Z</time>
      </trkpt>
      <trkpt lat="47.99053" lon="6.92707">
        <ele>1116.9</ele>
        <time>2013-01-19T12:49:48.000Z</time>
      </trkpt>
      <trkpt lat="47.99055" lon="6.92701">
        <ele>1117.7</ele>
        <time>2013-01-19T12:50:41.000Z</time>
      </trkpt>
      <trkpt lat="47.99054" lon="6.927">
        <ele>1117.7</ele>
        <time>2013-01-19T12:50:42.000Z</time>
      </trkpt>
      <trkpt lat="47.99053" lon="6.92694">
        <ele>1114.8</ele>
        <time>2013-01-19T12:51:22.000Z</time>
      </trkpt>
      <trkpt lat="47.99053" lon="6.92693">
        <ele>1115.4</ele>
        <time>2013-01-19T12:51:23.000Z</time>
      </trkpt>
      <trkpt lat="47.99051" lon="6.92693">
        <ele>1120.5</ele>
        <time>2013-01-19T12:56:35.000Z</time>
      </trkpt>
      <trkpt lat="47.99047" lon="6.92691">
        <ele>1120.6</ele>
        <time>2013-01-19T12:56:36.000Z</time>
      </trkpt>
      <trkpt lat="47.99044" lon="6.92687">
        <ele>1121.7</ele>
        <time>2013-01-19T12:56:39.000Z</time>
      </trkpt>
      <trkpt lat="47.99043" lon="6.92686">
        <ele>1121.2</ele>
        <time>2013-01-19T12:56:40.000Z</time>
      </trkpt>
      <trkpt lat="47.99047" lon="6.92684">
        <ele>1116.1</ele>
        <time>2013-01-19T12:56:50.000Z</time>
      </trkpt>
      <trkpt lat="47.99049" lon="6.92684">
        <ele>1115.3</ele>
        <time>2013-01-19T12:56:51.000Z</time>
      </trkpt>
      <trkpt lat="47.99053" lon="6.92682">
        <ele>1115.6</ele>
        <time>2013-01-19T12:56:57.000Z</time>
      </trkpt>
      <trkpt lat="47.99053" lon="6.92681">
        <ele>1115.7</ele>
        <time>2013-01-19T12:56:58.000Z</time>
      </trkpt>
      <trkpt lat="47.99049" lon="6.92683">
        <ele>1118.3</ele>
        <time>2013-01-19T12:57:20.000Z</time>
      </trkpt>
      <trkpt lat="47.99048" lon="6.92684">
        <ele>1119</ele>
        <time>2013-01-19T12:57:21.000Z</time>
      </trkpt>
      <trkpt lat="47.99051" lon="6.9268">
        <ele>1119.6</ele>
        <time>2013-01-19T12:57:34.000Z</time>
      </trkpt>
      <trkpt lat="47.99054" lon="6.92678">
        <ele>1119.5</ele>
        <time>2013-01-19T12:57:35.000Z</time>
      </trkpt>
      <trkpt lat="47.99057" lon="6.92678">
        <ele>1118.9</ele>
        <time>2013-01-19T12:57:43.000Z</time>
      </trkpt>
      <trkpt lat="47.99059" lon="6.92681">
        <ele>1119.1</ele>
        <time>2013-01-19T12:57:44.000Z</time>
      </trkpt>
      <trkpt lat="47.99061" lon="6.92687">
        <ele>1119.2</ele>
        <time>2013-01-19T12:57:50.000Z</time>
      </trkpt>
      <trkpt lat="47.99062" lon="6.92688">
        <ele>1119</ele>
        <time>2013-01-19T12:57:51.000Z</time>
      </trkpt>
      <trkpt lat="47.99059" lon="6.92693">
        <ele>1119</ele>
        <time>2013-01-19T12:57:52.000Z</time>
      </trkpt>
      <trkpt lat="47.99057" lon="6.92699">
        <ele>1118.8</ele>
        <time>2013-01-19T12:59:05.000Z</time>
      </trkpt>
      <trkpt lat="47.99057" lon="6.92701">
        <ele>1117.9</ele>
        <time>2013-01-19T12:59:06.000Z</time>
      </trkpt>
      <trkpt lat="47.99059" lon="6.92705">
        <ele>1117.2</ele>
        <time>2013-01-19T12:59:42.000Z</time>
      </trkpt>
      <trkpt lat="47.99062" lon="6.92702">
        <ele>1117.9</ele>
        <time>2013-01-19T12:59:43.000Z</time>
      </trkpt>
      <trkpt lat="47.99064" lon="6.92702">
        <ele>1118.2</ele>
        <time>2013-01-19T12:59:44.000Z</time>
      </trkpt>
      <trkpt lat="47.99067" lon="6.92698">
        <ele>1117</ele>
        <time>2013-01-19T12:59:45.000Z</time>
      </trkpt>
      <trkpt lat="47.9907" lon="6.92694">
        <ele>1115.1</ele>
        <time>2013-01-19T12:59:48.000Z</time>
      </trkpt>
      <trkpt lat="47.9907" lon="6.92693">
        <ele>1115</ele>
        <time>2013-01-19T12:59:49.000Z</time>
      </trkpt>
      <trkpt lat="47.99072" lon="6.9269">
        <ele>1116.3</ele>
        <time>2013-01-19T12:59:51.000Z</time>
      </trkpt>
      <trkpt lat="47.99074" lon="6.92687">
        <ele>1116.2</ele>
        <time>2013-01-19T12:59:52.000Z</time>
      </trkpt>
      <trkpt lat="47.99076" lon="6.92682">
        <ele>1121.4</ele>
        <time>2013-01-19T13:00:25.000Z</time>
      </trkpt>
      <trkpt lat="47.99076" lon="6.9268">
        <ele>1120.7</ele>
        <time>2013-01-19T13:00:26.000Z</time>
      </trkpt>
      <trkpt lat="47.9908" lon="6.92676">
        <ele>1124</ele>
        <time>2013-01-19T13:00:39.000Z</time>
      </trkpt>
      <trkpt lat="47.9908" lon="6.92676">
        <ele>1124.3</ele>
        <time>2013-01-19T13:00:40.000Z</time>
      </trkpt>
      <trkpt lat="47.99081" lon="6.9267">
        <ele>1122.9</ele>
        <time>2013-01-19T13:00:45.000Z</time>
      </trkpt>
      <trkpt lat="47.99082" lon="6.92668">
        <ele>1123.5</ele>
        <time>2013-01-19T13:00:46.000Z</time>
      </trkpt>
      <trkpt lat="47.99084" lon="6.92664">
        <ele>1122.5</ele>
        <time>2013-01-19T13:00:57.000Z</time>
      </trkpt>
      <trkpt lat="47.99085" lon="6.92661">
        <ele>1120.8</ele>
        <time>2013-01-19T13:00:58.000Z</time>
      </trkpt>
      <trkpt lat="47.99087" lon="6.92657">
        <ele>1118.9</ele>
        <time>2013-01-19T13:01:00.000Z</time>
      </trkpt>
      <trkpt lat="47.99087" lon="6.92653">
        <ele>1119.4</ele>
        <time>2013-01-19T13:01:01.000Z</time>
      </trkpt>
      <trkpt lat="47.99089" lon="6.92648">
        <ele>1119.2</ele>
        <time>2013-01-19T13:01:08.000Z</time>
      </trkpt>
      <trkpt lat="47.99089" lon="6.92646">
        <ele>1119.1</ele>
        <time>2013-01-19T13:01:09.000Z</time>
      </trkpt>
      <trkpt lat="47.9909" lon="6.92644">
        <ele>1118.3</ele>
        <time>2013-01-19T13:01:12.000Z</time>
      </trkpt>
      <trkpt lat="47.99092" lon="6.92642">
        <ele>1118</ele>
        <time>2013-01-19T13:01:13.000Z</time>
      </trkpt>
      <trkpt lat="47.99093" lon="6.92636">
        <ele>1117.9</ele>
        <time>2013-01-19T13:01:24.000Z</time>
      </trkpt>
      <trkpt lat="47.99093" lon="6.92635">
        <ele>1118.4</ele>
        <time>2013-01-19T13:01:25.000Z</time>
      </trkpt>
      <trkpt lat="47.99093" lon="6.92629">
        <ele>1115.8</ele>
        <time>2013-01-19T13:01:28.000Z</time>
      </trkpt>
      <trkpt lat="47.99092" lon="6.92626">
        <ele>1115.1</ele>
        <time>2013-01-19T13:01:29.000Z</time>
      </trkpt>
      <trkpt lat="47.99095" lon="6.92623">
        <ele>1115.3</ele>
        <time>2013-01-19T13:01:34.000Z</time>
      </trkpt>
      <trkpt lat="47.99096" lon="6.92622">
        <ele>1114.8</ele>
        <time>2013-01-19T13:01:35.000Z</time>
      </trkpt>
      <trkpt lat="47.99094" lon="6.92618">
        <ele>1114.4</ele>
        <time>2013-01-19T13:01:39.000Z</time>
      </trkpt>
      <trkpt lat="47.99093" lon="6.92616">
        <ele>1115.2</ele>
        <time>2013-01-19T13:01:40.000Z</time>
      </trkpt>
      <trkpt lat="47.99094" lon="6.92609">
        <ele>1115</ele>
        <time>2013-01-19T13:01:49.000Z</time>
      </trkpt>
      <trkpt lat="47.99091" lon="6.92608">
        <ele>1114.9</ele>
        <time>2013-01-19T13:01:50.000Z</time>
      </trkpt>
      <trkpt lat="47.99091" lon="6.92602">
        <ele>1115.2</ele>
        <time>2013-01-19T13:01:53.000Z</time>
      </trkpt>
      <trkpt lat="47.9909" lon="6.92598">
        <ele>1115.1</ele>
        <time>2013-01-19T13:01:54.000Z</time>
      </trkpt>
      <trkpt lat="47.99091" lon="6.92591">
        <ele>1115.3</ele>
        <time>2013-01-19T13:01:57.000Z</time>
      </trkpt>
      <trkpt lat="47.99092" lon="6.9259">
        <ele>1114.8</ele>
        <time>2013-01-19T13:01:58.000Z</time>
      </trkpt>
      <trkpt lat="47.99093" lon="6.92585">
        <ele>1114.1</ele>
        <time>2013-01-19T13:02:00.000Z</time>
      </trkpt>
      <trkpt lat="47.99093" lon="6.92583">
        <ele>1113.6</ele>
        <time>2013-01-19T13:02:01.000Z</time>
      </trkpt>
      <trkpt lat="47.99093" lon="6.92577">
        <ele>1114.8</ele>
        <time>2013-01-19T13:02:04.000Z</time>
      </trkpt>
      <trkpt lat="47.99093" lon="6.92575">
        <ele>1114.7</ele>
        <time>2013-01-19T13:02:05.000Z</time>
      </trkpt>
      <trkpt lat="47.99094" lon="6.9257">
        <ele>1113.7</ele>
        <time>2013-01-19T13:02:08.000Z</time>
      </trkpt>
      <trkpt lat="47.99096" lon="6.92568">
        <ele>1114.5</ele>
        <time>2013-01-19T13:02:09.000Z</time>
      </trkpt>
      <trkpt lat="47.99096" lon="6.92562">
        <ele>1116.2</ele>
        <time>2013-01-19T13:02:13.000Z</time>
      </trkpt>
      <trkpt lat="47.99098" lon="6.92559">
        <ele>1116.9</ele>
        <time>2013-01-19T13:02:14.000Z</time>
      </trkpt>
      <trkpt lat="47.991" lon="6.92554">
        <ele>1118.1</ele>
        <time>2013-01-19T13:02:21.000Z</time>
      </trkpt>
      <trkpt lat="47.99099" lon="6.92553">
        <ele>1118.9</ele>
        <time>2013-01-19T13:02:22.000Z</time>
      </trkpt>
      <trkpt lat="47.99101" lon="6.92546">
        <ele>1118.9</ele>
        <time>2013-01-19T13:02:28.000Z</time>
      </trkpt>
      <trkpt lat="47.99101" lon="6.92544">
        <ele>1118.7</ele>
        <time>2013-01-19T13:02:29.000Z</time>
      </trkpt>
      <trkpt lat="47.99103" lon="6.92539">
        <ele>1119.2</ele>
        <time>2013-01-19T13:02:32.000Z</time>
      </trkpt>
      <trkpt lat="47.99103" lon="6.92538">
        <ele>1119.7</ele>
        <time>2013-01-19T13:02:33.000Z</time>
      </trkpt>
      <trkpt lat="47.99104" lon="6.92533">
        <ele>1119.1</ele>
        <time>2013-01-19T13:02:36.000Z</time>
      </trkpt>
      <trkpt lat="47.99106" lon="6.92532">
        <ele>1118.7</ele>
        <time>2013-01-19T13:02:37.000Z</time>
      </trkpt>
      <trkpt lat="47.99108" lon="6.92526">
        <ele>1118.3</ele>
        <time>2013-01-19T13:02:41.000Z</time>
      </trkpt>
      <trkpt lat="47.99107" lon="6.92525">
        <ele>1118.2</ele>
        <time>2013-01-19T13:02:42.000Z</time>
      </trkpt>
      <trkpt lat="47.99108" lon="6.92519">
        <ele>1118.1</ele>
        <time>2013-01-19T13:02:55.000Z</time>
      </trkpt>
      <trkpt lat="47.99111" lon="6.92515">
        <ele>1119.2</ele>
        <time>2013-01-19T13:02:56.000Z</time>
      </trkpt>
      <trkpt lat="47.99113" lon="6.92512">
        <ele>1118.5</ele>
        <time>2013-01-19T13:02:57.000Z</time>
      </trkpt>
      <trkpt lat="47.99115" lon="6.9251">
        <ele>1118.7</ele>
        <time>2013-01-19T13:02:58.000Z</time>
      </trkpt>
      <trkpt lat="47.99116" lon="6.92506">
        <ele>1116.7</ele>
        <time>2013-01-19T13:02:59.000Z</time>
      </trkpt>
      <trkpt lat="47.99117" lon="6.92503">
        <ele>1116</ele>
        <time>2013-01-19T13:03:00.000Z</time>
      </trkpt>
      <trkpt lat="47.99117" lon="6.92496">
        <ele>1116.5</ele>
        <time>2013-01-19T13:03:02.000Z</time>
      </trkpt>
      <trkpt lat="47.99118" lon="6.92496">
        <ele>1116.2</ele>
        <time>2013-01-19T13:03:03.000Z</time>
      </trkpt>
      <trkpt lat="47.99118" lon="6.9249">
        <ele>1115.2</ele>
        <time>2013-01-19T13:03:06.000Z</time>
      </trkpt>
      <trkpt lat="47.99119" lon="6.92488">
        <ele>1113.1</ele>
        <time>2013-01-19T13:03:07.000Z</time>
      </trkpt>
      <trkpt lat="47.99122" lon="6.92485">
        <ele>1112.1</ele>
        <time>2013-01-19T13:03:10.000Z</time>
      </trkpt>
      <trkpt lat="47.99121" lon="6.92481">
        <ele>1111.9</ele>
        <time>2013-01-19T13:03:11.000Z</time>
      </trkpt>
      <trkpt lat="47.99122" lon="6.92476">
        <ele>1111.7</ele>
        <time>2013-01-19T13:03:15.000Z</time>
      </trkpt>
      <trkpt lat="47.9912" lon="6.92474">
        <ele>1112.5</ele>
        <time>2013-01-19T13:03:16.000Z</time>
      </trkpt>
      <trkpt lat="47.99121" lon="6.92468">
        <ele>1112.1</ele>
        <time>2013-01-19T13:03:19.000Z</time>
      </trkpt>
      <trkpt lat="47.99121" lon="6.92466">
        <ele>1112.5</ele>
        <time>2013-01-19T13:03:20.000Z</time>
      </trkpt>
      <trkpt lat="47.99124" lon="6.92461">
        <ele>1111.4</ele>
        <time>2013-01-19T13:03:24.000Z</time>
      </trkpt>
      <trkpt lat="47.99124" lon="6.9246">
        <ele>1110.7</ele>
        <time>2013-01-19T13:03:25.000Z</time>
      </trkpt>
      <trkpt lat="47.99124" lon="6.92455">
        <ele>1111.1</ele>
        <time>2013-01-19T13:03:28.000Z</time>
      </trkpt>
      <trkpt lat="47.99124" lon="6.92453">
        <ele>1112</ele>
        <time>2013-01-19T13:03:29.000Z</time>
      </trkpt>
      <trkpt lat="47.99126" lon="6.92448">
        <ele>1112.2</ele>
        <time>2013-01-19T13:03:32.000Z</time>
      </trkpt>
      <trkpt lat="47.99126" lon="6.92448">
        <ele>1113</ele>
        <time>2013-01-19T13:03:33.000Z</time>
      </trkpt>
      <trkpt lat="47.99126" lon="6.92443">
        <ele>1110.7</ele>
        <time>2013-01-19T13:03:38.000Z</time>
      </trkpt>
      <trkpt lat="47.99126" lon="6.92439">
        <ele>1111</ele>
        <time>2013-01-19T13:03:39.000Z</time>
      </trkpt>
      <trkpt lat="47.99127" lon="6.92435">
        <ele>1110.1</ele>
        <time>2013-01-19T13:03:43.000Z</time>
      </trkpt>
      <trkpt lat="47.99127" lon="6.92431">
        <ele>1109.2</ele>
        <time>2013-01-19T13:03:44.000Z</time>
      </trkpt>
      <trkpt lat="47.99128" lon="6.92428">
        <ele>1109.9</ele>
        <time>2013-01-19T13:03:45.000Z</time>
      </trkpt>
      <trkpt lat="47.99129" lon="6.92424">
        <ele>1110.2</ele>
        <time>2013-01-19T13:03:46.000Z</time>
      </trkpt>
      <trkpt lat="47.9913" lon="6.92418">
        <ele>1105.4</ele>
        <time>2013-01-19T13:03:51.000Z</time>
      </trkpt>
      <trkpt lat="47.9913" lon="6.92416">
        <ele>1106</ele>
        <time>2013-01-19T13:03:52.000Z</time>
      </trkpt>
      <trkpt lat="47.9913" lon="6.92411">
        <ele>1106.8</ele>
        <time>2013-01-19T13:03:54.000Z</time>
      </trkpt>
      <trkpt lat="47.99131" lon="6.92409">
        <ele>1106.8</ele>
        <time>2013-01-19T13:03:55.000Z</time>
      </trkpt>
      <trkpt lat="47.99134" lon="6.92404">
        <ele>1106.3</ele>
        <time>2013-01-19T13:04:01.000Z</time>
      </trkpt>
      <trkpt lat="47.99134" lon="6.92403">
        <ele>1106.8</ele>
        <time>2013-01-19T13:04:02.000Z</time>
      </trkpt>
      <trkpt lat="47.99136" lon="6.92398">
        <ele>1108.4</ele>
        <time>2013-01-19T13:04:09.000Z</time>
      </trkpt>
      <trkpt lat="47.99136" lon="6.92396">
        <ele>1108.2</ele>
        <time>2013-01-19T13:04:10.000Z</time>
      </trkpt>
      <trkpt lat="47.99138" lon="6.92391">
        <ele>1107.8</ele>
        <time>2013-01-19T13:04:14.000Z</time>
      </trkpt>
      <trkpt lat="47.99139" lon="6.92387">
        <ele>1108</ele>
        <time>2013-01-19T13:04:15.000Z</time>
      </trkpt>
      <trkpt lat="47.99137" lon="6.92382">
        <ele>1108.7</ele>
        <time>2013-01-19T13:04:18.000Z</time>
      </trkpt>
      <trkpt lat="47.99138" lon="6.92378">
        <ele>1108.5</ele>
        <time>2013-01-19T13:04:19.000Z</time>
      </trkpt>
      <trkpt lat="47.99139" lon="6.92372">
        <ele>1109</ele>
        <time>2013-01-19T13:04:22.000Z</time>
      </trkpt>
      <trkpt lat="47.99137" lon="6.92369">
        <ele>1108.6</ele>
        <time>2013-01-19T13:04:23.000Z</time>
      </trkpt>
      <trkpt lat="47.99138" lon="6.92366">
        <ele>1108.4</ele>
        <time>2013-01-19T13:04:27.000Z</time>
      </trkpt>
      <trkpt lat="47.99137" lon="6.92362">
        <ele>1108.7</ele>
        <time>2013-01-19T13:04:28.000Z</time>
      </trkpt>
      <trkpt lat="47.99139" lon="6.92356">
        <ele>1109.6</ele>
        <time>2013-01-19T13:04:33.000Z</time>
      </trkpt>
      <trkpt lat="47.99139" lon="6.92354">
        <ele>1109.4</ele>
        <time>2013-01-19T13:04:34.000Z</time>
      </trkpt>
      <trkpt lat="47.99142" lon="6.9235">
        <ele>1107.5</ele>
        <time>2013-01-19T13:04:39.000Z</time>
      </trkpt>
      <trkpt lat="47.99143" lon="6.92349">
        <ele>1108.2</ele>
        <time>2013-01-19T13:04:40.000Z</time>
      </trkpt>
      <trkpt lat="47.99143" lon="6.92344">
        <ele>1108</ele>
        <time>2013-01-19T13:04:44.000Z</time>
      </trkpt>
      <trkpt lat="47.99143" lon="6.92341">
        <ele>1108.2</ele>
        <time>2013-01-19T13:04:45.000Z</time>
      </trkpt>
      <trkpt lat="47.99143" lon="6.92335">
        <ele>1106.4</ele>
        <time>2013-01-19T13:04:49.000Z</time>
      </trkpt>
      <trkpt lat="47.99141" lon="6.92334">
        <ele>1106.4</ele>
        <time>2013-01-19T13:04:50.000Z</time>
      </trkpt>
      <trkpt lat="47.9914" lon="6.92328">
        <ele>1104.9</ele>
        <time>2013-01-19T13:04:54.000Z</time>
      </trkpt>
      <trkpt lat="47.99139" lon="6.92327">
        <ele>1104.3</ele>
        <time>2013-01-19T13:04:55.000Z</time>
      </trkpt>
      <trkpt lat="47.99139" lon="6.9232">
        <ele>1103.8</ele>
        <time>2013-01-19T13:05:00.000Z</time>
      </trkpt>
      <trkpt lat="47.99139" lon="6.9232">
        <ele>1103.9</ele>
        <time>2013-01-19T13:05:01.000Z</time>
      </trkpt>
      <trkpt lat="47.99138" lon="6.92318">
        <ele>1102.9</ele>
        <time>2013-01-19T13:05:08.000Z</time>
      </trkpt>
      <trkpt lat="47.99138" lon="6.92313">
        <ele>1102.5</ele>
        <time>2013-01-19T13:05:09.000Z</time>
      </trkpt>
      <trkpt lat="47.9914" lon="6.9231">
        <ele>1101.8</ele>
        <time>2013-01-19T13:05:10.000Z</time>
      </trkpt>
      <trkpt lat="47.99141" lon="6.92306">
        <ele>1100.5</ele>
        <time>2013-01-19T13:05:11.000Z</time>
      </trkpt>
      <trkpt lat="47.99139" lon="6.92303">
        <ele>1098.3</ele>
        <time>2013-01-19T13:05:17.000Z</time>
      </trkpt>
      <trkpt lat="47.99138" lon="6.92301">
        <ele>1098.1</ele>
        <time>2013-01-19T13:05:18.000Z</time>
      </trkpt>
      <trkpt lat="47.99137" lon="6.92296">
        <ele>1097.9</ele>
        <time>2013-01-19T13:05:19.000Z</time>
      </trkpt>
      <trkpt lat="47.99137" lon="6.92294">
        <ele>1097.6</ele>
        <time>2013-01-19T13:05:20.000Z</time>
      </trkpt>
      <trkpt lat="47.99135" lon="6.9229">
        <ele>1097.6</ele>
        <time>2013-01-19T13:05:21.000Z</time>
      </trkpt>
      <trkpt lat="47.99134" lon="6.92287">
        <ele>1097.7</ele>
        <time>2013-01-19T13:05:22.000Z</time>
      </trkpt>
      <trkpt lat="47.99131" lon="6.92285">
        <ele>1097.9</ele>
        <time>2013-01-19T13:05:24.000Z</time>
      </trkpt>
      <trkpt lat="47.9913" lon="6.92284">
        <ele>1097.5</ele>
        <time>2013-01-19T13:05:25.000Z</time>
      </trkpt>
      <trkpt lat="47.99126" lon="6.9228">
        <ele>1097.5</ele>
        <time>2013-01-19T13:05:29.000Z</time>
      </trkpt>
      <trkpt lat="47.99124" lon="6.92279">
        <ele>1098.2</ele>
        <time>2013-01-19T13:05:30.000Z</time>
      </trkpt>
      <trkpt lat="47.9912" lon="6.92278">
        <ele>1098.7</ele>
        <time>2013-01-19T13:05:33.000Z</time>
      </trkpt>
      <trkpt lat="47.99118" lon="6.92278">
        <ele>1098.5</ele>
        <time>2013-01-19T13:05:34.000Z</time>
      </trkpt>
      <trkpt lat="47.99114" lon="6.92277">
        <ele>1098.3</ele>
        <time>2013-01-19T13:05:38.000Z</time>
      </trkpt>
      <trkpt lat="47.99113" lon="6.92278">
        <ele>1098.6</ele>
        <time>2013-01-19T13:05:39.000Z</time>
      </trkpt>
      <trkpt lat="47.99111" lon="6.92274">
        <ele>1099.8</ele>
        <time>2013-01-19T13:05:45.000Z</time>
      </trkpt>
      <trkpt lat="47.9911" lon="6.92272">
        <ele>1099.6</ele>
        <time>2013-01-19T13:05:46.000Z</time>
      </trkpt>
      <trkpt lat="47.99109" lon="6.92265">
        <ele>1098.6</ele>
        <time>2013-01-19T13:05:49.000Z</time>
      </trkpt>
      <trkpt lat="47.99108" lon="6.92264">
        <ele>1098.1</ele>
        <time>2013-01-19T13:05:50.000Z</time>
      </trkpt>
      <trkpt lat="47.99108" lon="6.9226">
        <ele>1097.4</ele>
        <time>2013-01-19T13:05:55.000Z</time>
      </trkpt>
      <trkpt lat="47.99107" lon="6.92257">
        <ele>1098.3</ele>
        <time>2013-01-19T13:05:56.000Z</time>
      </trkpt>
      <trkpt lat="47.99108" lon="6.92254">
        <ele>1098.3</ele>
        <time>2013-01-19T13:05:58.000Z</time>
      </trkpt>
      <trkpt lat="47.99109" lon="6.9225">
        <ele>1098.8</ele>
        <time>2013-01-19T13:05:59.000Z</time>
      </trkpt>
      <trkpt lat="47.99111" lon="6.92247">
        <ele>1096.5</ele>
        <time>2013-01-19T13:06:09.000Z</time>
      </trkpt>
      <trkpt lat="47.99113" lon="6.92248">
        <ele>1095.7</ele>
        <time>2013-01-19T13:06:10.000Z</time>
      </trkpt>
      <trkpt lat="47.99114" lon="6.92246">
        <ele>1095.1</ele>
        <time>2013-01-19T13:10:42.000Z</time>
      </trkpt>
      <trkpt lat="47.99117" lon="6.92243">
        <ele>1094.7</ele>
        <time>2013-01-19T13:10:43.000Z</time>
      </trkpt>
      <trkpt lat="47.99121" lon="6.92242">
        <ele>1094.6</ele>
        <time>2013-01-19T13:10:47.000Z</time>
      </trkpt>
      <trkpt lat="47.99122" lon="6.92243">
        <ele>1095.2</ele>
        <time>2013-01-19T13:10:48.000Z</time>
      </trkpt>
      <trkpt lat="47.99126" lon="6.9224">
        <ele>1094.5</ele>
        <time>2013-01-19T13:10:50.000Z</time>
      </trkpt>
      <trkpt lat="47.99127" lon="6.9224">
        <ele>1094.4</ele>
        <time>2013-01-19T13:10:51.000Z</time>
      </trkpt>
      <trkpt lat="47.9913" lon="6.92236">
        <ele>1094.3</ele>
        <time>2013-01-19T13:10:53.000Z</time>
      </trkpt>
      <trkpt lat="47.99133" lon="6.92235">
        <ele>1095</ele>
        <time>2013-01-19T13:10:54.000Z</time>
      </trkpt>
      <trkpt lat="47.99135" lon="6.92234">
        <ele>1095.5</ele>
        <time>2013-01-19T13:10:55.000Z</time>
      </trkpt>
      <trkpt lat="47.99138" lon="6.92234">
        <ele>1094.9</ele>
        <time>2013-01-19T13:10:56.000Z</time>
      </trkpt>
      <trkpt lat="47.99141" lon="6.92236">
        <ele>1094.3</ele>
        <time>2013-01-19T13:10:57.000Z</time>
      </trkpt>
      <trkpt lat="47.99144" lon="6.92236">
        <ele>1093.7</ele>
        <time>2013-01-19T13:10:58.000Z</time>
      </trkpt>
      <trkpt lat="47.99148" lon="6.92235">
        <ele>1093.8</ele>
        <time>2013-01-19T13:10:59.000Z</time>
      </trkpt>
      <trkpt lat="47.9915" lon="6.92236">
        <ele>1094.1</ele>
        <time>2013-01-19T13:11:00.000Z</time>
      </trkpt>
      <trkpt lat="47.99154" lon="6.92236">
        <ele>1094.2</ele>
        <time>2013-01-19T13:11:03.000Z</time>
      </trkpt>
      <trkpt lat="47.99155" lon="6.92236">
        <ele>1093.7</ele>
        <time>2013-01-19T13:11:04.000Z</time>
      </trkpt>
      <trkpt lat="47.99159" lon="6.92239">
        <ele>1093.2</ele>
        <time>2013-01-19T13:11:07.000Z</time>
      </trkpt>
      <trkpt lat="47.9916" lon="6.92238">
        <ele>1093.1</ele>
        <time>2013-01-19T13:11:08.000Z</time>
      </trkpt>
      <trkpt lat="47.99163" lon="6.92242">
        <ele>1091.9</ele>
        <time>2013-01-19T13:11:17.000Z</time>
      </trkpt>
      <trkpt lat="47.99164" lon="6.92243">
        <ele>1091.7</ele>
        <time>2013-01-19T13:11:18.000Z</time>
      </trkpt>
      <trkpt lat="47.99168" lon="6.92245">
        <ele>1092.1</ele>
        <time>2013-01-19T13:11:23.000Z</time>
      </trkpt>
      <trkpt lat="47.99169" lon="6.92246">
        <ele>1092.2</ele>
        <time>2013-01-19T13:11:24.000Z</time>
      </trkpt>
      <trkpt lat="47.99173" lon="6.92248">
        <ele>1091.9</ele>
        <time>2013-01-19T13:11:27.000Z</time>
      </trkpt>
      <trkpt lat="47.99176" lon="6.92248">
        <ele>1091.9</ele>
        <time>2013-01-19T13:11:28.000Z</time>
      </trkpt>
      <trkpt lat="47.99179" lon="6.92252">
        <ele>1090.6</ele>
        <time>2013-01-19T13:11:31.000Z</time>
      </trkpt>
      <trkpt lat="47.99179" lon="6.92253">
        <ele>1091.4</ele>
        <time>2013-01-19T13:11:32.000Z</time>
      </trkpt>
      <trkpt lat="47.99181" lon="6.92258">
        <ele>1092.8</ele>
        <time>2013-01-19T13:11:36.000Z</time>
      </trkpt>
      <trkpt lat="47.99181" lon="6.9226">
        <ele>1093.9</ele>
        <time>2013-01-19T13:11:37.000Z</time>
      </trkpt>
      <trkpt lat="47.99181" lon="6.92266">
        <ele>1095.5</ele>
        <time>2013-01-19T13:11:41.000Z</time>
      </trkpt>
      <trkpt lat="47.99183" lon="6.92267">
        <ele>1095.4</ele>
        <time>2013-01-19T13:11:42.000Z</time>
      </trkpt>
      <trkpt lat="47.99186" lon="6.9227">
        <ele>1095.3</ele>
        <time>2013-01-19T13:11:45.000Z</time>
      </trkpt>
      <trkpt lat="47.99188" lon="6.92272">
        <ele>1095.8</ele>
        <time>2013-01-19T13:11:46.000Z</time>
      </trkpt>
      <trkpt lat="47.99187" lon="6.92278">
        <ele>1092.9</ele>
        <time>2013-01-19T13:11:55.000Z</time>
      </trkpt>
      <trkpt lat="47.99187" lon="6.92279">
        <ele>1092.7</ele>
        <time>2013-01-19T13:11:56.000Z</time>
      </trkpt>
      <trkpt lat="47.99187" lon="6.92283">
        <ele>1093.3</ele>
        <time>2013-01-19T13:12:11.000Z</time>
      </trkpt>
      <trkpt lat="47.99188" lon="6.92286">
        <ele>1093.1</ele>
        <time>2013-01-19T13:12:12.000Z</time>
      </trkpt>
      <trkpt lat="47.99188" lon="6.92289">
        <ele>1092.6</ele>
        <time>2013-01-19T13:12:14.000Z</time>
      </trkpt>
      <trkpt lat="47.99189" lon="6.92292">
        <ele>1092.4</ele>
        <time>2013-01-19T13:12:15.000Z</time>
      </trkpt>
      <trkpt lat="47.9919" lon="6.92299">
        <ele>1092.1</ele>
        <time>2013-01-19T13:12:21.000Z</time>
      </trkpt>
      <trkpt lat="47.99191" lon="6.92299">
        <ele>1092.6</ele>
        <time>2013-01-19T13:12:22.000Z</time>
      </trkpt>
      <trkpt lat="47.99192" lon="6.92302">
        <ele>1093.7</ele>
        <time>2013-01-19T13:12:29.000Z</time>
      </trkpt>
      <trkpt lat="47.9919" lon="6.92307">
        <ele>1090.5</ele>
        <time>2013-01-19T13:12:30.000Z</time>
      </trkpt>
      <trkpt lat="47.9919" lon="6.92313">
        <ele>1090.4</ele>
        <time>2013-01-19T13:12:33.000Z</time>
      </trkpt>
      <trkpt lat="47.99191" lon="6.92316">
        <ele>1090.6</ele>
        <time>2013-01-19T13:12:34.000Z</time>
      </trkpt>
      <trkpt lat="47.9919" lon="6.92322">
        <ele>1090</ele>
        <time>2013-01-19T13:12:36.000Z</time>
      </trkpt>
      <trkpt lat="47.99192" lon="6.92325">
        <ele>1089.6</ele>
        <time>2013-01-19T13:12:37.000Z</time>
      </trkpt>
      <trkpt lat="47.99195" lon="6.92329">
        <ele>1088.3</ele>
        <time>2013-01-19T13:12:39.000Z</time>
      </trkpt>
      <trkpt lat="47.99195" lon="6.92331">
        <ele>1088.3</ele>
        <time>2013-01-19T13:12:40.000Z</time>
      </trkpt>
      <trkpt lat="47.99197" lon="6.92336">
        <ele>1088.1</ele>
        <time>2013-01-19T13:12:42.000Z</time>
      </trkpt>
      <trkpt lat="47.99198" lon="6.9234">
        <ele>1088.1</ele>
        <time>2013-01-19T13:12:43.000Z</time>
      </trkpt>
      <trkpt lat="47.99198" lon="6.92344">
        <ele>1086</ele>
        <time>2013-01-19T13:12:48.000Z</time>
      </trkpt>
      <trkpt lat="47.99198" lon="6.92347">
        <ele>1085.7</ele>
        <time>2013-01-19T13:12:49.000Z</time>
      </trkpt>
      <trkpt lat="47.99198" lon="6.92353">
        <ele>1086.4</ele>
        <time>2013-01-19T13:12:51.000Z</time>
      </trkpt>
      <trkpt lat="47.99198" lon="6.92355">
        <ele>1086</ele>
        <time>2013-01-19T13:12:52.000Z</time>
      </trkpt>
      <trkpt lat="47.99195" lon="6.9236">
        <ele>1085.8</ele>
        <time>2013-01-19T13:12:54.000Z</time>
      </trkpt>
      <trkpt lat="47.99194" lon="6.9236">
        <ele>1085.8</ele>
        <time>2013-01-19T13:12:55.000Z</time>
      </trkpt>
      <trkpt lat="47.99195" lon="6.92364">
        <ele>1085.6</ele>
        <time>2013-01-19T13:13:02.000Z</time>
      </trkpt>
      <trkpt lat="47.99197" lon="6.92367">
        <ele>1086.3</ele>
        <time>2013-01-19T13:13:03.000Z</time>
      </trkpt>
      <trkpt lat="47.99197" lon="6.92371">
        <ele>1086.6</ele>
        <time>2013-01-19T13:13:04.000Z</time>
      </trkpt>
      <trkpt lat="47.99197" lon="6.92376">
        <ele>1086.8</ele>
        <time>2013-01-19T13:13:05.000Z</time>
      </trkpt>
      <trkpt lat="47.99198" lon="6.92381">
        <ele>1085.1</ele>
        <time>2013-01-19T13:13:08.000Z</time>
      </trkpt>
      <trkpt lat="47.99198" lon="6.92383">
        <ele>1085.1</ele>
        <time>2013-01-19T13:13:09.000Z</time>
      </trkpt>
      <trkpt lat="47.99197" lon="6.92388">
        <ele>1084.1</ele>
        <time>2013-01-19T13:13:12.000Z</time>
      </trkpt>
      <trkpt lat="47.99196" lon="6.9239">
        <ele>1084.5</ele>
        <time>2013-01-19T13:13:13.000Z</time>
      </trkpt>
      <trkpt lat="47.99197" lon="6.92396">
        <ele>1085.1</ele>
        <time>2013-01-19T13:13:17.000Z</time>
      </trkpt>
      <trkpt lat="47.99197" lon="6.92399">
        <ele>1085.1</ele>
        <time>2013-01-19T13:13:18.000Z</time>
      </trkpt>
      <trkpt lat="47.99194" lon="6.92402">
        <ele>1083.9</ele>
        <time>2013-01-19T13:13:22.000Z</time>
      </trkpt>
      <trkpt lat="47.99194" lon="6.92404">
        <ele>1083.9</ele>
        <time>2013-01-19T13:13:23.000Z</time>
      </trkpt>
      <trkpt lat="47.99197" lon="6.92408">
        <ele>1082.6</ele>
        <time>2013-01-19T13:13:34.000Z</time>
      </trkpt>
      <trkpt lat="47.99197" lon="6.92408">
        <ele>1082.6</ele>
        <time>2013-01-19T13:13:35.000Z</time>
      </trkpt>
      <trkpt lat="47.99198" lon="6.92414">
        <ele>1081.8</ele>
        <time>2013-01-19T13:13:44.000Z</time>
      </trkpt>
      <trkpt lat="47.99197" lon="6.92416">
        <ele>1081.5</ele>
        <time>2013-01-19T13:13:45.000Z</time>
      </trkpt>
      <trkpt lat="47.99198" lon="6.92422">
        <ele>1082</ele>
        <time>2013-01-19T13:13:52.000Z</time>
      </trkpt>
      <trkpt lat="47.99198" lon="6.92423">
        <ele>1082.3</ele>
        <time>2013-01-19T13:13:53.000Z</time>
      </trkpt>
      <trkpt lat="47.99198" lon="6.92424">
        <ele>1082.5</ele>
        <time>2013-01-19T13:14:01.000Z</time>
      </trkpt>
      <trkpt lat="47.992" lon="6.9243">
        <ele>1083.1</ele>
        <time>2013-01-19T13:14:02.000Z</time>
      </trkpt>
      <trkpt lat="47.99198" lon="6.92438">
        <ele>1082.7</ele>
        <time>2013-01-19T13:14:03.000Z</time>
      </trkpt>
      <trkpt lat="47.99198" lon="6.9244">
        <ele>1082.9</ele>
        <time>2013-01-19T13:14:04.000Z</time>
      </trkpt>
      <trkpt lat="47.99197" lon="6.92444">
        <ele>1082.6</ele>
        <time>2013-01-19T13:14:05.000Z</time>
      </trkpt>
      <trkpt lat="47.99198" lon="6.92449">
        <ele>1083.9</ele>
        <time>2013-01-19T13:14:06.000Z</time>
      </trkpt>
      <trkpt lat="47.99196" lon="6.92455">
        <ele>1083.3</ele>
        <time>2013-01-19T13:14:07.000Z</time>
      </trkpt>
      <trkpt lat="47.99196" lon="6.92462">
        <ele>1083.7</ele>
        <time>2013-01-19T13:14:09.000Z</time>
      </trkpt>
      <trkpt lat="47.99196" lon="6.92464">
        <ele>1082.8</ele>
        <time>2013-01-19T13:14:10.000Z</time>
      </trkpt>
      <trkpt lat="47.99197" lon="6.92469">
        <ele>1082.5</ele>
        <time>2013-01-19T13:14:13.000Z</time>
      </trkpt>
      <trkpt lat="47.99198" lon="6.92472">
        <ele>1083.1</ele>
        <time>2013-01-19T13:14:14.000Z</time>
      </trkpt>
      <trkpt lat="47.99194" lon="6.92475">
        <ele>1083.4</ele>
        <time>2013-01-19T13:14:17.000Z</time>
      </trkpt>
      <trkpt lat="47.99193" lon="6.92478">
        <ele>1083.8</ele>
        <time>2013-01-19T13:14:18.000Z</time>
      </trkpt>
      <trkpt lat="47.99194" lon="6.92482">
        <ele>1084.4</ele>
        <time>2013-01-19T13:14:23.000Z</time>
      </trkpt>
      <trkpt lat="47.99195" lon="6.92484">
        <ele>1084.7</ele>
        <time>2013-01-19T13:14:24.000Z</time>
      </trkpt>
      <trkpt lat="47.99196" lon="6.92487">
        <ele>1083.9</ele>
        <time>2013-01-19T13:14:30.000Z</time>
      </trkpt>
      <trkpt lat="47.99195" lon="6.9249">
        <ele>1084.2</ele>
        <time>2013-01-19T13:14:31.000Z</time>
      </trkpt>
      <trkpt lat="47.99195" lon="6.92496">
        <ele>1084.6</ele>
        <time>2013-01-19T13:14:39.000Z</time>
      </trkpt>
      <trkpt lat="47.99193" lon="6.92497">
        <ele>1084</ele>
        <time>2013-01-19T13:14:40.000Z</time>
      </trkpt>
      <trkpt lat="47.99194" lon="6.92503">
        <ele>1083.6</ele>
        <time>2013-01-19T13:14:44.000Z</time>
      </trkpt>
      <trkpt lat="47.99194" lon="6.92504">
        <ele>1083.3</ele>
        <time>2013-01-19T13:14:45.000Z</time>
      </trkpt>
      <trkpt lat="47.99195" lon="6.92509">
        <ele>1083.4</ele>
        <time>2013-01-19T13:14:50.000Z</time>
      </trkpt>
      <trkpt lat="47.99195" lon="6.92512">
        <ele>1083.2</ele>
        <time>2013-01-19T13:14:51.000Z</time>
      </trkpt>
      <trkpt lat="47.99195" lon="6.92516">
        <ele>1082.2</ele>
        <time>2013-01-19T13:14:52.000Z</time>
      </trkpt>
      <trkpt lat="47.99195" lon="6.92519">
        <ele>1082.1</ele>
        <time>2013-01-19T13:14:53.000Z</time>
      </trkpt>
      <trkpt lat="47.99195" lon="6.92521">
        <ele>1082.1</ele>
        <time>2013-01-19T13:14:54.000Z</time>
      </trkpt>
      <trkpt lat="47.99196" lon="6.92525">
        <ele>1083.2</ele>
        <time>2013-01-19T13:14:55.000Z</time>
      </trkpt>
      <trkpt lat="47.99198" lon="6.92531">
        <ele>1085</ele>
        <time>2013-01-19T13:15:44.000Z</time>
      </trkpt>
      <trkpt lat="47.99198" lon="6.92531">
        <ele>1085.2</ele>
        <time>2013-01-19T13:15:45.000Z</time>
      </trkpt>
      <trkpt lat="47.99201" lon="6.92534">
        <ele>1084.4</ele>
        <time>2013-01-19T13:15:48.000Z</time>
      </trkpt>
      <trkpt lat="47.99206" lon="6.92541">
        <ele>1084.1</ele>
        <time>2013-01-19T13:15:49.000Z</time>
      </trkpt>
      <trkpt lat="47.9921" lon="6.92541">
        <ele>1084.4</ele>
        <time>2013-01-19T13:15:50.000Z</time>
      </trkpt>
      <trkpt lat="47.99212" lon="6.92545">
        <ele>1084.6</ele>
        <time>2013-01-19T13:15:51.000Z</time>
      </trkpt>
      <trkpt lat="47.99214" lon="6.92546">
        <ele>1084.1</ele>
        <time>2013-01-19T13:15:52.000Z</time>
      </trkpt>
      <trkpt lat="47.99214" lon="6.92549">
        <ele>1083.5</ele>
        <time>2013-01-19T13:15:53.000Z</time>
      </trkpt>
      <trkpt lat="47.99215" lon="6.92553">
        <ele>1083.9</ele>
        <time>2013-01-19T13:15:54.000Z</time>
      </trkpt>
      <trkpt lat="47.99218" lon="6.92557">
        <ele>1082.7</ele>
        <time>2013-01-19T13:15:56.000Z</time>
      </trkpt>
      <trkpt lat="47.99219" lon="6.92559">
        <ele>1082.6</ele>
        <time>2013-01-19T13:15:57.000Z</time>
      </trkpt>
      <trkpt lat="47.99221" lon="6.92558">
        <ele>1082.7</ele>
        <time>2013-01-19T13:15:58.000Z</time>
      </trkpt>
      <trkpt lat="47.99224" lon="6.92557">
        <ele>1082.4</ele>
        <time>2013-01-19T13:15:59.000Z</time>
      </trkpt>
      <trkpt lat="47.99227" lon="6.9256">
        <ele>1081.7</ele>
        <time>2013-01-19T13:16:03.000Z</time>
      </trkpt>
      <trkpt lat="47.99228" lon="6.92563">
        <ele>1081</ele>
        <time>2013-01-19T13:16:04.000Z</time>
      </trkpt>
      <trkpt lat="47.99232" lon="6.92566">
        <ele>1081.4</ele>
        <time>2013-01-19T13:16:06.000Z</time>
      </trkpt>
      <trkpt lat="47.99234" lon="6.92566">
        <ele>1081.4</ele>
        <time>2013-01-19T13:16:07.000Z</time>
      </trkpt>
      <trkpt lat="47.99236" lon="6.92569">
        <ele>1080.2</ele>
        <time>2013-01-19T13:16:09.000Z</time>
      </trkpt>
      <trkpt lat="47.99238" lon="6.92569">
        <ele>1081.1</ele>
        <time>2013-01-19T13:16:10.000Z</time>
      </trkpt>
      <trkpt lat="47.99241" lon="6.92573">
        <ele>1081.9</ele>
        <time>2013-01-19T13:16:12.000Z</time>
      </trkpt>
      <trkpt lat="47.99242" lon="6.92574">
        <ele>1081.7</ele>
        <time>2013-01-19T13:16:13.000Z</time>
      </trkpt>
      <trkpt lat="47.99246" lon="6.92575">
        <ele>1078.9</ele>
        <time>2013-01-19T13:16:19.000Z</time>
      </trkpt>
      <trkpt lat="47.99246" lon="6.92577">
        <ele>1078.8</ele>
        <time>2013-01-19T13:16:20.000Z</time>
      </trkpt>
      <trkpt lat="47.99247" lon="6.92583">
        <ele>1077.9</ele>
        <time>2013-01-19T13:16:29.000Z</time>
      </trkpt>
      <trkpt lat="47.99247" lon="6.92583">
        <ele>1077.7</ele>
        <time>2013-01-19T13:16:30.000Z</time>
      </trkpt>
      <trkpt lat="47.99247" lon="6.92589">
        <ele>1076.8</ele>
        <time>2013-01-19T13:16:36.000Z</time>
      </trkpt>
      <trkpt lat="47.99247" lon="6.92591">
        <ele>1076.7</ele>
        <time>2013-01-19T13:16:37.000Z</time>
      </trkpt>
      <trkpt lat="47.99247" lon="6.92596">
        <ele>1075.9</ele>
        <time>2013-01-19T13:16:44.000Z</time>
      </trkpt>
      <trkpt lat="47.99248" lon="6.92599">
        <ele>1075.2</ele>
        <time>2013-01-19T13:16:45.000Z</time>
      </trkpt>
      <trkpt lat="47.99251" lon="6.926">
        <ele>1074.1</ele>
        <time>2013-01-19T13:16:51.000Z</time>
      </trkpt>
      <trkpt lat="47.99253" lon="6.92601">
        <ele>1073.2</ele>
        <time>2013-01-19T13:16:52.000Z</time>
      </trkpt>
      <trkpt lat="47.99256" lon="6.92604">
        <ele>1071.6</ele>
        <time>2013-01-19T13:16:55.000Z</time>
      </trkpt>
      <trkpt lat="47.99258" lon="6.92605">
        <ele>1071.5</ele>
        <time>2013-01-19T13:16:56.000Z</time>
      </trkpt>
      <trkpt lat="47.99262" lon="6.92607">
        <ele>1071.8</ele>
        <time>2013-01-19T13:17:00.000Z</time>
      </trkpt>
      <trkpt lat="47.99263" lon="6.92606">
        <ele>1072.1</ele>
        <time>2013-01-19T13:17:01.000Z</time>
      </trkpt>
      <trkpt lat="47.99265" lon="6.92609">
        <ele>1069.8</ele>
        <time>2013-01-19T13:17:08.000Z</time>
      </trkpt>
      <trkpt lat="47.99267" lon="6.92609">
        <ele>1070.4</ele>
        <time>2013-01-19T13:17:09.000Z</time>
      </trkpt>
      <trkpt lat="47.99265" lon="6.92615">
        <ele>1069.6</ele>
        <time>2013-01-19T13:17:14.000Z</time>
      </trkpt>
      <trkpt lat="47.99265" lon="6.92615">
        <ele>1069.5</ele>
        <time>2013-01-19T13:17:15.000Z</time>
      </trkpt>
      <trkpt lat="47.99265" lon="6.92611">
        <ele>1068.4</ele>
        <time>2013-01-19T13:18:52.000Z</time>
      </trkpt>
      <trkpt lat="47.99258" lon="6.92601">
        <ele>1070.4</ele>
        <time>2013-01-19T13:18:53.000Z</time>
      </trkpt>
      <trkpt lat="47.99259" lon="6.92596">
        <ele>1073.9</ele>
        <time>2013-01-19T13:22:47.000Z</time>
      </trkpt>
      <trkpt lat="47.9926" lon="6.92591">
        <ele>1072.9</ele>
        <time>2013-01-19T13:22:48.000Z</time>
      </trkpt>
      <trkpt lat="47.9926" lon="6.92586">
        <ele>1071.5</ele>
        <time>2013-01-19T13:22:50.000Z</time>
      </trkpt>
      <trkpt lat="47.99262" lon="6.92584">
        <ele>1071.2</ele>
        <time>2013-01-19T13:22:51.000Z</time>
      </trkpt>
      <trkpt lat="47.99264" lon="6.92583">
        <ele>1070.4</ele>
        <time>2013-01-19T13:22:52.000Z</time>
      </trkpt>
      <trkpt lat="47.99263" lon="6.92577">
        <ele>1070.7</ele>
        <time>2013-01-19T13:22:53.000Z</time>
      </trkpt>
      <trkpt lat="47.99261" lon="6.92573">
        <ele>1069</ele>
        <time>2013-01-19T13:22:56.000Z</time>
      </trkpt>
      <trkpt lat="47.9926" lon="6.92568">
        <ele>1068.6</ele>
        <time>2013-01-19T13:22:57.000Z</time>
      </trkpt>
      <trkpt lat="47.99258" lon="6.92562">
        <ele>1068.8</ele>
        <time>2013-01-19T13:23:01.000Z</time>
      </trkpt>
      <trkpt lat="47.99257" lon="6.92561">
        <ele>1068.5</ele>
        <time>2013-01-19T13:23:02.000Z</time>
      </trkpt>
      <trkpt lat="47.99254" lon="6.92557">
        <ele>1068.4</ele>
        <time>2013-01-19T13:23:05.000Z</time>
      </trkpt>
      <trkpt lat="47.99253" lon="6.92556">
        <ele>1068.3</ele>
        <time>2013-01-19T13:23:06.000Z</time>
      </trkpt>
      <trkpt lat="47.99252" lon="6.9255">
        <ele>1068.1</ele>
        <time>2013-01-19T13:23:08.000Z</time>
      </trkpt>
      <trkpt lat="47.99253" lon="6.92549">
        <ele>1067.5</ele>
        <time>2013-01-19T13:23:09.000Z</time>
      </trkpt>
      <trkpt lat="47.99252" lon="6.92545">
        <ele>1065.8</ele>
        <time>2013-01-19T13:23:12.000Z</time>
      </trkpt>
      <trkpt lat="47.99252" lon="6.92541">
        <ele>1067.1</ele>
        <time>2013-01-19T13:23:13.000Z</time>
      </trkpt>
      <trkpt lat="47.99248" lon="6.92539">
        <ele>1067</ele>
        <time>2013-01-19T13:23:14.000Z</time>
      </trkpt>
      <trkpt lat="47.99247" lon="6.92537">
        <ele>1067.4</ele>
        <time>2013-01-19T13:23:15.000Z</time>
      </trkpt>
      <trkpt lat="47.99249" lon="6.92534">
        <ele>1067.1</ele>
        <time>2013-01-19T13:23:19.000Z</time>
      </trkpt>
      <trkpt lat="47.99246" lon="6.9253">
        <ele>1067.3</ele>
        <time>2013-01-19T13:23:20.000Z</time>
      </trkpt>
      <trkpt lat="47.99243" lon="6.9253">
        <ele>1066.3</ele>
        <time>2013-01-19T13:23:26.000Z</time>
      </trkpt>
      <trkpt lat="47.99241" lon="6.9253">
        <ele>1065.8</ele>
        <time>2013-01-19T13:23:27.000Z</time>
      </trkpt>
      <trkpt lat="47.99242" lon="6.92526">
        <ele>1064.7</ele>
        <time>2013-01-19T13:23:35.000Z</time>
      </trkpt>
      <trkpt lat="47.9924" lon="6.92523">
        <ele>1064.9</ele>
        <time>2013-01-19T13:23:36.000Z</time>
      </trkpt>
      <trkpt lat="47.99237" lon="6.92524">
        <ele>1064.4</ele>
        <time>2013-01-19T13:23:39.000Z</time>
      </trkpt>
      <trkpt lat="47.99234" lon="6.92522">
        <ele>1064.3</ele>
        <time>2013-01-19T13:23:40.000Z</time>
      </trkpt>
      <trkpt lat="47.99235" lon="6.92521">
        <ele>1063.8</ele>
        <time>2013-01-19T13:23:42.000Z</time>
      </trkpt>
      <trkpt lat="47.99232" lon="6.92515">
        <ele>1063.8</ele>
        <time>2013-01-19T13:23:43.000Z</time>
      </trkpt>
      <trkpt lat="47.99233" lon="6.92511">
        <ele>1062.9</ele>
        <time>2013-01-19T13:23:46.000Z</time>
      </trkpt>
      <trkpt lat="47.99238" lon="6.92511">
        <ele>1061.4</ele>
        <time>2013-01-19T13:23:47.000Z</time>
      </trkpt>
      <trkpt lat="47.99242" lon="6.92513">
        <ele>1059.9</ele>
        <time>2013-01-19T13:23:52.000Z</time>
      </trkpt>
      <trkpt lat="47.99244" lon="6.92513">
        <ele>1059.1</ele>
        <time>2013-01-19T13:23:53.000Z</time>
      </trkpt>
      <trkpt lat="47.99247" lon="6.92513">
        <ele>1059.5</ele>
        <time>2013-01-19T13:23:55.000Z</time>
      </trkpt>
      <trkpt lat="47.9925" lon="6.92514">
        <ele>1058.8</ele>
        <time>2013-01-19T13:23:56.000Z</time>
      </trkpt>
      <trkpt lat="47.99254" lon="6.92512">
        <ele>1058.5</ele>
        <time>2013-01-19T13:24:03.000Z</time>
      </trkpt>
      <trkpt lat="47.99256" lon="6.92513">
        <ele>1058.5</ele>
        <time>2013-01-19T13:24:04.000Z</time>
      </trkpt>
      <trkpt lat="47.9926" lon="6.92513">
        <ele>1058.1</ele>
        <time>2013-01-19T13:24:12.000Z</time>
      </trkpt>
      <trkpt lat="47.9926" lon="6.92511">
        <ele>1058</ele>
        <time>2013-01-19T13:24:13.000Z</time>
      </trkpt>
      <trkpt lat="47.99265" lon="6.92514">
        <ele>1057.7</ele>
        <time>2013-01-19T13:24:15.000Z</time>
      </trkpt>
      <trkpt lat="47.99268" lon="6.92514">
        <ele>1057.6</ele>
        <time>2013-01-19T13:24:16.000Z</time>
      </trkpt>
      <trkpt lat="47.99271" lon="6.92518">
        <ele>1057.3</ele>
        <time>2013-01-19T13:24:19.000Z</time>
      </trkpt>
      <trkpt lat="47.99271" lon="6.9252">
        <ele>1057</ele>
        <time>2013-01-19T13:24:20.000Z</time>
      </trkpt>
      <trkpt lat="47.99275" lon="6.92523">
        <ele>1057.4</ele>
        <time>2013-01-19T13:24:21.000Z</time>
      </trkpt>
      <trkpt lat="47.99275" lon="6.92528">
        <ele>1056.2</ele>
        <time>2013-01-19T13:24:25.000Z</time>
      </trkpt>
      <trkpt lat="47.99276" lon="6.9253">
        <ele>1055.9</ele>
        <time>2013-01-19T13:24:26.000Z</time>
      </trkpt>
      <trkpt lat="47.9928" lon="6.9253">
        <ele>1054</ele>
        <time>2013-01-19T13:24:29.000Z</time>
      </trkpt>
      <trkpt lat="47.99281" lon="6.92532">
        <ele>1053.2</ele>
        <time>2013-01-19T13:24:30.000Z</time>
      </trkpt>
      <trkpt lat="47.99284" lon="6.92535">
        <ele>1052</ele>
        <time>2013-01-19T13:24:32.000Z</time>
      </trkpt>
      <trkpt lat="47.99285" lon="6.92537">
        <ele>1051.7</ele>
        <time>2013-01-19T13:24:33.000Z</time>
      </trkpt>
      <trkpt lat="47.99289" lon="6.92538">
        <ele>1051.1</ele>
        <time>2013-01-19T13:24:39.000Z</time>
      </trkpt>
      <trkpt lat="47.9929" lon="6.92537">
        <ele>1050.9</ele>
        <time>2013-01-19T13:24:40.000Z</time>
      </trkpt>
      <trkpt lat="47.99294" lon="6.92538">
        <ele>1051.9</ele>
        <time>2013-01-19T13:24:43.000Z</time>
      </trkpt>
      <trkpt lat="47.99296" lon="6.92541">
        <ele>1051.6</ele>
        <time>2013-01-19T13:24:44.000Z</time>
      </trkpt>
      <trkpt lat="47.993" lon="6.92541">
        <ele>1050.7</ele>
        <time>2013-01-19T13:24:49.000Z</time>
      </trkpt>
      <trkpt lat="47.993" lon="6.92542">
        <ele>1051.1</ele>
        <time>2013-01-19T13:24:50.000Z</time>
      </trkpt>
      <trkpt lat="47.99304" lon="6.92543">
        <ele>1051.4</ele>
        <time>2013-01-19T13:24:53.000Z</time>
      </trkpt>
      <trkpt lat="47.99307" lon="6.92544">
        <ele>1052.2</ele>
        <time>2013-01-19T13:24:54.000Z</time>
      </trkpt>
      <trkpt lat="47.99311" lon="6.92546">
        <ele>1051.6</ele>
        <time>2013-01-19T13:24:58.000Z</time>
      </trkpt>
      <trkpt lat="47.99312" lon="6.92545">
        <ele>1051.1</ele>
        <time>2013-01-19T13:24:59.000Z</time>
      </trkpt>
      <trkpt lat="47.99314" lon="6.92548">
        <ele>1052.2</ele>
        <time>2013-01-19T13:25:08.000Z</time>
      </trkpt>
      <trkpt lat="47.99316" lon="6.92549">
        <ele>1052.4</ele>
        <time>2013-01-19T13:25:09.000Z</time>
      </trkpt>
      <trkpt lat="47.9932" lon="6.92552">
        <ele>1053</ele>
        <time>2013-01-19T13:25:12.000Z</time>
      </trkpt>
      <trkpt lat="47.9932" lon="6.92553">
        <ele>1053.2</ele>
        <time>2013-01-19T13:25:13.000Z</time>
      </trkpt>
      <trkpt lat="47.99323" lon="6.92548">
        <ele>1052.3</ele>
        <time>2013-01-19T13:25:18.000Z</time>
      </trkpt>
      <trkpt lat="47.99323" lon="6.92547">
        <ele>1052.4</ele>
        <time>2013-01-19T13:25:19.000Z</time>
      </trkpt>
      <trkpt lat="47.99324" lon="6.9255">
        <ele>1052.2</ele>
        <time>2013-01-19T13:25:20.000Z</time>
      </trkpt>
      <trkpt lat="47.99329" lon="6.9255">
        <ele>1052.2</ele>
        <time>2013-01-19T13:25:21.000Z</time>
      </trkpt>
      <trkpt lat="47.99331" lon="6.92553">
        <ele>1051.4</ele>
        <time>2013-01-19T13:25:22.000Z</time>
      </trkpt>
      <trkpt lat="47.99333" lon="6.92556">
        <ele>1051.1</ele>
        <time>2013-01-19T13:25:23.000Z</time>
      </trkpt>
      <trkpt lat="47.99335" lon="6.92561">
        <ele>1050.8</ele>
        <time>2013-01-19T13:25:26.000Z</time>
      </trkpt>
      <trkpt lat="47.99336" lon="6.92562">
        <ele>1050.9</ele>
        <time>2013-01-19T13:25:27.000Z</time>
      </trkpt>
      <trkpt lat="47.99339" lon="6.92565">
        <ele>1050.9</ele>
        <time>2013-01-19T13:25:31.000Z</time>
      </trkpt>
      <trkpt lat="47.99342" lon="6.92565">
        <ele>1051.5</ele>
        <time>2013-01-19T13:25:32.000Z</time>
      </trkpt>
      <trkpt lat="47.99346" lon="6.92566">
        <ele>1051.4</ele>
        <time>2013-01-19T13:25:35.000Z</time>
      </trkpt>
      <trkpt lat="47.99346" lon="6.92568">
        <ele>1051.8</ele>
        <time>2013-01-19T13:25:36.000Z</time>
      </trkpt>
      <trkpt lat="47.99348" lon="6.92572">
        <ele>1050.7</ele>
        <time>2013-01-19T13:25:40.000Z</time>
      </trkpt>
      <trkpt lat="47.99349" lon="6.92574">
        <ele>1050.7</ele>
        <time>2013-01-19T13:25:41.000Z</time>
      </trkpt>
      <trkpt lat="47.99352" lon="6.92576">
        <ele>1050.6</ele>
        <time>2013-01-19T13:25:44.000Z</time>
      </trkpt>
      <trkpt lat="47.99354" lon="6.92578">
        <ele>1050.7</ele>
        <time>2013-01-19T13:25:45.000Z</time>
      </trkpt>
      <trkpt lat="47.99355" lon="6.92583">
        <ele>1050</ele>
        <time>2013-01-19T13:25:49.000Z</time>
      </trkpt>
      <trkpt lat="47.99355" lon="6.92585">
        <ele>1049.9</ele>
        <time>2013-01-19T13:25:50.000Z</time>
      </trkpt>
      <trkpt lat="47.99359" lon="6.92586">
        <ele>1050.8</ele>
        <time>2013-01-19T13:25:53.000Z</time>
      </trkpt>
      <trkpt lat="47.99362" lon="6.9259">
        <ele>1050.7</ele>
        <time>2013-01-19T13:25:56.000Z</time>
      </trkpt>
      <trkpt lat="47.99363" lon="6.92595">
        <ele>1050.1</ele>
        <time>2013-01-19T13:26:01.000Z</time>
      </trkpt>
      <trkpt lat="47.99363" lon="6.92596">
        <ele>1050</ele>
        <time>2013-01-19T13:26:02.000Z</time>
      </trkpt>
      <trkpt lat="47.99367" lon="6.92599">
        <ele>1049.3</ele>
        <time>2013-01-19T13:26:08.000Z</time>
      </trkpt>
      <trkpt lat="47.99368" lon="6.92601">
        <ele>1049.1</ele>
        <time>2013-01-19T13:26:09.000Z</time>
      </trkpt>
      <trkpt lat="47.99369" lon="6.92608">
        <ele>1049.7</ele>
        <time>2013-01-19T13:26:15.000Z</time>
      </trkpt>
      <trkpt lat="47.99369" lon="6.92611">
        <ele>1049.5</ele>
        <time>2013-01-19T13:26:16.000Z</time>
      </trkpt>
      <trkpt lat="47.99371" lon="6.92611">
        <ele>1049.6</ele>
        <time>2013-01-19T13:26:17.000Z</time>
      </trkpt>
      <trkpt lat="47.99374" lon="6.92614">
        <ele>1049.3</ele>
        <time>2013-01-19T13:26:18.000Z</time>
      </trkpt>
      <trkpt lat="47.99377" lon="6.92616">
        <ele>1048.7</ele>
        <time>2013-01-19T13:26:22.000Z</time>
      </trkpt>
      <trkpt lat="47.99377" lon="6.92619">
        <ele>1048.9</ele>
        <time>2013-01-19T13:26:23.000Z</time>
      </trkpt>
      <trkpt lat="47.99378" lon="6.92624">
        <ele>1049</ele>
        <time>2013-01-19T13:26:28.000Z</time>
      </trkpt>
      <trkpt lat="47.99378" lon="6.92626">
        <ele>1049.2</ele>
        <time>2013-01-19T13:26:29.000Z</time>
      </trkpt>
      <trkpt lat="47.9938" lon="6.92627">
        <ele>1049.4</ele>
        <time>2013-01-19T13:26:31.000Z</time>
      </trkpt>
      <trkpt lat="47.99383" lon="6.92627">
        <ele>1049.8</ele>
        <time>2013-01-19T13:26:32.000Z</time>
      </trkpt>
      <trkpt lat="47.99386" lon="6.92631">
        <ele>1049.7</ele>
        <time>2013-01-19T13:26:35.000Z</time>
      </trkpt>
      <trkpt lat="47.99387" lon="6.92631">
        <ele>1049.4</ele>
        <time>2013-01-19T13:26:36.000Z</time>
      </trkpt>
      <trkpt lat="47.99387" lon="6.92636">
        <ele>1048.8</ele>
        <time>2013-01-19T13:26:43.000Z</time>
      </trkpt>
      <trkpt lat="47.9939" lon="6.92638">
        <ele>1049</ele>
        <time>2013-01-19T13:26:44.000Z</time>
      </trkpt>
      <trkpt lat="47.99394" lon="6.9264">
        <ele>1049.6</ele>
        <time>2013-01-19T13:26:47.000Z</time>
      </trkpt>
      <trkpt lat="47.99394" lon="6.92642">
        <ele>1049</ele>
        <time>2013-01-19T13:26:48.000Z</time>
      </trkpt>
      <trkpt lat="47.99394" lon="6.92648">
        <ele>1048.8</ele>
        <time>2013-01-19T13:26:51.000Z</time>
      </trkpt>
      <trkpt lat="47.99394" lon="6.92649">
        <ele>1048.8</ele>
        <time>2013-01-19T13:26:52.000Z</time>
      </trkpt>
      <trkpt lat="47.99396" lon="6.92655">
        <ele>1049.1</ele>
        <time>2013-01-19T13:26:58.000Z</time>
      </trkpt>
      <trkpt lat="47.99399" lon="6.92654">
        <ele>1049</ele>
        <time>2013-01-19T13:26:59.000Z</time>
      </trkpt>
      <trkpt lat="47.99399" lon="6.92659">
        <ele>1048.9</ele>
        <time>2013-01-19T13:27:02.000Z</time>
      </trkpt>
      <trkpt lat="47.99399" lon="6.92662">
        <ele>1048.9</ele>
        <time>2013-01-19T13:27:03.000Z</time>
      </trkpt>
      <trkpt lat="47.99401" lon="6.9266">
        <ele>1048.8</ele>
        <time>2013-01-19T13:27:06.000Z</time>
      </trkpt>
      <trkpt lat="47.99404" lon="6.92659">
        <ele>1048.5</ele>
        <time>2013-01-19T13:27:07.000Z</time>
      </trkpt>
      <trkpt lat="47.99406" lon="6.92661">
        <ele>1048.5</ele>
        <time>2013-01-19T13:27:09.000Z</time>
      </trkpt>
      <trkpt lat="47.99409" lon="6.9266">
        <ele>1048.4</ele>
        <time>2013-01-19T13:27:10.000Z</time>
      </trkpt>
      <trkpt lat="47.9941" lon="6.92661">
        <ele>1048.8</ele>
        <time>2013-01-19T13:27:11.000Z</time>
      </trkpt>
      <trkpt lat="47.99414" lon="6.92662">
        <ele>1049.2</ele>
        <time>2013-01-19T13:27:12.000Z</time>
      </trkpt>
      <trkpt lat="47.99415" lon="6.92668">
        <ele>1049.3</ele>
        <time>2013-01-19T13:27:14.000Z</time>
      </trkpt>
      <trkpt lat="47.99416" lon="6.9267">
        <ele>1049.1</ele>
        <time>2013-01-19T13:27:15.000Z</time>
      </trkpt>
      <trkpt lat="47.99419" lon="6.92673">
        <ele>1047.7</ele>
        <time>2013-01-19T13:27:21.000Z</time>
      </trkpt>
      <trkpt lat="47.9942" lon="6.92676">
        <ele>1046.8</ele>
        <time>2013-01-19T13:27:22.000Z</time>
      </trkpt>
      <trkpt lat="47.99422" lon="6.9268">
        <ele>1045.7</ele>
        <time>2013-01-19T13:27:28.000Z</time>
      </trkpt>
      <trkpt lat="47.99424" lon="6.9268">
        <ele>1045.8</ele>
        <time>2013-01-19T13:27:29.000Z</time>
      </trkpt>
      <trkpt lat="47.99424" lon="6.92685">
        <ele>1042.1</ele>
        <time>2013-01-19T13:27:35.000Z</time>
      </trkpt>
      <trkpt lat="47.99423" lon="6.92687">
        <ele>1041.3</ele>
        <time>2013-01-19T13:27:36.000Z</time>
      </trkpt>
      <trkpt lat="47.99424" lon="6.9269">
        <ele>1039.3</ele>
        <time>2013-01-19T13:27:40.000Z</time>
      </trkpt>
      <trkpt lat="47.99428" lon="6.92692">
        <ele>1039.4</ele>
        <time>2013-01-19T13:27:41.000Z</time>
      </trkpt>
      <trkpt lat="47.99432" lon="6.92695">
        <ele>1040</ele>
        <time>2013-01-19T13:27:42.000Z</time>
      </trkpt>
      <trkpt lat="47.99434" lon="6.927">
        <ele>1038.6</ele>
        <time>2013-01-19T13:27:56.000Z</time>
      </trkpt>
      <trkpt lat="47.99427" lon="6.92712">
        <ele>1037.5</ele>
        <time>2013-01-19T13:28:06.000Z</time>
      </trkpt>
      <trkpt lat="47.99425" lon="6.92715">
        <ele>1037.2</ele>
        <time>2013-01-19T13:28:07.000Z</time>
      </trkpt>
      <trkpt lat="47.99437" lon="6.92718">
        <ele>1037.3</ele>
        <time>2013-01-19T13:28:08.000Z</time>
      </trkpt>
      <trkpt lat="47.99441" lon="6.92721">
        <ele>1035.2</ele>
        <time>2013-01-19T13:28:10.000Z</time>
      </trkpt>
      <trkpt lat="47.99443" lon="6.92722">
        <ele>1035.1</ele>
        <time>2013-01-19T13:28:11.000Z</time>
      </trkpt>
      <trkpt lat="47.99444" lon="6.92727">
        <ele>1033.8</ele>
        <time>2013-01-19T13:28:15.000Z</time>
      </trkpt>
      <trkpt lat="47.99447" lon="6.9273">
        <ele>1033.7</ele>
        <time>2013-01-19T13:28:16.000Z</time>
      </trkpt>
      <trkpt lat="47.9945" lon="6.92731">
        <ele>1034.2</ele>
        <time>2013-01-19T13:28:17.000Z</time>
      </trkpt>
      <trkpt lat="47.99454" lon="6.92731">
        <ele>1033.8</ele>
        <time>2013-01-19T13:28:18.000Z</time>
      </trkpt>
      <trkpt lat="47.99458" lon="6.92735">
        <ele>1034.7</ele>
        <time>2013-01-19T13:28:20.000Z</time>
      </trkpt>
      <trkpt lat="47.9946" lon="6.92738">
        <ele>1034.6</ele>
        <time>2013-01-19T13:28:21.000Z</time>
      </trkpt>
      <trkpt lat="47.99463" lon="6.92739">
        <ele>1034.5</ele>
        <time>2013-01-19T13:28:25.000Z</time>
      </trkpt>
      <trkpt lat="47.99465" lon="6.92741">
        <ele>1034.4</ele>
        <time>2013-01-19T13:28:26.000Z</time>
      </trkpt>
      <trkpt lat="47.99469" lon="6.9274">
        <ele>1033.4</ele>
        <time>2013-01-19T13:28:30.000Z</time>
      </trkpt>
      <trkpt lat="47.9947" lon="6.9274">
        <ele>1033.6</ele>
        <time>2013-01-19T13:28:31.000Z</time>
      </trkpt>
      <trkpt lat="47.99474" lon="6.92741">
        <ele>1031.8</ele>
        <time>2013-01-19T13:28:35.000Z</time>
      </trkpt>
      <trkpt lat="47.99476" lon="6.92741">
        <ele>1031.2</ele>
        <time>2013-01-19T13:28:36.000Z</time>
      </trkpt>
      <trkpt lat="47.99478" lon="6.92743">
        <ele>1031.8</ele>
        <time>2013-01-19T13:28:39.000Z</time>
      </trkpt>
      <trkpt lat="47.9948" lon="6.92743">
        <ele>1031.4</ele>
        <time>2013-01-19T13:28:40.000Z</time>
      </trkpt>
      <trkpt lat="47.99484" lon="6.92743">
        <ele>1028.9</ele>
        <time>2013-01-19T13:28:47.000Z</time>
      </trkpt>
      <trkpt lat="47.99486" lon="6.92745">
        <ele>1028.7</ele>
        <time>2013-01-19T13:28:48.000Z</time>
      </trkpt>
      <trkpt lat="47.9949" lon="6.92748">
        <ele>1027.8</ele>
        <time>2013-01-19T13:28:51.000Z</time>
      </trkpt>
      <trkpt lat="47.99491" lon="6.92748">
        <ele>1027.7</ele>
        <time>2013-01-19T13:28:52.000Z</time>
      </trkpt>
      <trkpt lat="47.99493" lon="6.92751">
        <ele>1027.7</ele>
        <time>2013-01-19T13:28:58.000Z</time>
      </trkpt>
      <trkpt lat="47.99493" lon="6.92753">
        <ele>1027.4</ele>
        <time>2013-01-19T13:28:59.000Z</time>
      </trkpt>
      <trkpt lat="47.99491" lon="6.92759">
        <ele>1027.7</ele>
        <time>2013-01-19T13:29:06.000Z</time>
      </trkpt>
      <trkpt lat="47.99491" lon="6.9276">
        <ele>1027.8</ele>
        <time>2013-01-19T13:29:07.000Z</time>
      </trkpt>
      <trkpt lat="47.99491" lon="6.92766">
        <ele>1027</ele>
        <time>2013-01-19T13:29:10.000Z</time>
      </trkpt>
      <trkpt lat="47.99493" lon="6.92765">
        <ele>1026.8</ele>
        <time>2013-01-19T13:29:11.000Z</time>
      </trkpt>
      <trkpt lat="47.99493" lon="6.9277">
        <ele>1027.6</ele>
        <time>2013-01-19T13:29:15.000Z</time>
      </trkpt>
      <trkpt lat="47.99493" lon="6.92773">
        <ele>1027.2</ele>
        <time>2013-01-19T13:29:16.000Z</time>
      </trkpt>
      <trkpt lat="47.99493" lon="6.92778">
        <ele>1025.6</ele>
        <time>2013-01-19T13:29:23.000Z</time>
      </trkpt>
      <trkpt lat="47.99494" lon="6.9278">
        <ele>1024.9</ele>
        <time>2013-01-19T13:29:24.000Z</time>
      </trkpt>
      <trkpt lat="47.99498" lon="6.9278">
        <ele>1026.3</ele>
        <time>2013-01-19T13:29:27.000Z</time>
      </trkpt>
      <trkpt lat="47.99499" lon="6.92781">
        <ele>1025.9</ele>
        <time>2013-01-19T13:29:28.000Z</time>
      </trkpt>
      <trkpt lat="47.99502" lon="6.92785">
        <ele>1025.9</ele>
        <time>2013-01-19T13:29:31.000Z</time>
      </trkpt>
      <trkpt lat="47.99501" lon="6.92788">
        <ele>1024.4</ele>
        <time>2013-01-19T13:29:32.000Z</time>
      </trkpt>
      <trkpt lat="47.99501" lon="6.92792">
        <ele>1022.7</ele>
        <time>2013-01-19T13:29:44.000Z</time>
      </trkpt>
      <trkpt lat="47.99505" lon="6.92795">
        <ele>1023.6</ele>
        <time>2013-01-19T13:29:45.000Z</time>
      </trkpt>
      <trkpt lat="47.99507" lon="6.92798">
        <ele>1023.3</ele>
        <time>2013-01-19T13:29:46.000Z</time>
      </trkpt>
      <trkpt lat="47.99508" lon="6.928">
        <ele>1023</ele>
        <time>2013-01-19T13:29:47.000Z</time>
      </trkpt>
      <trkpt lat="47.99511" lon="6.92804">
        <ele>1024.9</ele>
        <time>2013-01-19T13:29:50.000Z</time>
      </trkpt>
      <trkpt lat="47.99511" lon="6.92806">
        <ele>1024</ele>
        <time>2013-01-19T13:29:51.000Z</time>
      </trkpt>
      <trkpt lat="47.99513" lon="6.92809">
        <ele>1023.1</ele>
        <time>2013-01-19T13:29:57.000Z</time>
      </trkpt>
      <trkpt lat="47.99516" lon="6.92809">
        <ele>1023.8</ele>
        <time>2013-01-19T13:29:58.000Z</time>
      </trkpt>
      <trkpt lat="47.9952" lon="6.92813">
        <ele>1022.7</ele>
        <time>2013-01-19T13:30:02.000Z</time>
      </trkpt>
      <trkpt lat="47.9952" lon="6.92815">
        <ele>1022.8</ele>
        <time>2013-01-19T13:30:03.000Z</time>
      </trkpt>
      <trkpt lat="47.99522" lon="6.92819">
        <ele>1020.9</ele>
        <time>2013-01-19T13:30:11.000Z</time>
      </trkpt>
      <trkpt lat="47.99524" lon="6.92819">
        <ele>1021.6</ele>
        <time>2013-01-19T13:30:12.000Z</time>
      </trkpt>
      <trkpt lat="47.99525" lon="6.92824">
        <ele>1022.9</ele>
        <time>2013-01-19T13:30:18.000Z</time>
      </trkpt>
      <trkpt lat="47.99528" lon="6.92823">
        <ele>1023.3</ele>
        <time>2013-01-19T13:30:19.000Z</time>
      </trkpt>
      <trkpt lat="47.9953" lon="6.92828">
        <ele>1019.7</ele>
        <time>2013-01-19T13:30:23.000Z</time>
      </trkpt>
      <trkpt lat="47.9953" lon="6.92829">
        <ele>1019.3</ele>
        <time>2013-01-19T13:30:24.000Z</time>
      </trkpt>
      <trkpt lat="47.99532" lon="6.92834">
        <ele>1015.8</ele>
        <time>2013-01-19T13:30:32.000Z</time>
      </trkpt>
      <trkpt lat="47.99533" lon="6.92835">
        <ele>1015.7</ele>
        <time>2013-01-19T13:30:33.000Z</time>
      </trkpt>
      <trkpt lat="47.99531" lon="6.92838">
        <ele>1015</ele>
        <time>2013-01-19T13:30:42.000Z</time>
      </trkpt>
      <trkpt lat="47.99528" lon="6.92837">
        <ele>1015.6</ele>
        <time>2013-01-19T13:30:43.000Z</time>
      </trkpt>
      <trkpt lat="47.99531" lon="6.92838">
        <ele>1016.1</ele>
        <time>2013-01-19T13:30:46.000Z</time>
      </trkpt>
      <trkpt lat="47.99533" lon="6.92839">
        <ele>1016.7</ele>
        <time>2013-01-19T13:30:47.000Z</time>
      </trkpt>
      <trkpt lat="47.99537" lon="6.92841">
        <ele>1018.8</ele>
        <time>2013-01-19T13:30:56.000Z</time>
      </trkpt>
      <trkpt lat="47.99538" lon="6.92843">
        <ele>1018.9</ele>
        <time>2013-01-19T13:30:57.000Z</time>
      </trkpt>
      <trkpt lat="47.99542" lon="6.92844">
        <ele>1018.5</ele>
        <time>2013-01-19T13:30:59.000Z</time>
      </trkpt>
      <trkpt lat="47.99545" lon="6.92847">
        <ele>1018.3</ele>
        <time>2013-01-19T13:31:00.000Z</time>
      </trkpt>
      <trkpt lat="47.99548" lon="6.9285">
        <ele>1015.1</ele>
        <time>2013-01-19T13:31:07.000Z</time>
      </trkpt>
      <trkpt lat="47.9955" lon="6.92849">
        <ele>1014.4</ele>
        <time>2013-01-19T13:31:08.000Z</time>
      </trkpt>
      <trkpt lat="47.99554" lon="6.9285">
        <ele>1013.8</ele>
        <time>2013-01-19T13:31:11.000Z</time>
      </trkpt>
      <trkpt lat="47.99555" lon="6.92852">
        <ele>1014.2</ele>
        <time>2013-01-19T13:31:12.000Z</time>
      </trkpt>
      <trkpt lat="47.99557" lon="6.92857">
        <ele>1012.8</ele>
        <time>2013-01-19T13:31:17.000Z</time>
      </trkpt>
      <trkpt lat="47.99559" lon="6.92856">
        <ele>1012.5</ele>
        <time>2013-01-19T13:31:18.000Z</time>
      </trkpt>
      <trkpt lat="47.99557" lon="6.92853">
        <ele>1010.6</ele>
        <time>2013-01-19T13:31:24.000Z</time>
      </trkpt>
      <trkpt lat="47.99555" lon="6.92852">
        <ele>1009.5</ele>
        <time>2013-01-19T13:31:25.000Z</time>
      </trkpt>
      <trkpt lat="47.99553" lon="6.92849">
        <ele>1007.7</ele>
        <time>2013-01-19T13:31:27.000Z</time>
      </trkpt>
      <trkpt lat="47.99553" lon="6.92846">
        <ele>1008.8</ele>
        <time>2013-01-19T13:31:28.000Z</time>
      </trkpt>
      <trkpt lat="47.99551" lon="6.92841">
        <ele>1009.9</ele>
        <time>2013-01-19T13:31:32.000Z</time>
      </trkpt>
      <trkpt lat="47.99551" lon="6.92839">
        <ele>1009.4</ele>
        <time>2013-01-19T13:31:33.000Z</time>
      </trkpt>
      <trkpt lat="47.99554" lon="6.92833">
        <ele>1006</ele>
        <time>2013-01-19T13:31:39.000Z</time>
      </trkpt>
      <trkpt lat="47.99555" lon="6.92832">
        <ele>1005.6</ele>
        <time>2013-01-19T13:31:40.000Z</time>
      </trkpt>
      <trkpt lat="47.99553" lon="6.92827">
        <ele>1005.5</ele>
        <time>2013-01-19T13:31:43.000Z</time>
      </trkpt>
      <trkpt lat="47.99552" lon="6.92826">
        <ele>1005.1</ele>
        <time>2013-01-19T13:31:44.000Z</time>
      </trkpt>
      <trkpt lat="47.99552" lon="6.9282">
        <ele>1005.1</ele>
        <time>2013-01-19T13:31:48.000Z</time>
      </trkpt>
      <trkpt lat="47.99552" lon="6.92817">
        <ele>1005.4</ele>
        <time>2013-01-19T13:31:49.000Z</time>
      </trkpt>
      <trkpt lat="47.99551" lon="6.92814">
        <ele>1005.6</ele>
        <time>2013-01-19T13:31:51.000Z</time>
      </trkpt>
      <trkpt lat="47.99548" lon="6.92811">
        <ele>1005</ele>
        <time>2013-01-19T13:31:52.000Z</time>
      </trkpt>
      <trkpt lat="47.9955" lon="6.92806">
        <ele>1005.2</ele>
        <time>2013-01-19T13:31:55.000Z</time>
      </trkpt>
      <trkpt lat="47.99549" lon="6.92804">
        <ele>1005.7</ele>
        <time>2013-01-19T13:31:56.000Z</time>
      </trkpt>
      <trkpt lat="47.99547" lon="6.92799">
        <ele>1005</ele>
        <time>2013-01-19T13:32:00.000Z</time>
      </trkpt>
      <trkpt lat="47.99545" lon="6.92799">
        <ele>1004.4</ele>
        <time>2013-01-19T13:32:01.000Z</time>
      </trkpt>
      <trkpt lat="47.99546" lon="6.92792">
        <ele>1006.4</ele>
        <time>2013-01-19T13:32:08.000Z</time>
      </trkpt>
      <trkpt lat="47.99545" lon="6.9279">
        <ele>1005.8</ele>
        <time>2013-01-19T13:32:09.000Z</time>
      </trkpt>
      <trkpt lat="47.99545" lon="6.92786">
        <ele>1005.7</ele>
        <time>2013-01-19T13:32:10.000Z</time>
      </trkpt>
      <trkpt lat="47.99545" lon="6.92783">
        <ele>1005.6</ele>
        <time>2013-01-19T13:32:11.000Z</time>
      </trkpt>
      <trkpt lat="47.99541" lon="6.92779">
        <ele>1004.4</ele>
        <time>2013-01-19T13:32:13.000Z</time>
      </trkpt>
      <trkpt lat="47.99543" lon="6.92777">
        <ele>1004</ele>
        <time>2013-01-19T13:32:14.000Z</time>
      </trkpt>
      <trkpt lat="47.99541" lon="6.92773">
        <ele>1003.6</ele>
        <time>2013-01-19T13:32:16.000Z</time>
      </trkpt>
      <trkpt lat="47.99539" lon="6.92772">
        <ele>1003.9</ele>
        <time>2013-01-19T13:32:17.000Z</time>
      </trkpt>
      <trkpt lat="47.99538" lon="6.92766">
        <ele>1003.4</ele>
        <time>2013-01-19T13:32:22.000Z</time>
      </trkpt>
      <trkpt lat="47.99539" lon="6.92764">
        <ele>1003.9</ele>
        <time>2013-01-19T13:32:23.000Z</time>
      </trkpt>
      <trkpt lat="47.99537" lon="6.92761">
        <ele>1003.1</ele>
        <time>2013-01-19T13:32:25.000Z</time>
      </trkpt>
      <trkpt lat="47.99535" lon="6.92759">
        <ele>1002.2</ele>
        <time>2013-01-19T13:32:26.000Z</time>
      </trkpt>
      <trkpt lat="47.99533" lon="6.92756">
        <ele>1000.9</ele>
        <time>2013-01-19T13:32:29.000Z</time>
      </trkpt>
      <trkpt lat="47.99533" lon="6.92752">
        <ele>1001.9</ele>
        <time>2013-01-19T13:32:30.000Z</time>
      </trkpt>
      <trkpt lat="47.99535" lon="6.92747">
        <ele>1002.6</ele>
        <time>2013-01-19T13:32:34.000Z</time>
      </trkpt>
      <trkpt lat="47.99536" lon="6.92747">
        <ele>1002.8</ele>
        <time>2013-01-19T13:32:35.000Z</time>
      </trkpt>
      <trkpt lat="47.99537" lon="6.92741">
        <ele>1000.6</ele>
        <time>2013-01-19T13:32:41.000Z</time>
      </trkpt>
      <trkpt lat="47.99538" lon="6.9274">
        <ele>1000.8</ele>
        <time>2013-01-19T13:32:42.000Z</time>
      </trkpt>
      <trkpt lat="47.99534" lon="6.92737">
        <ele>1001.4</ele>
        <time>2013-01-19T13:32:46.000Z</time>
      </trkpt>
      <trkpt lat="47.99532" lon="6.92736">
        <ele>1001.9</ele>
        <time>2013-01-19T13:32:47.000Z</time>
      </trkpt>
      <trkpt lat="47.99534" lon="6.92731">
        <ele>1001.1</ele>
        <time>2013-01-19T13:32:51.000Z</time>
      </trkpt>
      <trkpt lat="47.99533" lon="6.92729">
        <ele>1001.4</ele>
        <time>2013-01-19T13:32:52.000Z</time>
      </trkpt>
      <trkpt lat="47.99533" lon="6.92724">
        <ele>1000.8</ele>
        <time>2013-01-19T13:32:55.000Z</time>
      </trkpt>
      <trkpt lat="47.99535" lon="6.92722">
        <ele>1000.3</ele>
        <time>2013-01-19T13:32:56.000Z</time>
      </trkpt>
      <trkpt lat="47.99532" lon="6.92717">
        <ele>996.1</ele>
        <time>2013-01-19T13:33:03.000Z</time>
      </trkpt>
      <trkpt lat="47.99533" lon="6.92714">
        <ele>995.8</ele>
        <time>2013-01-19T13:33:04.000Z</time>
      </trkpt>
      <trkpt lat="47.99532" lon="6.92708">
        <ele>994.3</ele>
        <time>2013-01-19T13:33:09.000Z</time>
      </trkpt>
      <trkpt lat="47.99532" lon="6.92707">
        <ele>993.9</ele>
        <time>2013-01-19T13:33:10.000Z</time>
      </trkpt>
      <trkpt lat="47.99533" lon="6.92702">
        <ele>992.8</ele>
        <time>2013-01-19T13:33:13.000Z</time>
      </trkpt>
      <trkpt lat="47.99533" lon="6.927">
        <ele>992.4</ele>
        <time>2013-01-19T13:33:14.000Z</time>
      </trkpt>
      <trkpt lat="47.99531" lon="6.92698">
        <ele>991.5</ele>
        <time>2013-01-19T13:33:16.000Z</time>
      </trkpt>
      <trkpt lat="47.99529" lon="6.92696">
        <ele>990.9</ele>
        <time>2013-01-19T13:33:17.000Z</time>
      </trkpt>
      <trkpt lat="47.99527" lon="6.9269">
        <ele>989.1</ele>
        <time>2013-01-19T13:33:25.000Z</time>
      </trkpt>
      <trkpt lat="47.99526" lon="6.92689">
        <ele>989.1</ele>
        <time>2013-01-19T13:33:26.000Z</time>
      </trkpt>
      <trkpt lat="47.99523" lon="6.92685">
        <ele>990.1</ele>
        <time>2013-01-19T13:33:29.000Z</time>
      </trkpt>
      <trkpt lat="47.99522" lon="6.92682">
        <ele>989.6</ele>
        <time>2013-01-19T13:33:30.000Z</time>
      </trkpt>
      <trkpt lat="47.9952" lon="6.92677">
        <ele>988.1</ele>
        <time>2013-01-19T13:33:34.000Z</time>
      </trkpt>
      <trkpt lat="47.99519" lon="6.92677">
        <ele>988</ele>
        <time>2013-01-19T13:33:35.000Z</time>
      </trkpt>
      <trkpt lat="47.99515" lon="6.92675">
        <ele>987.8</ele>
        <time>2013-01-19T13:33:38.000Z</time>
      </trkpt>
      <trkpt lat="47.99512" lon="6.92674">
        <ele>987.9</ele>
        <time>2013-01-19T13:33:39.000Z</time>
      </trkpt>
      <trkpt lat="47.99513" lon="6.92671">
        <ele>987.9</ele>
        <time>2013-01-19T13:33:41.000Z</time>
      </trkpt>
      <trkpt lat="47.99512" lon="6.92666">
        <ele>988.8</ele>
        <time>2013-01-19T13:33:42.000Z</time>
      </trkpt>
      <trkpt lat="47.99512" lon="6.9266">
        <ele>989.1</ele>
        <time>2013-01-19T13:33:46.000Z</time>
      </trkpt>
      <trkpt lat="47.99509" lon="6.92659">
        <ele>989.1</ele>
        <time>2013-01-19T13:33:47.000Z</time>
      </trkpt>
      <trkpt lat="47.99512" lon="6.92655">
        <ele>985.9</ele>
        <time>2013-01-19T13:34:01.000Z</time>
      </trkpt>
      <trkpt lat="47.99512" lon="6.92652">
        <ele>986.2</ele>
        <time>2013-01-19T13:34:02.000Z</time>
      </trkpt>
      <trkpt lat="47.99511" lon="6.92646">
        <ele>988</ele>
        <time>2013-01-19T13:34:05.000Z</time>
      </trkpt>
      <trkpt lat="47.99512" lon="6.92644">
        <ele>988.5</ele>
        <time>2013-01-19T13:34:06.000Z</time>
      </trkpt>
      <trkpt lat="47.99509" lon="6.92641">
        <ele>987.8</ele>
        <time>2013-01-19T13:34:11.000Z</time>
      </trkpt>
      <trkpt lat="47.9951" lon="6.92637">
        <ele>988.4</ele>
        <time>2013-01-19T13:34:12.000Z</time>
      </trkpt>
      <trkpt lat="47.99507" lon="6.92633">
        <ele>988</ele>
        <time>2013-01-19T13:34:14.000Z</time>
      </trkpt>
      <trkpt lat="47.99506" lon="6.92632">
        <ele>987.1</ele>
        <time>2013-01-19T13:34:15.000Z</time>
      </trkpt>
      <trkpt lat="47.99505" lon="6.92626">
        <ele>987.7</ele>
        <time>2013-01-19T13:34:19.000Z</time>
      </trkpt>
      <trkpt lat="47.99503" lon="6.92625">
        <ele>987.7</ele>
        <time>2013-01-19T13:34:20.000Z</time>
      </trkpt>
      <trkpt lat="47.99504" lon="6.92619">
        <ele>987.6</ele>
        <time>2013-01-19T13:34:25.000Z</time>
      </trkpt>
      <trkpt lat="47.99504" lon="6.92619">
        <ele>987.2</ele>
        <time>2013-01-19T13:34:26.000Z</time>
      </trkpt>
      <trkpt lat="47.99503" lon="6.92614">
        <ele>986.1</ele>
        <time>2013-01-19T13:34:29.000Z</time>
      </trkpt>
      <trkpt lat="47.99502" lon="6.92612">
        <ele>985.7</ele>
        <time>2013-01-19T13:34:30.000Z</time>
      </trkpt>
      <trkpt lat="47.99501" lon="6.92607">
        <ele>985.9</ele>
        <time>2013-01-19T13:34:36.000Z</time>
      </trkpt>
      <trkpt lat="47.995" lon="6.92602">
        <ele>985.6</ele>
        <time>2013-01-19T13:34:37.000Z</time>
      </trkpt>
      <trkpt lat="47.99496" lon="6.92598">
        <ele>985.8</ele>
        <time>2013-01-19T13:34:41.000Z</time>
      </trkpt>
      <trkpt lat="47.99495" lon="6.92595">
        <ele>985.9</ele>
        <time>2013-01-19T13:34:42.000Z</time>
      </trkpt>
      <trkpt lat="47.99496" lon="6.92589">
        <ele>985.4</ele>
        <time>2013-01-19T13:34:50.000Z</time>
      </trkpt>
      <trkpt lat="47.99496" lon="6.92588">
        <ele>985.8</ele>
        <time>2013-01-19T13:34:51.000Z</time>
      </trkpt>
      <trkpt lat="47.99494" lon="6.92582">
        <ele>984.9</ele>
        <time>2013-01-19T13:34:59.000Z</time>
      </trkpt>
      <trkpt lat="47.99493" lon="6.92582">
        <ele>984.7</ele>
        <time>2013-01-19T13:35:00.000Z</time>
      </trkpt>
      <trkpt lat="47.99493" lon="6.9258">
        <ele>985.3</ele>
        <time>2013-01-19T13:35:24.000Z</time>
      </trkpt>
      <trkpt lat="47.99493" lon="6.92575">
        <ele>985.8</ele>
        <time>2013-01-19T13:35:25.000Z</time>
      </trkpt>
      <trkpt lat="47.99493" lon="6.92569">
        <ele>984.9</ele>
        <time>2013-01-19T13:35:27.000Z</time>
      </trkpt>
      <trkpt lat="47.99493" lon="6.92563">
        <ele>985.6</ele>
        <time>2013-01-19T13:35:28.000Z</time>
      </trkpt>
      <trkpt lat="47.99493" lon="6.9256">
        <ele>985.2</ele>
        <time>2013-01-19T13:35:29.000Z</time>
      </trkpt>
      <trkpt lat="47.99492" lon="6.92554">
        <ele>985.1</ele>
        <time>2013-01-19T13:35:30.000Z</time>
      </trkpt>
      <trkpt lat="47.99493" lon="6.92548">
        <ele>984.9</ele>
        <time>2013-01-19T13:35:33.000Z</time>
      </trkpt>
      <trkpt lat="47.99491" lon="6.92546">
        <ele>984.8</ele>
        <time>2013-01-19T13:35:34.000Z</time>
      </trkpt>
      <trkpt lat="47.99488" lon="6.92542">
        <ele>984</ele>
        <time>2013-01-19T13:35:36.000Z</time>
      </trkpt>
      <trkpt lat="47.99487" lon="6.92537">
        <ele>985.2</ele>
        <time>2013-01-19T13:35:37.000Z</time>
      </trkpt>
      <trkpt lat="47.99487" lon="6.92532">
        <ele>985</ele>
        <time>2013-01-19T13:35:42.000Z</time>
      </trkpt>
      <trkpt lat="47.99486" lon="6.92529">
        <ele>984.6</ele>
        <time>2013-01-19T13:35:43.000Z</time>
      </trkpt>
      <trkpt lat="47.99487" lon="6.92527">
        <ele>985.1</ele>
        <time>2013-01-19T13:35:44.000Z</time>
      </trkpt>
      <trkpt lat="47.99486" lon="6.92522">
        <ele>984.8</ele>
        <time>2013-01-19T13:35:45.000Z</time>
      </trkpt>
      <trkpt lat="47.99486" lon="6.92516">
        <ele>985.2</ele>
        <time>2013-01-19T13:35:49.000Z</time>
      </trkpt>
      <trkpt lat="47.99486" lon="6.92515">
        <ele>985</ele>
        <time>2013-01-19T13:35:50.000Z</time>
      </trkpt>
      <trkpt lat="47.99487" lon="6.92509">
        <ele>983.3</ele>
        <time>2013-01-19T13:35:54.000Z</time>
      </trkpt>
      <trkpt lat="47.99487" lon="6.92507">
        <ele>983.7</ele>
        <time>2013-01-19T13:35:55.000Z</time>
      </trkpt>
      <trkpt lat="47.99485" lon="6.92503">
        <ele>984.9</ele>
        <time>2013-01-19T13:35:58.000Z</time>
      </trkpt>
      <trkpt lat="47.99484" lon="6.92501">
        <ele>984.4</ele>
        <time>2013-01-19T13:35:59.000Z</time>
      </trkpt>
      <trkpt lat="47.99488" lon="6.92499">
        <ele>984.9</ele>
        <time>2013-01-19T13:36:00.000Z</time>
      </trkpt>
      <trkpt lat="47.9949" lon="6.925">
        <ele>985.2</ele>
        <time>2013-01-19T13:36:01.000Z</time>
      </trkpt>
      <trkpt lat="47.99492" lon="6.92496">
        <ele>985.5</ele>
        <time>2013-01-19T13:36:04.000Z</time>
      </trkpt>
      <trkpt lat="47.99492" lon="6.92491">
        <ele>986.7</ele>
        <time>2013-01-19T13:36:05.000Z</time>
      </trkpt>
      <trkpt lat="47.99488" lon="6.92489">
        <ele>985.6</ele>
        <time>2013-01-19T13:36:13.000Z</time>
      </trkpt>
      <trkpt lat="47.99486" lon="6.92487">
        <ele>985.4</ele>
        <time>2013-01-19T13:36:14.000Z</time>
      </trkpt>
      <trkpt lat="47.99483" lon="6.92483">
        <ele>986.2</ele>
        <time>2013-01-19T13:36:23.000Z</time>
      </trkpt>
      <trkpt lat="47.99482" lon="6.92483">
        <ele>986.8</ele>
        <time>2013-01-19T13:36:24.000Z</time>
      </trkpt>
      <trkpt lat="47.9948" lon="6.92485">
        <ele>986.5</ele>
        <time>2013-01-19T13:36:28.000Z</time>
      </trkpt>
      <trkpt lat="47.99478" lon="6.92485">
        <ele>986.1</ele>
        <time>2013-01-19T13:36:29.000Z</time>
      </trkpt>
      <trkpt lat="47.99474" lon="6.92482">
        <ele>985.7</ele>
        <time>2013-01-19T13:36:34.000Z</time>
      </trkpt>
      <trkpt lat="47.99473" lon="6.9248">
        <ele>985.4</ele>
        <time>2013-01-19T13:36:35.000Z</time>
      </trkpt>
      <trkpt lat="47.99473" lon="6.92478">
        <ele>985</ele>
        <time>2013-01-19T13:36:37.000Z</time>
      </trkpt>
      <trkpt lat="47.99475" lon="6.92471">
        <ele>984.8</ele>
        <time>2013-01-19T13:36:38.000Z</time>
      </trkpt>
      <trkpt lat="47.99474" lon="6.92467">
        <ele>985.4</ele>
        <time>2013-01-19T13:36:47.000Z</time>
      </trkpt>
      <trkpt lat="47.99473" lon="6.92465">
        <ele>985.4</ele>
        <time>2013-01-19T13:36:48.000Z</time>
      </trkpt>
      <trkpt lat="47.99473" lon="6.9247">
        <ele>984</ele>
        <time>2013-01-19T13:36:51.000Z</time>
      </trkpt>
      <trkpt lat="47.99474" lon="6.92471">
        <ele>983.7</ele>
        <time>2013-01-19T13:36:52.000Z</time>
      </trkpt>
      <trkpt lat="47.99477" lon="6.92474">
        <ele>983.3</ele>
        <time>2013-01-19T13:36:54.000Z</time>
      </trkpt>
      <trkpt lat="47.99477" lon="6.92477">
        <ele>982.9</ele>
        <time>2013-01-19T13:36:55.000Z</time>
      </trkpt>
      <trkpt lat="47.99479" lon="6.92479">
        <ele>982.6</ele>
        <time>2013-01-19T13:36:57.000Z</time>
      </trkpt>
      <trkpt lat="47.9948" lon="6.92484">
        <ele>981.7</ele>
        <time>2013-01-19T13:36:58.000Z</time>
      </trkpt>
      <trkpt lat="47.99477" lon="6.9248">
        <ele>981.1</ele>
        <time>2013-01-19T13:37:00.000Z</time>
      </trkpt>
      <trkpt lat="47.99478" lon="6.92479">
        <ele>980.9</ele>
        <time>2013-01-19T13:37:01.000Z</time>
      </trkpt>
      <trkpt lat="47.99475" lon="6.92475">
        <ele>982.2</ele>
        <time>2013-01-19T13:37:11.000Z</time>
      </trkpt>
      <trkpt lat="47.99473" lon="6.92474">
        <ele>981.8</ele>
        <time>2013-01-19T13:37:12.000Z</time>
      </trkpt>
      <trkpt lat="47.99474" lon="6.92474">
        <ele>980.3</ele>
        <time>2013-01-19T13:37:15.000Z</time>
      </trkpt>
      <trkpt lat="47.9948" lon="6.92477">
        <ele>979.7</ele>
        <time>2013-01-19T13:37:16.000Z</time>
      </trkpt>
      <trkpt lat="47.99481" lon="6.92472">
        <ele>981.8</ele>
        <time>2013-01-19T13:37:21.000Z</time>
      </trkpt>
      <trkpt lat="47.99477" lon="6.92464">
        <ele>982.7</ele>
        <time>2013-01-19T13:37:22.000Z</time>
      </trkpt>
      <trkpt lat="47.99473" lon="6.92465">
        <ele>983</ele>
        <time>2013-01-19T13:45:08.000Z</time>
      </trkpt>
      <trkpt lat="47.99469" lon="6.92464">
        <ele>983.2</ele>
        <time>2013-01-19T13:45:09.000Z</time>
      </trkpt>
      <trkpt lat="47.99464" lon="6.92458">
        <ele>984</ele>
        <time>2013-01-19T13:45:10.000Z</time>
      </trkpt>
      <trkpt lat="47.99462" lon="6.92457">
        <ele>984.3</ele>
        <time>2013-01-19T13:45:11.000Z</time>
      </trkpt>
      <trkpt lat="47.99456" lon="6.92458">
        <ele>983.7</ele>
        <time>2013-01-19T13:45:12.000Z</time>
      </trkpt>
      <trkpt lat="47.99451" lon="6.92455">
        <ele>983.4</ele>
        <time>2013-01-19T13:45:13.000Z</time>
      </trkpt>
      <trkpt lat="47.99448" lon="6.92452">
        <ele>983.3</ele>
        <time>2013-01-19T13:45:14.000Z</time>
      </trkpt>
      <trkpt lat="47.99442" lon="6.92451">
        <ele>983.2</ele>
        <time>2013-01-19T13:45:15.000Z</time>
      </trkpt>
      <trkpt lat="47.99436" lon="6.9245">
        <ele>982.6</ele>
        <time>2013-01-19T13:45:16.000Z</time>
      </trkpt>
      <trkpt lat="47.99432" lon="6.92449">
        <ele>982.2</ele>
        <time>2013-01-19T13:45:17.000Z</time>
      </trkpt>
      <trkpt lat="47.99429" lon="6.92448">
        <ele>982</ele>
        <time>2013-01-19T13:45:18.000Z</time>
      </trkpt>
      <trkpt lat="47.99427" lon="6.92448">
        <ele>982</ele>
        <time>2013-01-19T13:45:19.000Z</time>
      </trkpt>
      <trkpt lat="47.99424" lon="6.92445">
        <ele>982.9</ele>
        <time>2013-01-19T13:45:20.000Z</time>
      </trkpt>
      <trkpt lat="47.99421" lon="6.92443">
        <ele>983.1</ele>
        <time>2013-01-19T13:45:21.000Z</time>
      </trkpt>
      <trkpt lat="47.99419" lon="6.9244">
        <ele>984.8</ele>
        <time>2013-01-19T13:45:22.000Z</time>
      </trkpt>
      <trkpt lat="47.99417" lon="6.9244">
        <ele>986</ele>
        <time>2013-01-19T13:45:23.000Z</time>
      </trkpt>
      <trkpt lat="47.99414" lon="6.92438">
        <ele>985.4</ele>
        <time>2013-01-19T13:45:24.000Z</time>
      </trkpt>
      <trkpt lat="47.9941" lon="6.92437">
        <ele>985.8</ele>
        <time>2013-01-19T13:45:25.000Z</time>
      </trkpt>
      <trkpt lat="47.99406" lon="6.92436">
        <ele>986</ele>
        <time>2013-01-19T13:45:26.000Z</time>
      </trkpt>
      <trkpt lat="47.9941" lon="6.92431">
        <ele>990.5</ele>
        <time>2013-01-19T13:45:43.000Z</time>
      </trkpt>
      <trkpt lat="47.9941" lon="6.92431">
        <ele>990.6</ele>
        <time>2013-01-19T13:45:44.000Z</time>
      </trkpt>
      <trkpt lat="47.9941" lon="6.92431">
        <ele>990.6</ele>
        <time>2013-01-19T13:45:45.000Z</time>
      </trkpt>
      <trkpt lat="47.99414" lon="6.92427">
        <ele>992</ele>
        <time>2013-01-19T13:45:46.000Z</time>
      </trkpt>
      <trkpt lat="47.99417" lon="6.92422">
        <ele>992.3</ele>
        <time>2013-01-19T13:45:49.000Z</time>
      </trkpt>
      <trkpt lat="47.99418" lon="6.9242">
        <ele>993.3</ele>
        <time>2013-01-19T13:45:50.000Z</time>
      </trkpt>
      <trkpt lat="47.99417" lon="6.92419">
        <ele>992.6</ele>
        <time>2013-01-19T13:45:52.000Z</time>
      </trkpt>
      <trkpt lat="47.99408" lon="6.92415">
        <ele>988.4</ele>
        <time>2013-01-19T13:45:53.000Z</time>
      </trkpt>
      <trkpt lat="47.99407" lon="6.92409">
        <ele>987</ele>
        <time>2013-01-19T13:46:00.000Z</time>
      </trkpt>
      <trkpt lat="47.99408" lon="6.92408">
        <ele>987.8</ele>
        <time>2013-01-19T13:46:01.000Z</time>
      </trkpt>
      <trkpt lat="47.9941" lon="6.92404">
        <ele>986.7</ele>
        <time>2013-01-19T13:46:05.000Z</time>
      </trkpt>
      <trkpt lat="47.99414" lon="6.92402">
        <ele>988.8</ele>
        <time>2013-01-19T13:46:06.000Z</time>
      </trkpt>
      <trkpt lat="47.99414" lon="6.92402">
        <ele>988.8</ele>
        <time>2013-01-19T13:46:07.000Z</time>
      </trkpt>
      <trkpt lat="47.99418" lon="6.92401">
        <ele>988.5</ele>
        <time>2013-01-19T13:46:08.000Z</time>
      </trkpt>
      <trkpt lat="47.99417" lon="6.92396">
        <ele>987.6</ele>
        <time>2013-01-19T13:46:10.000Z</time>
      </trkpt>
      <trkpt lat="47.99416" lon="6.92394">
        <ele>987.3</ele>
        <time>2013-01-19T13:46:11.000Z</time>
      </trkpt>
      <trkpt lat="47.99417" lon="6.92388">
        <ele>986.1</ele>
        <time>2013-01-19T13:46:15.000Z</time>
      </trkpt>
      <trkpt lat="47.99417" lon="6.92386">
        <ele>985.8</ele>
        <time>2013-01-19T13:46:16.000Z</time>
      </trkpt>
      <trkpt lat="47.9942" lon="6.92384">
        <ele>986.3</ele>
        <time>2013-01-19T13:46:20.000Z</time>
      </trkpt>
      <trkpt lat="47.99422" lon="6.92382">
        <ele>987.2</ele>
        <time>2013-01-19T13:46:21.000Z</time>
      </trkpt>
      <trkpt lat="47.99425" lon="6.92381">
        <ele>986.9</ele>
        <time>2013-01-19T13:46:23.000Z</time>
      </trkpt>
      <trkpt lat="47.99429" lon="6.92381">
        <ele>987.3</ele>
        <time>2013-01-19T13:46:24.000Z</time>
      </trkpt>
      <trkpt lat="47.99433" lon="6.92379">
        <ele>983.2</ele>
        <time>2013-01-19T13:46:31.000Z</time>
      </trkpt>
      <trkpt lat="47.99433" lon="6.92378">
        <ele>983.5</ele>
        <time>2013-01-19T13:46:32.000Z</time>
      </trkpt>
      <trkpt lat="47.99434" lon="6.92376">
        <ele>982.5</ele>
        <time>2013-01-19T13:46:56.000Z</time>
      </trkpt>
      <trkpt lat="47.99438" lon="6.92372">
        <ele>984.1</ele>
        <time>2013-01-19T13:46:57.000Z</time>
      </trkpt>
      <trkpt lat="47.9944" lon="6.92367">
        <ele>982.7</ele>
        <time>2013-01-19T13:46:59.000Z</time>
      </trkpt>
      <trkpt lat="47.9944" lon="6.92366">
        <ele>982.8</ele>
        <time>2013-01-19T13:47:00.000Z</time>
      </trkpt>
      <trkpt lat="47.99443" lon="6.92361">
        <ele>984.2</ele>
        <time>2013-01-19T13:47:02.000Z</time>
      </trkpt>
      <trkpt lat="47.99444" lon="6.92358">
        <ele>984.7</ele>
        <time>2013-01-19T13:47:03.000Z</time>
      </trkpt>
      <trkpt lat="47.99444" lon="6.92352">
        <ele>983.7</ele>
        <time>2013-01-19T13:47:05.000Z</time>
      </trkpt>
      <trkpt lat="47.99444" lon="6.92351">
        <ele>983.9</ele>
        <time>2013-01-19T13:47:06.000Z</time>
      </trkpt>
      <trkpt lat="47.99447" lon="6.92346">
        <ele>983.9</ele>
        <time>2013-01-19T13:47:09.000Z</time>
      </trkpt>
      <trkpt lat="47.99448" lon="6.92345">
        <ele>983.6</ele>
        <time>2013-01-19T13:47:10.000Z</time>
      </trkpt>
      <trkpt lat="47.99449" lon="6.92339">
        <ele>983.9</ele>
        <time>2013-01-19T13:47:14.000Z</time>
      </trkpt>
      <trkpt lat="47.9945" lon="6.92338">
        <ele>984.1</ele>
        <time>2013-01-19T13:47:15.000Z</time>
      </trkpt>
      <trkpt lat="47.99451" lon="6.92332">
        <ele>982.2</ele>
        <time>2013-01-19T13:47:28.000Z</time>
      </trkpt>
      <trkpt lat="47.99451" lon="6.92327">
        <ele>981.7</ele>
        <time>2013-01-19T13:47:29.000Z</time>
      </trkpt>
      <trkpt lat="47.99451" lon="6.92324">
        <ele>981</ele>
        <time>2013-01-19T13:47:30.000Z</time>
      </trkpt>
      <trkpt lat="47.99451" lon="6.9232">
        <ele>981.4</ele>
        <time>2013-01-19T13:47:31.000Z</time>
      </trkpt>
      <trkpt lat="47.9945" lon="6.92315">
        <ele>981.7</ele>
        <time>2013-01-19T13:47:33.000Z</time>
      </trkpt>
      <trkpt lat="47.99449" lon="6.92313">
        <ele>981</ele>
        <time>2013-01-19T13:47:34.000Z</time>
      </trkpt>
      <trkpt lat="47.99451" lon="6.92308">
        <ele>980.6</ele>
        <time>2013-01-19T13:47:37.000Z</time>
      </trkpt>
      <trkpt lat="47.99452" lon="6.92306">
        <ele>981.1</ele>
        <time>2013-01-19T13:47:38.000Z</time>
      </trkpt>
      <trkpt lat="47.99451" lon="6.92301">
        <ele>981.3</ele>
        <time>2013-01-19T13:47:40.000Z</time>
      </trkpt>
      <trkpt lat="47.99454" lon="6.92299">
        <ele>982.2</ele>
        <time>2013-01-19T13:47:41.000Z</time>
      </trkpt>
      <trkpt lat="47.99456" lon="6.92296">
        <ele>981.8</ele>
        <time>2013-01-19T13:47:43.000Z</time>
      </trkpt>
      <trkpt lat="47.99457" lon="6.92294">
        <ele>982.2</ele>
        <time>2013-01-19T13:47:44.000Z</time>
      </trkpt>
      <trkpt lat="47.99459" lon="6.92291">
        <ele>982.5</ele>
        <time>2013-01-19T13:47:46.000Z</time>
      </trkpt>
      <trkpt lat="47.99462" lon="6.9229">
        <ele>982.6</ele>
        <time>2013-01-19T13:47:47.000Z</time>
      </trkpt>
      <trkpt lat="47.99461" lon="6.92285">
        <ele>982.6</ele>
        <time>2013-01-19T13:47:49.000Z</time>
      </trkpt>
      <trkpt lat="47.9946" lon="6.92283">
        <ele>982.3</ele>
        <time>2013-01-19T13:47:50.000Z</time>
      </trkpt>
      <trkpt lat="47.99461" lon="6.92277">
        <ele>981.9</ele>
        <time>2013-01-19T13:47:54.000Z</time>
      </trkpt>
      <trkpt lat="47.99462" lon="6.92276">
        <ele>981.9</ele>
        <time>2013-01-19T13:47:55.000Z</time>
      </trkpt>
      <trkpt lat="47.9946" lon="6.92273">
        <ele>981.3</ele>
        <time>2013-01-19T13:47:57.000Z</time>
      </trkpt>
      <trkpt lat="47.99458" lon="6.92272">
        <ele>981.4</ele>
        <time>2013-01-19T13:47:58.000Z</time>
      </trkpt>
      <trkpt lat="47.99461" lon="6.92271">
        <ele>979.9</ele>
        <time>2013-01-19T13:48:01.000Z</time>
      </trkpt>
      <trkpt lat="47.99461" lon="6.92266">
        <ele>980.6</ele>
        <time>2013-01-19T13:48:02.000Z</time>
      </trkpt>
      <trkpt lat="47.99464" lon="6.92261">
        <ele>980.6</ele>
        <time>2013-01-19T13:48:05.000Z</time>
      </trkpt>
      <trkpt lat="47.99464" lon="6.9226">
        <ele>980.4</ele>
        <time>2013-01-19T13:48:06.000Z</time>
      </trkpt>
      <trkpt lat="47.99467" lon="6.92257">
        <ele>979.3</ele>
        <time>2013-01-19T13:48:09.000Z</time>
      </trkpt>
      <trkpt lat="47.99467" lon="6.92254">
        <ele>979.2</ele>
        <time>2013-01-19T13:48:10.000Z</time>
      </trkpt>
      <trkpt lat="47.99464" lon="6.92249">
        <ele>978.9</ele>
        <time>2013-01-19T13:48:22.000Z</time>
      </trkpt>
      <trkpt lat="47.99462" lon="6.92248">
        <ele>977.5</ele>
        <time>2013-01-19T13:48:23.000Z</time>
      </trkpt>
      <trkpt lat="47.99462" lon="6.92247">
        <ele>977.9</ele>
        <time>2013-01-19T13:48:39.000Z</time>
      </trkpt>
      <trkpt lat="47.99459" lon="6.92241">
        <ele>977.3</ele>
        <time>2013-01-19T13:48:40.000Z</time>
      </trkpt>
      <trkpt lat="47.99455" lon="6.92236">
        <ele>976.4</ele>
        <time>2013-01-19T13:48:41.000Z</time>
      </trkpt>
      <trkpt lat="47.99453" lon="6.92233">
        <ele>976.2</ele>
        <time>2013-01-19T13:48:42.000Z</time>
      </trkpt>
      <trkpt lat="47.99452" lon="6.92229">
        <ele>975.5</ele>
        <time>2013-01-19T13:48:43.000Z</time>
      </trkpt>
      <trkpt lat="47.99449" lon="6.92225">
        <ele>974.4</ele>
        <time>2013-01-19T13:48:44.000Z</time>
      </trkpt>
      <trkpt lat="47.99448" lon="6.92221">
        <ele>974.6</ele>
        <time>2013-01-19T13:48:45.000Z</time>
      </trkpt>
      <trkpt lat="47.99448" lon="6.92217">
        <ele>974</ele>
        <time>2013-01-19T13:48:46.000Z</time>
      </trkpt>
      <trkpt lat="47.99444" lon="6.92213">
        <ele>973.8</ele>
        <time>2013-01-19T13:48:47.000Z</time>
      </trkpt>
      <trkpt lat="47.99444" lon="6.92211">
        <ele>974.5</ele>
        <time>2013-01-19T13:48:48.000Z</time>
      </trkpt>
      <trkpt lat="47.99443" lon="6.92206">
        <ele>974.9</ele>
        <time>2013-01-19T13:48:49.000Z</time>
      </trkpt>
      <trkpt lat="47.99444" lon="6.92201">
        <ele>974.2</ele>
        <time>2013-01-19T13:48:51.000Z</time>
      </trkpt>
      <trkpt lat="47.99444" lon="6.92197">
        <ele>974.3</ele>
        <time>2013-01-19T13:48:52.000Z</time>
      </trkpt>
      <trkpt lat="47.99442" lon="6.92193">
        <ele>972.7</ele>
        <time>2013-01-19T13:48:54.000Z</time>
      </trkpt>
      <trkpt lat="47.9944" lon="6.92191">
        <ele>973.4</ele>
        <time>2013-01-19T13:48:55.000Z</time>
      </trkpt>
      <trkpt lat="47.99437" lon="6.92186">
        <ele>973.5</ele>
        <time>2013-01-19T13:48:57.000Z</time>
      </trkpt>
      <trkpt lat="47.99436" lon="6.92184">
        <ele>973.4</ele>
        <time>2013-01-19T13:48:58.000Z</time>
      </trkpt>
      <trkpt lat="47.99434" lon="6.92178">
        <ele>973.1</ele>
        <time>2013-01-19T13:49:00.000Z</time>
      </trkpt>
      <trkpt lat="47.99434" lon="6.92177">
        <ele>972.9</ele>
        <time>2013-01-19T13:49:01.000Z</time>
      </trkpt>
      <trkpt lat="47.99433" lon="6.92173">
        <ele>972.6</ele>
        <time>2013-01-19T13:49:05.000Z</time>
      </trkpt>
      <trkpt lat="47.99433" lon="6.92169">
        <ele>972.4</ele>
        <time>2013-01-19T13:49:06.000Z</time>
      </trkpt>
      <trkpt lat="47.99433" lon="6.92166">
        <ele>972.1</ele>
        <time>2013-01-19T13:49:07.000Z</time>
      </trkpt>
      <trkpt lat="47.9943" lon="6.92164">
        <ele>972.7</ele>
        <time>2013-01-19T13:49:08.000Z</time>
      </trkpt>
      <trkpt lat="47.99427" lon="6.9216">
        <ele>972.7</ele>
        <time>2013-01-19T13:49:11.000Z</time>
      </trkpt>
      <trkpt lat="47.99426" lon="6.92159">
        <ele>972.7</ele>
        <time>2013-01-19T13:49:12.000Z</time>
      </trkpt>
      <trkpt lat="47.99427" lon="6.92156">
        <ele>971.9</ele>
        <time>2013-01-19T13:49:14.000Z</time>
      </trkpt>
      <trkpt lat="47.9943" lon="6.92154">
        <ele>971.2</ele>
        <time>2013-01-19T13:49:15.000Z</time>
      </trkpt>
      <trkpt lat="47.99434" lon="6.92151">
        <ele>969.8</ele>
        <time>2013-01-19T13:49:16.000Z</time>
      </trkpt>
      <trkpt lat="47.99434" lon="6.92147">
        <ele>969.4</ele>
        <time>2013-01-19T13:49:23.000Z</time>
      </trkpt>
      <trkpt lat="47.99434" lon="6.92144">
        <ele>969.8</ele>
        <time>2013-01-19T13:49:24.000Z</time>
      </trkpt>
      <trkpt lat="47.9943" lon="6.92143">
        <ele>965.3</ele>
        <time>2013-01-19T13:50:16.000Z</time>
      </trkpt>
      <trkpt lat="47.99428" lon="6.9214">
        <ele>965.8</ele>
        <time>2013-01-19T13:50:17.000Z</time>
      </trkpt>
      <trkpt lat="47.99426" lon="6.92138">
        <ele>965.8</ele>
        <time>2013-01-19T13:50:18.000Z</time>
      </trkpt>
      <trkpt lat="47.99423" lon="6.92136">
        <ele>964.6</ele>
        <time>2013-01-19T13:50:19.000Z</time>
      </trkpt>
      <trkpt lat="47.99418" lon="6.92135">
        <ele>963.2</ele>
        <time>2013-01-19T13:50:20.000Z</time>
      </trkpt>
      <trkpt lat="47.99415" lon="6.92133">
        <ele>962.4</ele>
        <time>2013-01-19T13:50:21.000Z</time>
      </trkpt>
      <trkpt lat="47.99413" lon="6.9213">
        <ele>962.5</ele>
        <time>2013-01-19T13:50:22.000Z</time>
      </trkpt>
      <trkpt lat="47.99412" lon="6.92129">
        <ele>961.7</ele>
        <time>2013-01-19T13:50:23.000Z</time>
      </trkpt>
      <trkpt lat="47.99408" lon="6.92125">
        <ele>961.1</ele>
        <time>2013-01-19T13:50:24.000Z</time>
      </trkpt>
      <trkpt lat="47.99406" lon="6.9212">
        <ele>958.4</ele>
        <time>2013-01-19T13:50:29.000Z</time>
      </trkpt>
      <trkpt lat="47.99405" lon="6.92118">
        <ele>958.3</ele>
        <time>2013-01-19T13:50:30.000Z</time>
      </trkpt>
      <trkpt lat="47.99406" lon="6.92113">
        <ele>959</ele>
        <time>2013-01-19T13:50:34.000Z</time>
      </trkpt>
      <trkpt lat="47.99407" lon="6.9211">
        <ele>959.8</ele>
        <time>2013-01-19T13:50:35.000Z</time>
      </trkpt>
      <trkpt lat="47.99404" lon="6.92108">
        <ele>959.6</ele>
        <time>2013-01-19T13:51:49.000Z</time>
      </trkpt>
      <trkpt lat="47.99396" lon="6.921">
        <ele>960.5</ele>
        <time>2013-01-19T13:51:50.000Z</time>
      </trkpt>
      <trkpt lat="47.99393" lon="6.92097">
        <ele>960.9</ele>
        <time>2013-01-19T13:51:51.000Z</time>
      </trkpt>
      <trkpt lat="47.99393" lon="6.92093">
        <ele>961</ele>
        <time>2013-01-19T13:51:52.000Z</time>
      </trkpt>
      <trkpt lat="47.9939" lon="6.92089">
        <ele>961.1</ele>
        <time>2013-01-19T13:51:53.000Z</time>
      </trkpt>
      <trkpt lat="47.9939" lon="6.92087">
        <ele>961.1</ele>
        <time>2013-01-19T13:51:54.000Z</time>
      </trkpt>
      <trkpt lat="47.99389" lon="6.9208">
        <ele>961.9</ele>
        <time>2013-01-19T13:52:00.000Z</time>
      </trkpt>
      <trkpt lat="47.9939" lon="6.9208">
        <ele>962</ele>
        <time>2013-01-19T13:52:01.000Z</time>
      </trkpt>
      <trkpt lat="47.99391" lon="6.92073">
        <ele>963.4</ele>
        <time>2013-01-19T13:54:36.000Z</time>
      </trkpt>
      <trkpt lat="47.9939" lon="6.92073">
        <ele>963.4</ele>
        <time>2013-01-19T13:54:37.000Z</time>
      </trkpt>
      <trkpt lat="47.9939" lon="6.92071">
        <ele>963.2</ele>
        <time>2013-01-19T13:55:08.000Z</time>
      </trkpt>
      <trkpt lat="47.99387" lon="6.92066">
        <ele>962.9</ele>
        <time>2013-01-19T13:55:09.000Z</time>
      </trkpt>
      <trkpt lat="47.99385" lon="6.92064">
        <ele>962.7</ele>
        <time>2013-01-19T13:55:10.000Z</time>
      </trkpt>
      <trkpt lat="47.99382" lon="6.92059">
        <ele>962.3</ele>
        <time>2013-01-19T13:55:11.000Z</time>
      </trkpt>
      <trkpt lat="47.99377" lon="6.92053">
        <ele>962.2</ele>
        <time>2013-01-19T13:55:12.000Z</time>
      </trkpt>
      <trkpt lat="47.99377" lon="6.92045">
        <ele>962.6</ele>
        <time>2013-01-19T13:55:13.000Z</time>
      </trkpt>
      <trkpt lat="47.99378" lon="6.92037">
        <ele>962.8</ele>
        <time>2013-01-19T13:55:14.000Z</time>
      </trkpt>
      <trkpt lat="47.99377" lon="6.92031">
        <ele>963.4</ele>
        <time>2013-01-19T13:55:15.000Z</time>
      </trkpt>
      <trkpt lat="47.99377" lon="6.92023">
        <ele>963.9</ele>
        <time>2013-01-19T13:55:16.000Z</time>
      </trkpt>
      <trkpt lat="47.99379" lon="6.92015">
        <ele>964.3</ele>
        <time>2013-01-19T13:55:17.000Z</time>
      </trkpt>
      <trkpt lat="47.99376" lon="6.92007">
        <ele>964.6</ele>
        <time>2013-01-19T13:55:18.000Z</time>
      </trkpt>
      <trkpt lat="47.99375" lon="6.91998">
        <ele>964</ele>
        <time>2013-01-19T13:55:19.000Z</time>
      </trkpt>
      <trkpt lat="47.99373" lon="6.91993">
        <ele>964</ele>
        <time>2013-01-19T13:55:20.000Z</time>
      </trkpt>
      <trkpt lat="47.99372" lon="6.91988">
        <ele>964.3</ele>
        <time>2013-01-19T13:55:21.000Z</time>
      </trkpt>
      <trkpt lat="47.99371" lon="6.91982">
        <ele>964.3</ele>
        <time>2013-01-19T13:55:22.000Z</time>
      </trkpt>
      <trkpt lat="47.99367" lon="6.91977">
        <ele>964.2</ele>
        <time>2013-01-19T13:55:23.000Z</time>
      </trkpt>
      <trkpt lat="47.99367" lon="6.91974">
        <ele>964</ele>
        <time>2013-01-19T13:55:24.000Z</time>
      </trkpt>
      <trkpt lat="47.99365" lon="6.91964">
        <ele>964</ele>
        <time>2013-01-19T13:55:25.000Z</time>
      </trkpt>
      <trkpt lat="47.99362" lon="6.91956">
        <ele>964.1</ele>
        <time>2013-01-19T13:55:26.000Z</time>
      </trkpt>
      <trkpt lat="47.99362" lon="6.91951">
        <ele>963.9</ele>
        <time>2013-01-19T13:55:27.000Z</time>
      </trkpt>
      <trkpt lat="47.99361" lon="6.91946">
        <ele>964.2</ele>
        <time>2013-01-19T13:55:28.000Z</time>
      </trkpt>
      <trkpt lat="47.99358" lon="6.91941">
        <ele>964</ele>
        <time>2013-01-19T13:55:29.000Z</time>
      </trkpt>
      <trkpt lat="47.99356" lon="6.91938">
        <ele>964</ele>
        <time>2013-01-19T13:55:30.000Z</time>
      </trkpt>
      <trkpt lat="47.99354" lon="6.91931">
        <ele>964</ele>
        <time>2013-01-19T13:55:31.000Z</time>
      </trkpt>
      <trkpt lat="47.99354" lon="6.91924">
        <ele>964.2</ele>
        <time>2013-01-19T13:55:32.000Z</time>
      </trkpt>
      <trkpt lat="47.99355" lon="6.91918">
        <ele>964.5</ele>
        <time>2013-01-19T13:55:33.000Z</time>
      </trkpt>
      <trkpt lat="47.99355" lon="6.91915">
        <ele>964.7</ele>
        <time>2013-01-19T13:55:34.000Z</time>
      </trkpt>
      <trkpt lat="47.99352" lon="6.9191">
        <ele>964.6</ele>
        <time>2013-01-19T13:55:35.000Z</time>
      </trkpt>
      <trkpt lat="47.99351" lon="6.91904">
        <ele>964.7</ele>
        <time>2013-01-19T13:55:36.000Z</time>
      </trkpt>
      <trkpt lat="47.99347" lon="6.91897">
        <ele>964.5</ele>
        <time>2013-01-19T13:55:37.000Z</time>
      </trkpt>
      <trkpt lat="47.99346" lon="6.9189">
        <ele>964.4</ele>
        <time>2013-01-19T13:55:38.000Z</time>
      </trkpt>
      <trkpt lat="47.99345" lon="6.9188">
        <ele>964.4</ele>
        <time>2013-01-19T13:55:39.000Z</time>
      </trkpt>
      <trkpt lat="47.99337" lon="6.91868">
        <ele>962</ele>
        <time>2013-01-19T13:55:40.000Z</time>
      </trkpt>
      <trkpt lat="47.99335" lon="6.91861">
        <ele>961.9</ele>
        <time>2013-01-19T13:55:41.000Z</time>
      </trkpt>
      <trkpt lat="47.99336" lon="6.91859">
        <ele>961.9</ele>
        <time>2013-01-19T13:55:42.000Z</time>
      </trkpt>
      <trkpt lat="47.99335" lon="6.91853">
        <ele>962.4</ele>
        <time>2013-01-19T13:55:43.000Z</time>
      </trkpt>
      <trkpt lat="47.99332" lon="6.91846">
        <ele>962.1</ele>
        <time>2013-01-19T13:55:44.000Z</time>
      </trkpt>
      <trkpt lat="47.99332" lon="6.91836">
        <ele>965.1</ele>
        <time>2013-01-19T13:55:45.000Z</time>
      </trkpt>
      <trkpt lat="47.9933" lon="6.91831">
        <ele>964.8</ele>
        <time>2013-01-19T13:55:46.000Z</time>
      </trkpt>
      <trkpt lat="47.99328" lon="6.91825">
        <ele>964.7</ele>
        <time>2013-01-19T13:55:47.000Z</time>
      </trkpt>
      <trkpt lat="47.99328" lon="6.91823">
        <ele>964.4</ele>
        <time>2013-01-19T13:55:48.000Z</time>
      </trkpt>
      <trkpt lat="47.99326" lon="6.91818">
        <ele>962.6</ele>
        <time>2013-01-19T13:55:49.000Z</time>
      </trkpt>
      <trkpt lat="47.99325" lon="6.91813">
        <ele>964.5</ele>
        <time>2013-01-19T13:55:50.000Z</time>
      </trkpt>
      <trkpt lat="47.99324" lon="6.91808">
        <ele>963.4</ele>
        <time>2013-01-19T13:55:51.000Z</time>
      </trkpt>
      <trkpt lat="47.99327" lon="6.91799">
        <ele>969.1</ele>
        <time>2013-01-19T13:55:52.000Z</time>
      </trkpt>
      <trkpt lat="47.99323" lon="6.91795">
        <ele>966.4</ele>
        <time>2013-01-19T13:55:53.000Z</time>
      </trkpt>
      <trkpt lat="47.99324" lon="6.91789">
        <ele>965.3</ele>
        <time>2013-01-19T13:55:55.000Z</time>
      </trkpt>
      <trkpt lat="47.99322" lon="6.91788">
        <ele>964.9</ele>
        <time>2013-01-19T13:55:56.000Z</time>
      </trkpt>
      <trkpt lat="47.99319" lon="6.91786">
        <ele>957.5</ele>
        <time>2013-01-19T13:56:16.000Z</time>
      </trkpt>
      <trkpt lat="47.99317" lon="6.91786">
        <ele>955.6</ele>
        <time>2013-01-19T13:56:17.000Z</time>
      </trkpt>
      <trkpt lat="47.99314" lon="6.91787">
        <ele>951.9</ele>
        <time>2013-01-19T13:56:46.000Z</time>
      </trkpt>
      <trkpt lat="47.99312" lon="6.91787">
        <ele>948.6</ele>
        <time>2013-01-19T13:56:47.000Z</time>
      </trkpt>
      <trkpt lat="47.99308" lon="6.91788">
        <ele>943.5</ele>
        <time>2013-01-19T13:56:54.000Z</time>
      </trkpt>
      <trkpt lat="47.99304" lon="6.91787">
        <ele>942</ele>
        <time>2013-01-19T13:56:55.000Z</time>
      </trkpt>
      <trkpt lat="47.99302" lon="6.91787">
        <ele>942.4</ele>
        <time>2013-01-19T13:56:56.000Z</time>
      </trkpt>
      <trkpt lat="47.99298" lon="6.91784">
        <ele>941</ele>
        <time>2013-01-19T13:56:57.000Z</time>
      </trkpt>
      <trkpt lat="47.99295" lon="6.9178">
        <ele>935.8</ele>
        <time>2013-01-19T13:57:00.000Z</time>
      </trkpt>
      <trkpt lat="47.99293" lon="6.91779">
        <ele>935.2</ele>
        <time>2013-01-19T13:57:01.000Z</time>
      </trkpt>
      <trkpt lat="47.99288" lon="6.91774">
        <ele>935.2</ele>
        <time>2013-01-19T13:57:02.000Z</time>
      </trkpt>
      <trkpt lat="47.99285" lon="6.91773">
        <ele>933.7</ele>
        <time>2013-01-19T13:57:04.000Z</time>
      </trkpt>
      <trkpt lat="47.99279" lon="6.91769">
        <ele>932</ele>
        <time>2013-01-19T13:57:05.000Z</time>
      </trkpt>
      <trkpt lat="47.99271" lon="6.91765">
        <ele>929.6</ele>
        <time>2013-01-19T13:57:06.000Z</time>
      </trkpt>
      <trkpt lat="47.99268" lon="6.91768">
        <ele>926.8</ele>
        <time>2013-01-19T13:57:07.000Z</time>
      </trkpt>
      <trkpt lat="47.99265" lon="6.91765">
        <ele>926.4</ele>
        <time>2013-01-19T13:57:08.000Z</time>
      </trkpt>
      <trkpt lat="47.9926" lon="6.91763">
        <ele>922</ele>
        <time>2013-01-19T13:57:09.000Z</time>
      </trkpt>
      <trkpt lat="47.99256" lon="6.91763">
        <ele>921.2</ele>
        <time>2013-01-19T13:57:11.000Z</time>
      </trkpt>
      <trkpt lat="47.99252" lon="6.91762">
        <ele>920.4</ele>
        <time>2013-01-19T13:57:12.000Z</time>
      </trkpt>
      <trkpt lat="47.99249" lon="6.91764">
        <ele>914.3</ele>
        <time>2013-01-19T13:57:23.000Z</time>
      </trkpt>
      <trkpt lat="47.99248" lon="6.91763">
        <ele>913.8</ele>
        <time>2013-01-19T13:57:24.000Z</time>
      </trkpt>
      <trkpt lat="47.99246" lon="6.91767">
        <ele>906.9</ele>
        <time>2013-01-19T13:57:30.000Z</time>
      </trkpt>
      <trkpt lat="47.99245" lon="6.91768">
        <ele>907.4</ele>
        <time>2013-01-19T13:57:31.000Z</time>
      </trkpt>
      <trkpt lat="47.9924" lon="6.91768">
        <ele>906.9</ele>
        <time>2013-01-19T13:57:36.000Z</time>
      </trkpt>
      <trkpt lat="47.9924" lon="6.91767">
        <ele>907.4</ele>
        <time>2013-01-19T13:57:37.000Z</time>
      </trkpt>
      <trkpt lat="47.9924" lon="6.91773">
        <ele>907.3</ele>
        <time>2013-01-19T13:57:42.000Z</time>
      </trkpt>
      <trkpt lat="47.99238" lon="6.91774">
        <ele>908.2</ele>
        <time>2013-01-19T13:57:43.000Z</time>
      </trkpt>
      <trkpt lat="47.99236" lon="6.91778">
        <ele>910</ele>
        <time>2013-01-19T13:57:49.000Z</time>
      </trkpt>
      <trkpt lat="47.99234" lon="6.91777">
        <ele>910.2</ele>
        <time>2013-01-19T13:57:50.000Z</time>
      </trkpt>
      <trkpt lat="47.99229" lon="6.91775">
        <ele>910.3</ele>
        <time>2013-01-19T13:57:55.000Z</time>
      </trkpt>
      <trkpt lat="47.99229" lon="6.91776">
        <ele>909.9</ele>
        <time>2013-01-19T13:57:56.000Z</time>
      </trkpt>
      <trkpt lat="47.99225" lon="6.91778">
        <ele>911.8</ele>
        <time>2013-01-19T13:58:02.000Z</time>
      </trkpt>
      <trkpt lat="47.99223" lon="6.91778">
        <ele>910.4</ele>
        <time>2013-01-19T13:58:03.000Z</time>
      </trkpt>
      <trkpt lat="47.99221" lon="6.91776">
        <ele>908.6</ele>
        <time>2013-01-19T13:58:07.000Z</time>
      </trkpt>
      <trkpt lat="47.99218" lon="6.91774">
        <ele>910.3</ele>
        <time>2013-01-19T13:58:08.000Z</time>
      </trkpt>
      <trkpt lat="47.99215" lon="6.91777">
        <ele>911.3</ele>
        <time>2013-01-19T13:58:10.000Z</time>
      </trkpt>
      <trkpt lat="47.99214" lon="6.91779">
        <ele>910.3</ele>
        <time>2013-01-19T13:58:11.000Z</time>
      </trkpt>
      <trkpt lat="47.99212" lon="6.91782">
        <ele>909</ele>
        <time>2013-01-19T13:58:17.000Z</time>
      </trkpt>
      <trkpt lat="47.9921" lon="6.91781">
        <ele>909.1</ele>
        <time>2013-01-19T13:58:18.000Z</time>
      </trkpt>
      <trkpt lat="47.99206" lon="6.91783">
        <ele>907.7</ele>
        <time>2013-01-19T13:58:24.000Z</time>
      </trkpt>
      <trkpt lat="47.99205" lon="6.91783">
        <ele>907.3</ele>
        <time>2013-01-19T13:58:25.000Z</time>
      </trkpt>
      <trkpt lat="47.99203" lon="6.91779">
        <ele>907.9</ele>
        <time>2013-01-19T13:58:26.000Z</time>
      </trkpt>
      <trkpt lat="47.99202" lon="6.91778">
        <ele>907.8</ele>
        <time>2013-01-19T13:58:27.000Z</time>
      </trkpt>
      <trkpt lat="47.99199" lon="6.9178">
        <ele>908.5</ele>
        <time>2013-01-19T13:58:30.000Z</time>
      </trkpt>
      <trkpt lat="47.99196" lon="6.9178">
        <ele>909.3</ele>
        <time>2013-01-19T13:58:31.000Z</time>
      </trkpt>
      <trkpt lat="47.99196" lon="6.91786">
        <ele>907.6</ele>
        <time>2013-01-19T13:58:36.000Z</time>
      </trkpt>
      <trkpt lat="47.99196" lon="6.91788">
        <ele>908.2</ele>
        <time>2013-01-19T13:58:37.000Z</time>
      </trkpt>
      <trkpt lat="47.99192" lon="6.91791">
        <ele>909.2</ele>
        <time>2013-01-19T13:58:49.000Z</time>
      </trkpt>
      <trkpt lat="47.99189" lon="6.91792">
        <ele>910.1</ele>
        <time>2013-01-19T13:58:50.000Z</time>
      </trkpt>
      <trkpt lat="47.99187" lon="6.91795">
        <ele>911</ele>
        <time>2013-01-19T13:58:52.000Z</time>
      </trkpt>
      <trkpt lat="47.99186" lon="6.91797">
        <ele>911.7</ele>
        <time>2013-01-19T13:58:53.000Z</time>
      </trkpt>
      <trkpt lat="47.99185" lon="6.91791">
        <ele>911.9</ele>
        <time>2013-01-19T13:58:58.000Z</time>
      </trkpt>
      <trkpt lat="47.99183" lon="6.9179">
        <ele>912.3</ele>
        <time>2013-01-19T13:58:59.000Z</time>
      </trkpt>
      <trkpt lat="47.99184" lon="6.91795">
        <ele>912.9</ele>
        <time>2013-01-19T13:59:06.000Z</time>
      </trkpt>
      <trkpt lat="47.99186" lon="6.91797">
        <ele>912.7</ele>
        <time>2013-01-19T13:59:07.000Z</time>
      </trkpt>
      <trkpt lat="47.99185" lon="6.91791">
        <ele>912.9</ele>
        <time>2013-01-19T13:59:08.000Z</time>
      </trkpt>
      <trkpt lat="47.99182" lon="6.91784">
        <ele>914</ele>
        <time>2013-01-19T13:59:09.000Z</time>
      </trkpt>
      <trkpt lat="47.99184" lon="6.91784">
        <ele>914</ele>
        <time>2013-01-19T13:59:10.000Z</time>
      </trkpt>
      <trkpt lat="47.99187" lon="6.91783">
        <ele>912.8</ele>
        <time>2013-01-19T13:59:11.000Z</time>
      </trkpt>
      <trkpt lat="47.99186" lon="6.91778">
        <ele>913.3</ele>
        <time>2013-01-19T13:59:15.000Z</time>
      </trkpt>
      <trkpt lat="47.99183" lon="6.91776">
        <ele>913.4</ele>
        <time>2013-01-19T13:59:16.000Z</time>
      </trkpt>
      <trkpt lat="47.99187" lon="6.91777">
        <ele>912.9</ele>
        <time>2013-01-19T13:59:19.000Z</time>
      </trkpt>
      <trkpt lat="47.99188" lon="6.91783">
        <ele>913.4</ele>
        <time>2013-01-19T13:59:20.000Z</time>
      </trkpt>
      <trkpt lat="47.99188" lon="6.91779">
        <ele>914.5</ele>
        <time>2013-01-19T13:59:23.000Z</time>
      </trkpt>
      <trkpt lat="47.99185" lon="6.91773">
        <ele>914.5</ele>
        <time>2013-01-19T13:59:24.000Z</time>
      </trkpt>
      <trkpt lat="47.99189" lon="6.91772">
        <ele>921.7</ele>
        <time>2013-01-19T14:05:20.000Z</time>
      </trkpt>
      <trkpt lat="47.99189" lon="6.91772">
        <ele>921.7</ele>
        <time>2013-01-19T14:05:21.000Z</time>
      </trkpt>
      <trkpt lat="47.99193" lon="6.91771">
        <ele>923.8</ele>
        <time>2013-01-19T14:15:45.000Z</time>
      </trkpt>
      <trkpt lat="47.99197" lon="6.91768">
        <ele>922.4</ele>
        <time>2013-01-19T14:15:46.000Z</time>
      </trkpt>
      <trkpt lat="47.99198" lon="6.91763">
        <ele>921.9</ele>
        <time>2013-01-19T14:15:47.000Z</time>
      </trkpt>
      <trkpt lat="47.99202" lon="6.91759">
        <ele>922</ele>
        <time>2013-01-19T14:15:48.000Z</time>
      </trkpt>
      <trkpt lat="47.99205" lon="6.91755">
        <ele>921.9</ele>
        <time>2013-01-19T14:15:49.000Z</time>
      </trkpt>
      <trkpt lat="47.99207" lon="6.9175">
        <ele>922.2</ele>
        <time>2013-01-19T14:15:50.000Z</time>
      </trkpt>
      <trkpt lat="47.99208" lon="6.91745">
        <ele>921.2</ele>
        <time>2013-01-19T14:15:51.000Z</time>
      </trkpt>
      <trkpt lat="47.99209" lon="6.91741">
        <ele>921</ele>
        <time>2013-01-19T14:15:52.000Z</time>
      </trkpt>
      <trkpt lat="47.99213" lon="6.91739">
        <ele>920.9</ele>
        <time>2013-01-19T14:15:53.000Z</time>
      </trkpt>
      <trkpt lat="47.99216" lon="6.91736">
        <ele>922.4</ele>
        <time>2013-01-19T14:15:54.000Z</time>
      </trkpt>
      <trkpt lat="47.99219" lon="6.91735">
        <ele>924</ele>
        <time>2013-01-19T14:15:55.000Z</time>
      </trkpt>
      <trkpt lat="47.99225" lon="6.91734">
        <ele>925.3</ele>
        <time>2013-01-19T14:15:56.000Z</time>
      </trkpt>
      <trkpt lat="47.99226" lon="6.91729">
        <ele>925.7</ele>
        <time>2013-01-19T14:15:58.000Z</time>
      </trkpt>
      <trkpt lat="47.99229" lon="6.91729">
        <ele>926.5</ele>
        <time>2013-01-19T14:15:59.000Z</time>
      </trkpt>
      <trkpt lat="47.9923" lon="6.91727">
        <ele>926.4</ele>
        <time>2013-01-19T14:16:01.000Z</time>
      </trkpt>
      <trkpt lat="47.99232" lon="6.91725">
        <ele>926</ele>
        <time>2013-01-19T14:16:02.000Z</time>
      </trkpt>
      <trkpt lat="47.99234" lon="6.91722">
        <ele>924.2</ele>
        <time>2013-01-19T14:16:08.000Z</time>
      </trkpt>
      <trkpt lat="47.99237" lon="6.9172">
        <ele>924.5</ele>
        <time>2013-01-19T14:16:09.000Z</time>
      </trkpt>
      <trkpt lat="47.9924" lon="6.91719">
        <ele>923.6</ele>
        <time>2013-01-19T14:16:12.000Z</time>
      </trkpt>
      <trkpt lat="47.99241" lon="6.91719">
        <ele>923.2</ele>
        <time>2013-01-19T14:16:13.000Z</time>
      </trkpt>
      <trkpt lat="47.99245" lon="6.91718">
        <ele>922.4</ele>
        <time>2013-01-19T14:16:15.000Z</time>
      </trkpt>
      <trkpt lat="47.99246" lon="6.91717">
        <ele>921.2</ele>
        <time>2013-01-19T14:16:16.000Z</time>
      </trkpt>
      <trkpt lat="47.9925" lon="6.91715">
        <ele>920.7</ele>
        <time>2013-01-19T14:16:19.000Z</time>
      </trkpt>
      <trkpt lat="47.99252" lon="6.91714">
        <ele>920.6</ele>
        <time>2013-01-19T14:16:20.000Z</time>
      </trkpt>
      <trkpt lat="47.99251" lon="6.91708">
        <ele>918.8</ele>
        <time>2013-01-19T14:16:26.000Z</time>
      </trkpt>
      <trkpt lat="47.99252" lon="6.91706">
        <ele>918.3</ele>
        <time>2013-01-19T14:16:27.000Z</time>
      </trkpt>
      <trkpt lat="47.99256" lon="6.91704">
        <ele>918.7</ele>
        <time>2013-01-19T14:16:30.000Z</time>
      </trkpt>
      <trkpt lat="47.99257" lon="6.91709">
        <ele>917.7</ele>
        <time>2013-01-19T14:16:31.000Z</time>
      </trkpt>
      <trkpt lat="47.9926" lon="6.91709">
        <ele>917.7</ele>
        <time>2013-01-19T14:17:18.000Z</time>
      </trkpt>
      <trkpt lat="47.99265" lon="6.91704">
        <ele>917.9</ele>
        <time>2013-01-19T14:17:19.000Z</time>
      </trkpt>
      <trkpt lat="47.99269" lon="6.91702">
        <ele>915.4</ele>
        <time>2013-01-19T14:17:21.000Z</time>
      </trkpt>
      <trkpt lat="47.99271" lon="6.91703">
        <ele>914.4</ele>
        <time>2013-01-19T14:17:22.000Z</time>
      </trkpt>
      <trkpt lat="47.99271" lon="6.91701">
        <ele>914.4</ele>
        <time>2013-01-19T14:17:23.000Z</time>
      </trkpt>
      <trkpt lat="47.99275" lon="6.91698">
        <ele>913.2</ele>
        <time>2013-01-19T14:17:24.000Z</time>
      </trkpt>
      <trkpt lat="47.99277" lon="6.91698">
        <ele>912.6</ele>
        <time>2013-01-19T14:17:26.000Z</time>
      </trkpt>
      <trkpt lat="47.99279" lon="6.91697">
        <ele>912.5</ele>
        <time>2013-01-19T14:17:27.000Z</time>
      </trkpt>
      <trkpt lat="47.99282" lon="6.91693">
        <ele>910.7</ele>
        <time>2013-01-19T14:17:32.000Z</time>
      </trkpt>
      <trkpt lat="47.99284" lon="6.91694">
        <ele>907.8</ele>
        <time>2013-01-19T14:17:33.000Z</time>
      </trkpt>
      <trkpt lat="47.99284" lon="6.91688">
        <ele>899.2</ele>
        <time>2013-01-19T14:20:23.000Z</time>
      </trkpt>
      <trkpt lat="47.99287" lon="6.91687">
        <ele>899.9</ele>
        <time>2013-01-19T14:20:24.000Z</time>
      </trkpt>
      <trkpt lat="47.9929" lon="6.91686">
        <ele>897.2</ele>
        <time>2013-01-19T14:20:29.000Z</time>
      </trkpt>
      <trkpt lat="47.99291" lon="6.91688">
        <ele>896.9</ele>
        <time>2013-01-19T14:20:30.000Z</time>
      </trkpt>
      <trkpt lat="47.99292" lon="6.91687">
        <ele>895.7</ele>
        <time>2013-01-19T14:20:43.000Z</time>
      </trkpt>
      <trkpt lat="47.99293" lon="6.91681">
        <ele>895</ele>
        <time>2013-01-19T14:20:44.000Z</time>
      </trkpt>
      <trkpt lat="47.99294" lon="6.91677">
        <ele>893.4</ele>
        <time>2013-01-19T14:20:47.000Z</time>
      </trkpt>
      <trkpt lat="47.99295" lon="6.91675">
        <ele>892.5</ele>
        <time>2013-01-19T14:20:48.000Z</time>
      </trkpt>
      <trkpt lat="47.99298" lon="6.91671">
        <ele>893.2</ele>
        <time>2013-01-19T14:20:56.000Z</time>
      </trkpt>
      <trkpt lat="47.99299" lon="6.91671">
        <ele>893.4</ele>
        <time>2013-01-19T14:20:57.000Z</time>
      </trkpt>
      <trkpt lat="47.993" lon="6.91667">
        <ele>892.8</ele>
        <time>2013-01-19T14:21:04.000Z</time>
      </trkpt>
      <trkpt lat="47.993" lon="6.91664">
        <ele>892.2</ele>
        <time>2013-01-19T14:21:05.000Z</time>
      </trkpt>
      <trkpt lat="47.99304" lon="6.9166">
        <ele>892.1</ele>
        <time>2013-01-19T14:21:12.000Z</time>
      </trkpt>
      <trkpt lat="47.99304" lon="6.91659">
        <ele>891.9</ele>
        <time>2013-01-19T14:21:13.000Z</time>
      </trkpt>
      <trkpt lat="47.99307" lon="6.91657">
        <ele>893.2</ele>
        <time>2013-01-19T14:21:32.000Z</time>
      </trkpt>
      <trkpt lat="47.99311" lon="6.91654">
        <ele>893.4</ele>
        <time>2013-01-19T14:21:33.000Z</time>
      </trkpt>
      <trkpt lat="47.99313" lon="6.91653">
        <ele>893.8</ele>
        <time>2013-01-19T14:21:34.000Z</time>
      </trkpt>
      <trkpt lat="47.99317" lon="6.9165">
        <ele>893.4</ele>
        <time>2013-01-19T14:21:35.000Z</time>
      </trkpt>
      <trkpt lat="47.99319" lon="6.91646">
        <ele>893.2</ele>
        <time>2013-01-19T14:21:36.000Z</time>
      </trkpt>
      <trkpt lat="47.99319" lon="6.91643">
        <ele>893.2</ele>
        <time>2013-01-19T14:21:37.000Z</time>
      </trkpt>
      <trkpt lat="47.99318" lon="6.91639">
        <ele>893.2</ele>
        <time>2013-01-19T14:21:38.000Z</time>
      </trkpt>
      <trkpt lat="47.99323" lon="6.91636">
        <ele>892.8</ele>
        <time>2013-01-19T14:21:39.000Z</time>
      </trkpt>
      <trkpt lat="47.99325" lon="6.91631">
        <ele>892.6</ele>
        <time>2013-01-19T14:21:41.000Z</time>
      </trkpt>
      <trkpt lat="47.99324" lon="6.91626">
        <ele>892.7</ele>
        <time>2013-01-19T14:21:42.000Z</time>
      </trkpt>
      <trkpt lat="47.99328" lon="6.91622">
        <ele>892.4</ele>
        <time>2013-01-19T14:21:43.000Z</time>
      </trkpt>
      <trkpt lat="47.99328" lon="6.91617">
        <ele>890.8</ele>
        <time>2013-01-19T14:21:46.000Z</time>
      </trkpt>
      <trkpt lat="47.99327" lon="6.91614">
        <ele>890.8</ele>
        <time>2013-01-19T14:21:47.000Z</time>
      </trkpt>
      <trkpt lat="47.99329" lon="6.91609">
        <ele>889.8</ele>
        <time>2013-01-19T14:21:50.000Z</time>
      </trkpt>
      <trkpt lat="47.9933" lon="6.91608">
        <ele>890.6</ele>
        <time>2013-01-19T14:21:51.000Z</time>
      </trkpt>
      <trkpt lat="47.99328" lon="6.91604">
        <ele>889</ele>
        <time>2013-01-19T14:22:51.000Z</time>
      </trkpt>
      <trkpt lat="47.99328" lon="6.91598">
        <ele>889.6</ele>
        <time>2013-01-19T14:22:52.000Z</time>
      </trkpt>
      <trkpt lat="47.99328" lon="6.91593">
        <ele>890</ele>
        <time>2013-01-19T14:22:53.000Z</time>
      </trkpt>
      <trkpt lat="47.99323" lon="6.91587">
        <ele>890.9</ele>
        <time>2013-01-19T14:22:54.000Z</time>
      </trkpt>
      <trkpt lat="47.99324" lon="6.91582">
        <ele>892.4</ele>
        <time>2013-01-19T14:22:58.000Z</time>
      </trkpt>
      <trkpt lat="47.99324" lon="6.9158">
        <ele>892.8</ele>
        <time>2013-01-19T14:22:59.000Z</time>
      </trkpt>
      <trkpt lat="47.99322" lon="6.91574">
        <ele>891.8</ele>
        <time>2013-01-19T14:23:23.000Z</time>
      </trkpt>
      <trkpt lat="47.99322" lon="6.91574">
        <ele>891.8</ele>
        <time>2013-01-19T14:23:24.000Z</time>
      </trkpt>
      <trkpt lat="47.99323" lon="6.91573">
        <ele>892.6</ele>
        <time>2013-01-19T14:23:33.000Z</time>
      </trkpt>
      <trkpt lat="47.99323" lon="6.91564">
        <ele>892.6</ele>
        <time>2013-01-19T14:23:34.000Z</time>
      </trkpt>
      <trkpt lat="47.99319" lon="6.91557">
        <ele>892.7</ele>
        <time>2013-01-19T14:23:35.000Z</time>
      </trkpt>
      <trkpt lat="47.99321" lon="6.91549">
        <ele>894.4</ele>
        <time>2013-01-19T14:23:36.000Z</time>
      </trkpt>
      <trkpt lat="47.99319" lon="6.91544">
        <ele>894.3</ele>
        <time>2013-01-19T14:23:37.000Z</time>
      </trkpt>
      <trkpt lat="47.99319" lon="6.91542">
        <ele>895.1</ele>
        <time>2013-01-19T14:23:38.000Z</time>
      </trkpt>
      <trkpt lat="47.99318" lon="6.91538">
        <ele>895.4</ele>
        <time>2013-01-19T14:23:39.000Z</time>
      </trkpt>
      <trkpt lat="47.99322" lon="6.91532">
        <ele>897.9</ele>
        <time>2013-01-19T14:23:40.000Z</time>
      </trkpt>
      <trkpt lat="47.99322" lon="6.91527">
        <ele>897.1</ele>
        <time>2013-01-19T14:23:42.000Z</time>
      </trkpt>
      <trkpt lat="47.99323" lon="6.91524">
        <ele>897.4</ele>
        <time>2013-01-19T14:23:43.000Z</time>
      </trkpt>
      <trkpt lat="47.99325" lon="6.91518">
        <ele>897.9</ele>
        <time>2013-01-19T14:23:50.000Z</time>
      </trkpt>
      <trkpt lat="47.99325" lon="6.91517">
        <ele>897.5</ele>
        <time>2013-01-19T14:23:51.000Z</time>
      </trkpt>
      <trkpt lat="47.99326" lon="6.91513">
        <ele>898.1</ele>
        <time>2013-01-19T14:24:00.000Z</time>
      </trkpt>
      <trkpt lat="47.9933" lon="6.91513">
        <ele>898</ele>
        <time>2013-01-19T14:24:01.000Z</time>
      </trkpt>
      <trkpt lat="47.99332" lon="6.91509">
        <ele>898.1</ele>
        <time>2013-01-19T14:24:02.000Z</time>
      </trkpt>
      <trkpt lat="47.99333" lon="6.91506">
        <ele>896.8</ele>
        <time>2013-01-19T14:24:03.000Z</time>
      </trkpt>
      <trkpt lat="47.99334" lon="6.91501">
        <ele>898</ele>
        <time>2013-01-19T14:24:06.000Z</time>
      </trkpt>
      <trkpt lat="47.99334" lon="6.91499">
        <ele>897.9</ele>
        <time>2013-01-19T14:24:07.000Z</time>
      </trkpt>
      <trkpt lat="47.99334" lon="6.91492">
        <ele>897.5</ele>
        <time>2013-01-19T14:24:10.000Z</time>
      </trkpt>
      <trkpt lat="47.99334" lon="6.91492">
        <ele>897.5</ele>
        <time>2013-01-19T14:24:11.000Z</time>
      </trkpt>
      <trkpt lat="47.99335" lon="6.91486">
        <ele>896.5</ele>
        <time>2013-01-19T14:24:14.000Z</time>
      </trkpt>
      <trkpt lat="47.99334" lon="6.91482">
        <ele>897.2</ele>
        <time>2013-01-19T14:24:15.000Z</time>
      </trkpt>
      <trkpt lat="47.99337" lon="6.91478">
        <ele>900.2</ele>
        <time>2013-01-19T14:24:38.000Z</time>
      </trkpt>
      <trkpt lat="47.99338" lon="6.91478">
        <ele>901.1</ele>
        <time>2013-01-19T14:24:39.000Z</time>
      </trkpt>
      <trkpt lat="47.99338" lon="6.91478">
        <ele>901.6</ele>
        <time>2013-01-19T14:24:51.000Z</time>
      </trkpt>
      <trkpt lat="47.9934" lon="6.91472">
        <ele>902.9</ele>
        <time>2013-01-19T14:24:52.000Z</time>
      </trkpt>
      <trkpt lat="47.99341" lon="6.91468">
        <ele>903.2</ele>
        <time>2013-01-19T14:24:53.000Z</time>
      </trkpt>
      <trkpt lat="47.99343" lon="6.91464">
        <ele>902.8</ele>
        <time>2013-01-19T14:24:54.000Z</time>
      </trkpt>
      <trkpt lat="47.99344" lon="6.91461">
        <ele>902.8</ele>
        <time>2013-01-19T14:24:55.000Z</time>
      </trkpt>
      <trkpt lat="47.99346" lon="6.91458">
        <ele>903.4</ele>
        <time>2013-01-19T14:24:56.000Z</time>
      </trkpt>
      <trkpt lat="47.99335" lon="6.91454">
        <ele>900.1</ele>
        <time>2013-01-19T14:25:01.000Z</time>
      </trkpt>
      <trkpt lat="47.99335" lon="6.91449">
        <ele>898.2</ele>
        <time>2013-01-19T14:25:08.000Z</time>
      </trkpt>
      <trkpt lat="47.99335" lon="6.91447">
        <ele>898.3</ele>
        <time>2013-01-19T14:25:09.000Z</time>
      </trkpt>
      <trkpt lat="47.99337" lon="6.91445">
        <ele>899.3</ele>
        <time>2013-01-19T14:25:29.000Z</time>
      </trkpt>
      <trkpt lat="47.9934" lon="6.9144">
        <ele>899.7</ele>
        <time>2013-01-19T14:25:30.000Z</time>
      </trkpt>
      <trkpt lat="47.99343" lon="6.91437">
        <ele>898.4</ele>
        <time>2013-01-19T14:25:31.000Z</time>
      </trkpt>
      <trkpt lat="47.99347" lon="6.91437">
        <ele>897.6</ele>
        <time>2013-01-19T14:25:32.000Z</time>
      </trkpt>
      <trkpt lat="47.99349" lon="6.91434">
        <ele>898.4</ele>
        <time>2013-01-19T14:25:34.000Z</time>
      </trkpt>
      <trkpt lat="47.99351" lon="6.91432">
        <ele>898.4</ele>
        <time>2013-01-19T14:25:35.000Z</time>
      </trkpt>
      <trkpt lat="47.9935" lon="6.91425">
        <ele>900.2</ele>
        <time>2013-01-19T14:25:39.000Z</time>
      </trkpt>
      <trkpt lat="47.99351" lon="6.91424">
        <ele>900.7</ele>
        <time>2013-01-19T14:25:40.000Z</time>
      </trkpt>
      <trkpt lat="47.99355" lon="6.9142">
        <ele>903.2</ele>
        <time>2013-01-19T14:26:06.000Z</time>
      </trkpt>
      <trkpt lat="47.99357" lon="6.91415">
        <ele>903.1</ele>
        <time>2013-01-19T14:26:07.000Z</time>
      </trkpt>
      <trkpt lat="47.99358" lon="6.91413">
        <ele>903.3</ele>
        <time>2013-01-19T14:26:10.000Z</time>
      </trkpt>
      <trkpt lat="47.99363" lon="6.91411">
        <ele>903.9</ele>
        <time>2013-01-19T14:26:11.000Z</time>
      </trkpt>
      <trkpt lat="47.99364" lon="6.91405">
        <ele>904.6</ele>
        <time>2013-01-19T14:26:12.000Z</time>
      </trkpt>
      <trkpt lat="47.99364" lon="6.91404">
        <ele>904.7</ele>
        <time>2013-01-19T14:26:13.000Z</time>
      </trkpt>
      <trkpt lat="47.99366" lon="6.91398">
        <ele>904.9</ele>
        <time>2013-01-19T14:26:24.000Z</time>
      </trkpt>
      <trkpt lat="47.99366" lon="6.91398">
        <ele>905.6</ele>
        <time>2013-01-19T14:26:25.000Z</time>
      </trkpt>
      <trkpt lat="47.99368" lon="6.91394">
        <ele>909.7</ele>
        <time>2013-01-19T14:26:49.000Z</time>
      </trkpt>
      <trkpt lat="47.99374" lon="6.91393">
        <ele>911.7</ele>
        <time>2013-01-19T14:26:50.000Z</time>
      </trkpt>
      <trkpt lat="47.99373" lon="6.91389">
        <ele>912.1</ele>
        <time>2013-01-19T14:26:51.000Z</time>
      </trkpt>
      <trkpt lat="47.99381" lon="6.91386">
        <ele>914.1</ele>
        <time>2013-01-19T14:26:52.000Z</time>
      </trkpt>
      <trkpt lat="47.99383" lon="6.91381">
        <ele>914.9</ele>
        <time>2013-01-19T14:27:01.000Z</time>
      </trkpt>
      <trkpt lat="47.99385" lon="6.91378">
        <ele>914.4</ele>
        <time>2013-01-19T14:27:02.000Z</time>
      </trkpt>
      <trkpt lat="47.99387" lon="6.91372">
        <ele>913.2</ele>
        <time>2013-01-19T14:27:03.000Z</time>
      </trkpt>
      <trkpt lat="47.9939" lon="6.91371">
        <ele>912.3</ele>
        <time>2013-01-19T14:27:04.000Z</time>
      </trkpt>
      <trkpt lat="47.99393" lon="6.9137">
        <ele>911.9</ele>
        <time>2013-01-19T14:27:06.000Z</time>
      </trkpt>
      <trkpt lat="47.99394" lon="6.91367">
        <ele>911</ele>
        <time>2013-01-19T14:27:07.000Z</time>
      </trkpt>
      <trkpt lat="47.99394" lon="6.91363">
        <ele>910.6</ele>
        <time>2013-01-19T14:27:09.000Z</time>
      </trkpt>
      <trkpt lat="47.99395" lon="6.9136">
        <ele>911.6</ele>
        <time>2013-01-19T14:27:10.000Z</time>
      </trkpt>
      <trkpt lat="47.99396" lon="6.9136">
        <ele>912.6</ele>
        <time>2013-01-19T14:27:11.000Z</time>
      </trkpt>
      <trkpt lat="47.994" lon="6.91358">
        <ele>912.6</ele>
        <time>2013-01-19T14:27:12.000Z</time>
      </trkpt>
      <trkpt lat="47.99402" lon="6.91354">
        <ele>912.5</ele>
        <time>2013-01-19T14:27:13.000Z</time>
      </trkpt>
      <trkpt lat="47.99404" lon="6.91354">
        <ele>913</ele>
        <time>2013-01-19T14:27:14.000Z</time>
      </trkpt>
      <trkpt lat="47.99408" lon="6.91352">
        <ele>913.5</ele>
        <time>2013-01-19T14:27:16.000Z</time>
      </trkpt>
      <trkpt lat="47.99409" lon="6.91352">
        <ele>913.3</ele>
        <time>2013-01-19T14:27:17.000Z</time>
      </trkpt>
      <trkpt lat="47.99412" lon="6.91349">
        <ele>913.6</ele>
        <time>2013-01-19T14:27:18.000Z</time>
      </trkpt>
      <trkpt lat="47.99415" lon="6.91348">
        <ele>915</ele>
        <time>2013-01-19T14:27:19.000Z</time>
      </trkpt>
      <trkpt lat="47.99419" lon="6.91348">
        <ele>916.4</ele>
        <time>2013-01-19T14:27:41.000Z</time>
      </trkpt>
      <trkpt lat="47.99419" lon="6.91348">
        <ele>916.4</ele>
        <time>2013-01-19T14:27:42.000Z</time>
      </trkpt>
      <trkpt lat="47.9942" lon="6.91348">
        <ele>916.5</ele>
        <time>2013-01-19T14:27:53.000Z</time>
      </trkpt>
      <trkpt lat="47.99425" lon="6.91345">
        <ele>917</ele>
        <time>2013-01-19T14:27:54.000Z</time>
      </trkpt>
      <trkpt lat="47.99428" lon="6.9135">
        <ele>914.7</ele>
        <time>2013-01-19T14:28:13.000Z</time>
      </trkpt>
      <trkpt lat="47.99428" lon="6.91349">
        <ele>914.7</ele>
        <time>2013-01-19T14:28:14.000Z</time>
      </trkpt>
      <trkpt lat="47.9943" lon="6.91352">
        <ele>914.9</ele>
        <time>2013-01-19T14:28:46.000Z</time>
      </trkpt>
      <trkpt lat="47.99434" lon="6.91354">
        <ele>916.1</ele>
        <time>2013-01-19T14:28:47.000Z</time>
      </trkpt>
      <trkpt lat="47.99436" lon="6.91355">
        <ele>916.2</ele>
        <time>2013-01-19T14:28:48.000Z</time>
      </trkpt>
      <trkpt lat="47.99442" lon="6.91359">
        <ele>916.7</ele>
        <time>2013-01-19T14:28:49.000Z</time>
      </trkpt>
      <trkpt lat="47.99447" lon="6.9136">
        <ele>916.5</ele>
        <time>2013-01-19T14:28:50.000Z</time>
      </trkpt>
      <trkpt lat="47.9945" lon="6.91358">
        <ele>917.6</ele>
        <time>2013-01-19T14:28:51.000Z</time>
      </trkpt>
      <trkpt lat="47.99454" lon="6.91358">
        <ele>918</ele>
        <time>2013-01-19T14:28:52.000Z</time>
      </trkpt>
      <trkpt lat="47.99458" lon="6.91358">
        <ele>918.1</ele>
        <time>2013-01-19T14:28:54.000Z</time>
      </trkpt>
      <trkpt lat="47.99461" lon="6.91358">
        <ele>917</ele>
        <time>2013-01-19T14:28:55.000Z</time>
      </trkpt>
      <trkpt lat="47.99464" lon="6.91359">
        <ele>913.7</ele>
        <time>2013-01-19T14:28:56.000Z</time>
      </trkpt>
      <trkpt lat="47.99467" lon="6.9136">
        <ele>913.6</ele>
        <time>2013-01-19T14:29:03.000Z</time>
      </trkpt>
      <trkpt lat="47.99471" lon="6.91363">
        <ele>914.2</ele>
        <time>2013-01-19T14:29:05.000Z</time>
      </trkpt>
      <trkpt lat="47.99474" lon="6.91362">
        <ele>914.3</ele>
        <time>2013-01-19T14:29:06.000Z</time>
      </trkpt>
      <trkpt lat="47.99477" lon="6.91364">
        <ele>915</ele>
        <time>2013-01-19T14:29:07.000Z</time>
      </trkpt>
      <trkpt lat="47.99484" lon="6.91362">
        <ele>915.3</ele>
        <time>2013-01-19T14:29:08.000Z</time>
      </trkpt>
      <trkpt lat="47.99488" lon="6.91363">
        <ele>915.7</ele>
        <time>2013-01-19T14:29:14.000Z</time>
      </trkpt>
      <trkpt lat="47.99489" lon="6.91361">
        <ele>915.5</ele>
        <time>2013-01-19T14:29:15.000Z</time>
      </trkpt>
      <trkpt lat="47.99493" lon="6.91358">
        <ele>917.2</ele>
        <time>2013-01-19T14:29:19.000Z</time>
      </trkpt>
      <trkpt lat="47.99494" lon="6.91359">
        <ele>917.3</ele>
        <time>2013-01-19T14:29:20.000Z</time>
      </trkpt>
      <trkpt lat="47.99495" lon="6.91361">
        <ele>917.9</ele>
        <time>2013-01-19T14:29:23.000Z</time>
      </trkpt>
      <trkpt lat="47.99498" lon="6.91362">
        <ele>918.6</ele>
        <time>2013-01-19T14:29:24.000Z</time>
      </trkpt>
      <trkpt lat="47.99502" lon="6.91365">
        <ele>918.5</ele>
        <time>2013-01-19T14:29:27.000Z</time>
      </trkpt>
      <trkpt lat="47.99503" lon="6.91365">
        <ele>917.6</ele>
        <time>2013-01-19T14:29:28.000Z</time>
      </trkpt>
      <trkpt lat="47.99506" lon="6.91369">
        <ele>917.2</ele>
        <time>2013-01-19T14:29:33.000Z</time>
      </trkpt>
      <trkpt lat="47.99507" lon="6.91373">
        <ele>916.3</ele>
        <time>2013-01-19T14:29:34.000Z</time>
      </trkpt>
      <trkpt lat="47.9951" lon="6.91377">
        <ele>916</ele>
        <time>2013-01-19T14:29:37.000Z</time>
      </trkpt>
      <trkpt lat="47.9951" lon="6.91378">
        <ele>915.6</ele>
        <time>2013-01-19T14:29:38.000Z</time>
      </trkpt>
      <trkpt lat="47.99514" lon="6.91377">
        <ele>914.9</ele>
        <time>2013-01-19T14:29:41.000Z</time>
      </trkpt>
      <trkpt lat="47.99515" lon="6.91376">
        <ele>914.5</ele>
        <time>2013-01-19T14:29:43.000Z</time>
      </trkpt>
      <trkpt lat="47.99518" lon="6.9138">
        <ele>915.3</ele>
        <time>2013-01-19T14:29:47.000Z</time>
      </trkpt>
      <trkpt lat="47.9952" lon="6.91379">
        <ele>915.1</ele>
        <time>2013-01-19T14:29:48.000Z</time>
      </trkpt>
      <trkpt lat="47.99521" lon="6.91381">
        <ele>913.3</ele>
        <time>2013-01-19T14:29:59.000Z</time>
      </trkpt>
      <trkpt lat="47.99523" lon="6.91384">
        <ele>912.3</ele>
        <time>2013-01-19T14:30:00.000Z</time>
      </trkpt>
      <trkpt lat="47.99526" lon="6.91388">
        <ele>905.7</ele>
        <time>2013-01-19T14:30:06.000Z</time>
      </trkpt>
      <trkpt lat="47.9953" lon="6.91389">
        <ele>901.4</ele>
        <time>2013-01-19T14:30:07.000Z</time>
      </trkpt>
      <trkpt lat="47.99533" lon="6.91388">
        <ele>896.5</ele>
        <time>2013-01-19T14:30:11.000Z</time>
      </trkpt>
      <trkpt lat="47.99534" lon="6.91389">
        <ele>897.2</ele>
        <time>2013-01-19T14:30:12.000Z</time>
      </trkpt>
      <trkpt lat="47.99538" lon="6.9139">
        <ele>895.5</ele>
        <time>2013-01-19T14:30:27.000Z</time>
      </trkpt>
      <trkpt lat="47.99539" lon="6.9139">
        <ele>895.6</ele>
        <time>2013-01-19T14:30:28.000Z</time>
      </trkpt>
      <trkpt lat="47.99543" lon="6.91391">
        <ele>895.3</ele>
        <time>2013-01-19T14:30:32.000Z</time>
      </trkpt>
      <trkpt lat="47.99544" lon="6.91393">
        <ele>895.1</ele>
        <time>2013-01-19T14:30:33.000Z</time>
      </trkpt>
      <trkpt lat="47.99548" lon="6.91396">
        <ele>894.8</ele>
        <time>2013-01-19T14:30:36.000Z</time>
      </trkpt>
      <trkpt lat="47.99549" lon="6.91396">
        <ele>895.1</ele>
        <time>2013-01-19T14:30:37.000Z</time>
      </trkpt>
      <trkpt lat="47.99553" lon="6.91398">
        <ele>892.6</ele>
        <time>2013-01-19T14:30:41.000Z</time>
      </trkpt>
      <trkpt lat="47.99553" lon="6.91399">
        <ele>893.2</ele>
        <time>2013-01-19T14:30:42.000Z</time>
      </trkpt>
      <trkpt lat="47.99556" lon="6.91401">
        <ele>892.5</ele>
        <time>2013-01-19T14:30:51.000Z</time>
      </trkpt>
      <trkpt lat="47.99558" lon="6.91399">
        <ele>892.4</ele>
        <time>2013-01-19T14:30:52.000Z</time>
      </trkpt>
      <trkpt lat="47.99558" lon="6.91405">
        <ele>892.9</ele>
        <time>2013-01-19T14:30:56.000Z</time>
      </trkpt>
      <trkpt lat="47.9956" lon="6.91406">
        <ele>892.3</ele>
        <time>2013-01-19T14:30:57.000Z</time>
      </trkpt>
      <trkpt lat="47.99562" lon="6.91408">
        <ele>891.6</ele>
        <time>2013-01-19T14:30:58.000Z</time>
      </trkpt>
      <trkpt lat="47.99565" lon="6.91411">
        <ele>890</ele>
        <time>2013-01-19T14:30:59.000Z</time>
      </trkpt>
      <trkpt lat="47.99568" lon="6.91413">
        <ele>889.3</ele>
        <time>2013-01-19T14:31:02.000Z</time>
      </trkpt>
      <trkpt lat="47.99569" lon="6.91414">
        <ele>888.9</ele>
        <time>2013-01-19T14:31:03.000Z</time>
      </trkpt>
      <trkpt lat="47.99573" lon="6.91413">
        <ele>888.2</ele>
        <time>2013-01-19T14:31:06.000Z</time>
      </trkpt>
      <trkpt lat="47.99574" lon="6.91413">
        <ele>888.6</ele>
        <time>2013-01-19T14:31:07.000Z</time>
      </trkpt>
      <trkpt lat="47.99578" lon="6.91416">
        <ele>888.7</ele>
        <time>2013-01-19T14:31:13.000Z</time>
      </trkpt>
      <trkpt lat="47.99578" lon="6.91418">
        <ele>889.1</ele>
        <time>2013-01-19T14:31:14.000Z</time>
      </trkpt>
      <trkpt lat="47.9958" lon="6.91418">
        <ele>888.8</ele>
        <time>2013-01-19T14:31:17.000Z</time>
      </trkpt>
      <trkpt lat="47.99582" lon="6.91416">
        <ele>889</ele>
        <time>2013-01-19T14:31:18.000Z</time>
      </trkpt>
      <trkpt lat="47.99587" lon="6.91415">
        <ele>889.4</ele>
        <time>2013-01-19T14:31:22.000Z</time>
      </trkpt>
      <trkpt lat="47.99588" lon="6.91414">
        <ele>888.9</ele>
        <time>2013-01-19T14:31:23.000Z</time>
      </trkpt>
      <trkpt lat="47.9959" lon="6.91419">
        <ele>888.1</ele>
        <time>2013-01-19T14:31:28.000Z</time>
      </trkpt>
      <trkpt lat="47.99592" lon="6.9142">
        <ele>887.7</ele>
        <time>2013-01-19T14:31:29.000Z</time>
      </trkpt>
      <trkpt lat="47.99595" lon="6.91415">
        <ele>886.9</ele>
        <time>2013-01-19T14:31:40.000Z</time>
      </trkpt>
      <trkpt lat="47.99596" lon="6.91413">
        <ele>886.4</ele>
        <time>2013-01-19T14:31:41.000Z</time>
      </trkpt>
      <trkpt lat="47.996" lon="6.91415">
        <ele>886.8</ele>
        <time>2013-01-19T14:31:48.000Z</time>
      </trkpt>
      <trkpt lat="47.99601" lon="6.91416">
        <ele>886.9</ele>
        <time>2013-01-19T14:31:49.000Z</time>
      </trkpt>
      <trkpt lat="47.99602" lon="6.91421">
        <ele>887.9</ele>
        <time>2013-01-19T14:31:51.000Z</time>
      </trkpt>
      <trkpt lat="47.99604" lon="6.91424">
        <ele>887.4</ele>
        <time>2013-01-19T14:31:52.000Z</time>
      </trkpt>
      <trkpt lat="47.99607" lon="6.91426">
        <ele>887.8</ele>
        <time>2013-01-19T14:32:00.000Z</time>
      </trkpt>
      <trkpt lat="47.99608" lon="6.91425">
        <ele>887.6</ele>
        <time>2013-01-19T14:32:01.000Z</time>
      </trkpt>
      <trkpt lat="47.99611" lon="6.91428">
        <ele>887.5</ele>
        <time>2013-01-19T14:32:07.000Z</time>
      </trkpt>
      <trkpt lat="47.9961" lon="6.91433">
        <ele>888</ele>
        <time>2013-01-19T14:32:08.000Z</time>
      </trkpt>
      <trkpt lat="47.99611" lon="6.91438">
        <ele>889.1</ele>
        <time>2013-01-19T14:32:09.000Z</time>
      </trkpt>
      <trkpt lat="47.99611" lon="6.9144">
        <ele>889.7</ele>
        <time>2013-01-19T14:32:10.000Z</time>
      </trkpt>
      <trkpt lat="47.99616" lon="6.91439">
        <ele>889.5</ele>
        <time>2013-01-19T14:32:15.000Z</time>
      </trkpt>
      <trkpt lat="47.99617" lon="6.91438">
        <ele>889.6</ele>
        <time>2013-01-19T14:32:16.000Z</time>
      </trkpt>
      <trkpt lat="47.99621" lon="6.91438">
        <ele>888.9</ele>
        <time>2013-01-19T14:32:21.000Z</time>
      </trkpt>
      <trkpt lat="47.99622" lon="6.91436">
        <ele>888.6</ele>
        <time>2013-01-19T14:32:22.000Z</time>
      </trkpt>
      <trkpt lat="47.99625" lon="6.91433">
        <ele>889.2</ele>
        <time>2013-01-19T14:32:25.000Z</time>
      </trkpt>
      <trkpt lat="47.99626" lon="6.91431">
        <ele>889</ele>
        <time>2013-01-19T14:32:26.000Z</time>
      </trkpt>
      <trkpt lat="47.9963" lon="6.91432">
        <ele>889.1</ele>
        <time>2013-01-19T14:32:31.000Z</time>
      </trkpt>
      <trkpt lat="47.99634" lon="6.91434">
        <ele>889.4</ele>
        <time>2013-01-19T14:32:32.000Z</time>
      </trkpt>
      <trkpt lat="47.99635" lon="6.91437">
        <ele>887.7</ele>
        <time>2013-01-19T14:32:35.000Z</time>
      </trkpt>
      <trkpt lat="47.99638" lon="6.91441">
        <ele>887.6</ele>
        <time>2013-01-19T14:32:36.000Z</time>
      </trkpt>
      <trkpt lat="47.99639" lon="6.91446">
        <ele>885.4</ele>
        <time>2013-01-19T14:32:44.000Z</time>
      </trkpt>
      <trkpt lat="47.99639" lon="6.9145">
        <ele>886.2</ele>
        <time>2013-01-19T14:32:45.000Z</time>
      </trkpt>
      <trkpt lat="47.99642" lon="6.91445">
        <ele>889.7</ele>
        <time>2013-01-19T14:32:55.000Z</time>
      </trkpt>
      <trkpt lat="47.99643" lon="6.91445">
        <ele>891.2</ele>
        <time>2013-01-19T14:32:56.000Z</time>
      </trkpt>
      <trkpt lat="47.99647" lon="6.91448">
        <ele>890.4</ele>
        <time>2013-01-19T14:32:58.000Z</time>
      </trkpt>
      <trkpt lat="47.99648" lon="6.91447">
        <ele>890.4</ele>
        <time>2013-01-19T14:32:59.000Z</time>
      </trkpt>
      <trkpt lat="47.9965" lon="6.91453">
        <ele>890.9</ele>
        <time>2013-01-19T14:33:04.000Z</time>
      </trkpt>
      <trkpt lat="47.9965" lon="6.91456">
        <ele>892.3</ele>
        <time>2013-01-19T14:33:05.000Z</time>
      </trkpt>
      <trkpt lat="47.99647" lon="6.9146">
        <ele>892.5</ele>
        <time>2013-01-19T14:33:10.000Z</time>
      </trkpt>
      <trkpt lat="47.99647" lon="6.91462">
        <ele>892.5</ele>
        <time>2013-01-19T14:33:11.000Z</time>
      </trkpt>
      <trkpt lat="47.99646" lon="6.91467">
        <ele>893.3</ele>
        <time>2013-01-19T14:33:15.000Z</time>
      </trkpt>
      <trkpt lat="47.99646" lon="6.91468">
        <ele>893.1</ele>
        <time>2013-01-19T14:33:16.000Z</time>
      </trkpt>
      <trkpt lat="47.99644" lon="6.9147">
        <ele>892.2</ele>
        <time>2013-01-19T14:33:21.000Z</time>
      </trkpt>
      <trkpt lat="47.99641" lon="6.9147">
        <ele>892.4</ele>
        <time>2013-01-19T14:33:22.000Z</time>
      </trkpt>
      <trkpt lat="47.99643" lon="6.91467">
        <ele>892</ele>
        <time>2013-01-19T14:33:27.000Z</time>
      </trkpt>
      <trkpt lat="47.99645" lon="6.91465">
        <ele>892.3</ele>
        <time>2013-01-19T14:33:28.000Z</time>
      </trkpt>
      <trkpt lat="47.99645" lon="6.91459">
        <ele>891.6</ele>
        <time>2013-01-19T14:33:33.000Z</time>
      </trkpt>
      <trkpt lat="47.99645" lon="6.91459">
        <ele>892</ele>
        <time>2013-01-19T14:33:34.000Z</time>
      </trkpt>
      <trkpt lat="47.99648" lon="6.91454">
        <ele>890.6</ele>
        <time>2013-01-19T14:33:38.000Z</time>
      </trkpt>
      <trkpt lat="47.99648" lon="6.91453">
        <ele>891.1</ele>
        <time>2013-01-19T14:33:39.000Z</time>
      </trkpt>
      <trkpt lat="47.99652" lon="6.91451">
        <ele>893</ele>
        <time>2013-01-19T14:33:53.000Z</time>
      </trkpt>
      <trkpt lat="47.99653" lon="6.91451">
        <ele>893.1</ele>
        <time>2013-01-19T14:33:54.000Z</time>
      </trkpt>
      <trkpt lat="47.99658" lon="6.9145">
        <ele>893.3</ele>
        <time>2013-01-19T14:34:08.000Z</time>
      </trkpt>
      <trkpt lat="47.99658" lon="6.9145">
        <ele>893.3</ele>
        <time>2013-01-19T14:34:09.000Z</time>
      </trkpt>
      <trkpt lat="47.99657" lon="6.91451">
        <ele>893.5</ele>
        <time>2013-01-19T14:42:17.000Z</time>
      </trkpt>
      <trkpt lat="47.99653" lon="6.91451">
        <ele>893.4</ele>
        <time>2013-01-19T14:42:18.000Z</time>
      </trkpt>
      <trkpt lat="47.99652" lon="6.91449">
        <ele>893.6</ele>
        <time>2013-01-19T14:42:19.000Z</time>
      </trkpt>
      <trkpt lat="47.99647" lon="6.91449">
        <ele>892.5</ele>
        <time>2013-01-19T14:42:20.000Z</time>
      </trkpt>
      <trkpt lat="47.99644" lon="6.91446">
        <ele>892.5</ele>
        <time>2013-01-19T14:42:22.000Z</time>
      </trkpt>
      <trkpt lat="47.99641" lon="6.91445">
        <ele>891.8</ele>
        <time>2013-01-19T14:42:23.000Z</time>
      </trkpt>
      <trkpt lat="47.99638" lon="6.91445">
        <ele>891.2</ele>
        <time>2013-01-19T14:42:24.000Z</time>
      </trkpt>
      <trkpt lat="47.99636" lon="6.91445">
        <ele>890.9</ele>
        <time>2013-01-19T14:42:25.000Z</time>
      </trkpt>
      <trkpt lat="47.99632" lon="6.91445">
        <ele>891.5</ele>
        <time>2013-01-19T14:42:26.000Z</time>
      </trkpt>
      <trkpt lat="47.99625" lon="6.91444">
        <ele>892.2</ele>
        <time>2013-01-19T14:42:27.000Z</time>
      </trkpt>
      <trkpt lat="47.99621" lon="6.91443">
        <ele>892.9</ele>
        <time>2013-01-19T14:42:28.000Z</time>
      </trkpt>
      <trkpt lat="47.99618" lon="6.91443">
        <ele>892.8</ele>
        <time>2013-01-19T14:42:29.000Z</time>
      </trkpt>
      <trkpt lat="47.99615" lon="6.9144">
        <ele>893</ele>
        <time>2013-01-19T14:42:31.000Z</time>
      </trkpt>
      <trkpt lat="47.99612" lon="6.91437">
        <ele>893</ele>
        <time>2013-01-19T14:42:32.000Z</time>
      </trkpt>
      <trkpt lat="47.99608" lon="6.91436">
        <ele>891</ele>
        <time>2013-01-19T14:42:38.000Z</time>
      </trkpt>
      <trkpt lat="47.99607" lon="6.91437">
        <ele>890.8</ele>
        <time>2013-01-19T14:42:39.000Z</time>
      </trkpt>
      <trkpt lat="47.99603" lon="6.91437">
        <ele>890.7</ele>
        <time>2013-01-19T14:42:49.000Z</time>
      </trkpt>
      <trkpt lat="47.99602" lon="6.91437">
        <ele>890.4</ele>
        <time>2013-01-19T14:42:50.000Z</time>
      </trkpt>
      <trkpt lat="47.996" lon="6.91433">
        <ele>889.4</ele>
        <time>2013-01-19T14:42:57.000Z</time>
      </trkpt>
      <trkpt lat="47.99598" lon="6.91433">
        <ele>890.3</ele>
        <time>2013-01-19T14:42:58.000Z</time>
      </trkpt>
      <trkpt lat="47.99597" lon="6.91434">
        <ele>890.2</ele>
        <time>2013-01-19T14:43:03.000Z</time>
      </trkpt>
      <trkpt lat="47.99592" lon="6.91434">
        <ele>890.1</ele>
        <time>2013-01-19T14:43:04.000Z</time>
      </trkpt>
      <trkpt lat="47.99592" lon="6.91429">
        <ele>890.4</ele>
        <time>2013-01-19T14:43:07.000Z</time>
      </trkpt>
      <trkpt lat="47.99591" lon="6.91426">
        <ele>889.6</ele>
        <time>2013-01-19T14:43:08.000Z</time>
      </trkpt>
      <trkpt lat="47.99591" lon="6.91424">
        <ele>888.8</ele>
        <time>2013-01-19T14:43:10.000Z</time>
      </trkpt>
      <trkpt lat="47.99588" lon="6.91421">
        <ele>887.7</ele>
        <time>2013-01-19T14:43:11.000Z</time>
      </trkpt>
      <trkpt lat="47.99585" lon="6.91418">
        <ele>888.6</ele>
        <time>2013-01-19T14:43:14.000Z</time>
      </trkpt>
      <trkpt lat="47.99581" lon="6.91421">
        <ele>890.1</ele>
        <time>2013-01-19T14:43:15.000Z</time>
      </trkpt>
      <trkpt lat="47.99577" lon="6.91422">
        <ele>891.2</ele>
        <time>2013-01-19T14:43:22.000Z</time>
      </trkpt>
      <trkpt lat="47.99575" lon="6.91421">
        <ele>891</ele>
        <time>2013-01-19T14:43:23.000Z</time>
      </trkpt>
      <trkpt lat="47.99572" lon="6.91417">
        <ele>893.1</ele>
        <time>2013-01-19T14:43:29.000Z</time>
      </trkpt>
      <trkpt lat="47.9957" lon="6.91416">
        <ele>893.2</ele>
        <time>2013-01-19T14:43:30.000Z</time>
      </trkpt>
      <trkpt lat="47.99567" lon="6.91414">
        <ele>892.4</ele>
        <time>2013-01-19T14:43:34.000Z</time>
      </trkpt>
      <trkpt lat="47.99565" lon="6.91413">
        <ele>892.3</ele>
        <time>2013-01-19T14:43:35.000Z</time>
      </trkpt>
      <trkpt lat="47.99561" lon="6.91412">
        <ele>893.5</ele>
        <time>2013-01-19T14:43:38.000Z</time>
      </trkpt>
      <trkpt lat="47.9956" lon="6.91412">
        <ele>893.4</ele>
        <time>2013-01-19T14:43:39.000Z</time>
      </trkpt>
      <trkpt lat="47.99556" lon="6.91409">
        <ele>892.5</ele>
        <time>2013-01-19T14:43:46.000Z</time>
      </trkpt>
      <trkpt lat="47.99556" lon="6.91408">
        <ele>893.6</ele>
        <time>2013-01-19T14:43:47.000Z</time>
      </trkpt>
      <trkpt lat="47.99554" lon="6.91405">
        <ele>896.3</ele>
        <time>2013-01-19T14:43:54.000Z</time>
      </trkpt>
      <trkpt lat="47.99553" lon="6.91402">
        <ele>896.6</ele>
        <time>2013-01-19T14:43:55.000Z</time>
      </trkpt>
      <trkpt lat="47.99555" lon="6.91401">
        <ele>897</ele>
        <time>2013-01-19T14:44:02.000Z</time>
      </trkpt>
      <trkpt lat="47.99556" lon="6.91395">
        <ele>896.3</ele>
        <time>2013-01-19T14:44:03.000Z</time>
      </trkpt>
      <trkpt lat="47.99552" lon="6.91398">
        <ele>896.7</ele>
        <time>2013-01-19T14:44:04.000Z</time>
      </trkpt>
      <trkpt lat="47.99548" lon="6.91397">
        <ele>897</ele>
        <time>2013-01-19T14:44:06.000Z</time>
      </trkpt>
      <trkpt lat="47.99545" lon="6.91397">
        <ele>896.3</ele>
        <time>2013-01-19T14:44:07.000Z</time>
      </trkpt>
      <trkpt lat="47.99548" lon="6.91391">
        <ele>896.2</ele>
        <time>2013-01-19T14:44:11.000Z</time>
      </trkpt>
      <trkpt lat="47.99548" lon="6.91391">
        <ele>895.8</ele>
        <time>2013-01-19T14:44:12.000Z</time>
      </trkpt>
      <trkpt lat="47.99544" lon="6.91392">
        <ele>897.3</ele>
        <time>2013-01-19T14:44:16.000Z</time>
      </trkpt>
      <trkpt lat="47.99541" lon="6.91393">
        <ele>897.3</ele>
        <time>2013-01-19T14:44:17.000Z</time>
      </trkpt>
      <trkpt lat="47.99538" lon="6.91396">
        <ele>899.4</ele>
        <time>2013-01-19T14:44:19.000Z</time>
      </trkpt>
      <trkpt lat="47.99537" lon="6.91398">
        <ele>899.5</ele>
        <time>2013-01-19T14:44:20.000Z</time>
      </trkpt>
      <trkpt lat="47.99533" lon="6.91397">
        <ele>900.5</ele>
        <time>2013-01-19T14:44:25.000Z</time>
      </trkpt>
      <trkpt lat="47.99532" lon="6.91398">
        <ele>901.6</ele>
        <time>2013-01-19T14:44:26.000Z</time>
      </trkpt>
      <trkpt lat="47.99528" lon="6.91397">
        <ele>902.8</ele>
        <time>2013-01-19T14:44:31.000Z</time>
      </trkpt>
      <trkpt lat="47.99525" lon="6.91399">
        <ele>905</ele>
        <time>2013-01-19T14:44:32.000Z</time>
      </trkpt>
      <trkpt lat="47.99521" lon="6.91397">
        <ele>904.2</ele>
        <time>2013-01-19T14:44:40.000Z</time>
      </trkpt>
      <trkpt lat="47.9952" lon="6.91395">
        <ele>904.2</ele>
        <time>2013-01-19T14:44:41.000Z</time>
      </trkpt>
      <trkpt lat="47.99517" lon="6.9139">
        <ele>905.9</ele>
        <time>2013-01-19T14:44:52.000Z</time>
      </trkpt>
      <trkpt lat="47.99517" lon="6.91389">
        <ele>907.1</ele>
        <time>2013-01-19T14:44:53.000Z</time>
      </trkpt>
      <trkpt lat="47.99516" lon="6.91385">
        <ele>908.9</ele>
        <time>2013-01-19T14:45:02.000Z</time>
      </trkpt>
      <trkpt lat="47.99516" lon="6.91382">
        <ele>908.8</ele>
        <time>2013-01-19T14:45:03.000Z</time>
      </trkpt>
      <trkpt lat="47.99514" lon="6.9138">
        <ele>907.8</ele>
        <time>2013-01-19T14:45:05.000Z</time>
      </trkpt>
      <trkpt lat="47.99512" lon="6.91378">
        <ele>907.8</ele>
        <time>2013-01-19T14:45:06.000Z</time>
      </trkpt>
      <trkpt lat="47.99509" lon="6.91375">
        <ele>908.7</ele>
        <time>2013-01-19T14:45:12.000Z</time>
      </trkpt>
      <trkpt lat="47.99507" lon="6.91376">
        <ele>908.7</ele>
        <time>2013-01-19T14:45:13.000Z</time>
      </trkpt>
      <trkpt lat="47.99506" lon="6.91372">
        <ele>908.5</ele>
        <time>2013-01-19T14:45:18.000Z</time>
      </trkpt>
      <trkpt lat="47.99507" lon="6.91369">
        <ele>908.5</ele>
        <time>2013-01-19T14:45:19.000Z</time>
      </trkpt>
      <trkpt lat="47.99503" lon="6.91368">
        <ele>908.8</ele>
        <time>2013-01-19T14:45:21.000Z</time>
      </trkpt>
      <trkpt lat="47.99502" lon="6.91367">
        <ele>909.1</ele>
        <time>2013-01-19T14:45:22.000Z</time>
      </trkpt>
      <trkpt lat="47.995" lon="6.91364">
        <ele>908.2</ele>
        <time>2013-01-19T14:45:24.000Z</time>
      </trkpt>
      <trkpt lat="47.995" lon="6.91362">
        <ele>907.5</ele>
        <time>2013-01-19T14:45:25.000Z</time>
      </trkpt>
      <trkpt lat="47.99496" lon="6.91359">
        <ele>906.8</ele>
        <time>2013-01-19T14:45:29.000Z</time>
      </trkpt>
      <trkpt lat="47.99494" lon="6.9136">
        <ele>908.1</ele>
        <time>2013-01-19T14:45:30.000Z</time>
      </trkpt>
      <trkpt lat="47.99492" lon="6.91363">
        <ele>908.2</ele>
        <time>2013-01-19T14:45:36.000Z</time>
      </trkpt>
      <trkpt lat="47.9949" lon="6.91363">
        <ele>908.2</ele>
        <time>2013-01-19T14:45:37.000Z</time>
      </trkpt>
      <trkpt lat="47.99486" lon="6.91363">
        <ele>908.3</ele>
        <time>2013-01-19T14:45:43.000Z</time>
      </trkpt>
      <trkpt lat="47.99485" lon="6.91361">
        <ele>908.2</ele>
        <time>2013-01-19T14:45:44.000Z</time>
      </trkpt>
      <trkpt lat="47.99482" lon="6.91362">
        <ele>907.8</ele>
        <time>2013-01-19T14:45:47.000Z</time>
      </trkpt>
      <trkpt lat="47.9948" lon="6.91365">
        <ele>907.6</ele>
        <time>2013-01-19T14:45:48.000Z</time>
      </trkpt>
      <trkpt lat="47.99476" lon="6.91364">
        <ele>907.5</ele>
        <time>2013-01-19T14:45:57.000Z</time>
      </trkpt>
      <trkpt lat="47.99476" lon="6.91362">
        <ele>907.6</ele>
        <time>2013-01-19T14:45:58.000Z</time>
      </trkpt>
      <trkpt lat="47.99472" lon="6.91364">
        <ele>909.1</ele>
        <time>2013-01-19T14:46:01.000Z</time>
      </trkpt>
      <trkpt lat="47.99471" lon="6.91364">
        <ele>908.7</ele>
        <time>2013-01-19T14:46:02.000Z</time>
      </trkpt>
      <trkpt lat="47.99466" lon="6.91363">
        <ele>908.8</ele>
        <time>2013-01-19T14:46:06.000Z</time>
      </trkpt>
      <trkpt lat="47.99466" lon="6.9136">
        <ele>909.8</ele>
        <time>2013-01-19T14:46:07.000Z</time>
      </trkpt>
      <trkpt lat="47.99466" lon="6.91356">
        <ele>909.8</ele>
        <time>2013-01-19T14:46:09.000Z</time>
      </trkpt>
      <trkpt lat="47.99466" lon="6.91353">
        <ele>909.2</ele>
        <time>2013-01-19T14:46:10.000Z</time>
      </trkpt>
      <trkpt lat="47.99462" lon="6.91354">
        <ele>908.4</ele>
        <time>2013-01-19T14:46:13.000Z</time>
      </trkpt>
      <trkpt lat="47.99461" lon="6.91353">
        <ele>908</ele>
        <time>2013-01-19T14:46:14.000Z</time>
      </trkpt>
      <trkpt lat="47.99457" lon="6.91351">
        <ele>908</ele>
        <time>2013-01-19T14:46:20.000Z</time>
      </trkpt>
      <trkpt lat="47.99456" lon="6.91351">
        <ele>908.4</ele>
        <time>2013-01-19T14:46:21.000Z</time>
      </trkpt>
      <trkpt lat="47.99454" lon="6.91356">
        <ele>907.2</ele>
        <time>2013-01-19T14:46:22.000Z</time>
      </trkpt>
      <trkpt lat="47.99452" lon="6.91355">
        <ele>906.1</ele>
        <time>2013-01-19T14:46:23.000Z</time>
      </trkpt>
      <trkpt lat="47.99448" lon="6.91356">
        <ele>905.9</ele>
        <time>2013-01-19T14:46:27.000Z</time>
      </trkpt>
      <trkpt lat="47.99447" lon="6.91357">
        <ele>904.3</ele>
        <time>2013-01-19T14:46:28.000Z</time>
      </trkpt>
      <trkpt lat="47.99444" lon="6.91353">
        <ele>905.3</ele>
        <time>2013-01-19T14:46:37.000Z</time>
      </trkpt>
      <trkpt lat="47.99442" lon="6.91353">
        <ele>905.1</ele>
        <time>2013-01-19T14:46:38.000Z</time>
      </trkpt>
      <trkpt lat="47.99438" lon="6.91353">
        <ele>903.3</ele>
        <time>2013-01-19T14:46:43.000Z</time>
      </trkpt>
      <trkpt lat="47.99438" lon="6.91354">
        <ele>904.3</ele>
        <time>2013-01-19T14:46:44.000Z</time>
      </trkpt>
      <trkpt lat="47.99436" lon="6.91354">
        <ele>903.8</ele>
        <time>2013-01-19T14:46:49.000Z</time>
      </trkpt>
      <trkpt lat="47.99433" lon="6.91357">
        <ele>904.2</ele>
        <time>2013-01-19T14:46:50.000Z</time>
      </trkpt>
      <trkpt lat="47.99431" lon="6.91361">
        <ele>905.7</ele>
        <time>2013-01-19T14:46:56.000Z</time>
      </trkpt>
      <trkpt lat="47.99429" lon="6.91363">
        <ele>905.7</ele>
        <time>2013-01-19T14:46:57.000Z</time>
      </trkpt>
      <trkpt lat="47.99425" lon="6.91364">
        <ele>908.3</ele>
        <time>2013-01-19T14:47:06.000Z</time>
      </trkpt>
      <trkpt lat="47.99424" lon="6.91364">
        <ele>908.3</ele>
        <time>2013-01-19T14:47:07.000Z</time>
      </trkpt>
      <trkpt lat="47.9942" lon="6.91363">
        <ele>908.5</ele>
        <time>2013-01-19T14:47:11.000Z</time>
      </trkpt>
      <trkpt lat="47.99417" lon="6.91365">
        <ele>907.2</ele>
        <time>2013-01-19T14:47:12.000Z</time>
      </trkpt>
      <trkpt lat="47.99415" lon="6.91362">
        <ele>907.2</ele>
        <time>2013-01-19T14:47:19.000Z</time>
      </trkpt>
      <trkpt lat="47.99413" lon="6.91365">
        <ele>908.5</ele>
        <time>2013-01-19T14:47:20.000Z</time>
      </trkpt>
      <trkpt lat="47.9941" lon="6.9137">
        <ele>906.7</ele>
        <time>2013-01-19T14:47:26.000Z</time>
      </trkpt>
      <trkpt lat="47.99407" lon="6.91373">
        <ele>906.8</ele>
        <time>2013-01-19T14:47:27.000Z</time>
      </trkpt>
      <trkpt lat="47.99404" lon="6.91369">
        <ele>903.4</ele>
        <time>2013-01-19T14:47:32.000Z</time>
      </trkpt>
      <trkpt lat="47.99403" lon="6.91368">
        <ele>904.1</ele>
        <time>2013-01-19T14:47:33.000Z</time>
      </trkpt>
      <trkpt lat="47.994" lon="6.9137">
        <ele>903.3</ele>
        <time>2013-01-19T14:47:36.000Z</time>
      </trkpt>
      <trkpt lat="47.99398" lon="6.91371">
        <ele>902.7</ele>
        <time>2013-01-19T14:47:37.000Z</time>
      </trkpt>
      <trkpt lat="47.99397" lon="6.91377">
        <ele>903.8</ele>
        <time>2013-01-19T14:47:41.000Z</time>
      </trkpt>
      <trkpt lat="47.99395" lon="6.91377">
        <ele>903.6</ele>
        <time>2013-01-19T14:47:42.000Z</time>
      </trkpt>
      <trkpt lat="47.99392" lon="6.91376">
        <ele>903</ele>
        <time>2013-01-19T14:47:52.000Z</time>
      </trkpt>
      <trkpt lat="47.99391" lon="6.91378">
        <ele>903.2</ele>
        <time>2013-01-19T14:47:53.000Z</time>
      </trkpt>
      <trkpt lat="47.99389" lon="6.91382">
        <ele>901.5</ele>
        <time>2013-01-19T14:47:58.000Z</time>
      </trkpt>
      <trkpt lat="47.99388" lon="6.91385">
        <ele>901.6</ele>
        <time>2013-01-19T14:47:59.000Z</time>
      </trkpt>
      <trkpt lat="47.99389" lon="6.91391">
        <ele>900.9</ele>
        <time>2013-01-19T14:48:06.000Z</time>
      </trkpt>
      <trkpt lat="47.99389" lon="6.91391">
        <ele>900.7</ele>
        <time>2013-01-19T14:48:07.000Z</time>
      </trkpt>
      <trkpt lat="47.99386" lon="6.91395">
        <ele>902.5</ele>
        <time>2013-01-19T14:48:14.000Z</time>
      </trkpt>
      <trkpt lat="47.99384" lon="6.91397">
        <ele>903</ele>
        <time>2013-01-19T14:48:15.000Z</time>
      </trkpt>
      <trkpt lat="47.99381" lon="6.91401">
        <ele>904.1</ele>
        <time>2013-01-19T14:48:21.000Z</time>
      </trkpt>
      <trkpt lat="47.99379" lon="6.91403">
        <ele>903.8</ele>
        <time>2013-01-19T14:48:22.000Z</time>
      </trkpt>
      <trkpt lat="47.99377" lon="6.91406">
        <ele>902.6</ele>
        <time>2013-01-19T14:48:31.000Z</time>
      </trkpt>
      <trkpt lat="47.99376" lon="6.91408">
        <ele>903.5</ele>
        <time>2013-01-19T14:48:32.000Z</time>
      </trkpt>
      <trkpt lat="47.99373" lon="6.91412">
        <ele>903.1</ele>
        <time>2013-01-19T14:48:42.000Z</time>
      </trkpt>
      <trkpt lat="47.99373" lon="6.91413">
        <ele>904.1</ele>
        <time>2013-01-19T14:48:43.000Z</time>
      </trkpt>
      <trkpt lat="47.9937" lon="6.91418">
        <ele>904.2</ele>
        <time>2013-01-19T14:48:47.000Z</time>
      </trkpt>
      <trkpt lat="47.9937" lon="6.91419">
        <ele>904.6</ele>
        <time>2013-01-19T14:48:48.000Z</time>
      </trkpt>
      <trkpt lat="47.99371" lon="6.91425">
        <ele>904.4</ele>
        <time>2013-01-19T14:48:53.000Z</time>
      </trkpt>
      <trkpt lat="47.99371" lon="6.91426">
        <ele>904.8</ele>
        <time>2013-01-19T14:48:54.000Z</time>
      </trkpt>
      <trkpt lat="47.99369" lon="6.9143">
        <ele>904.6</ele>
        <time>2013-01-19T14:49:28.000Z</time>
      </trkpt>
      <trkpt lat="47.99367" lon="6.91433">
        <ele>904.1</ele>
        <time>2013-01-19T14:49:29.000Z</time>
      </trkpt>
      <trkpt lat="47.99366" lon="6.91436">
        <ele>904.7</ele>
        <time>2013-01-19T14:49:30.000Z</time>
      </trkpt>
      <trkpt lat="47.99364" lon="6.91441">
        <ele>904.6</ele>
        <time>2013-01-19T14:49:31.000Z</time>
      </trkpt>
      <trkpt lat="47.99362" lon="6.91443">
        <ele>904.1</ele>
        <time>2013-01-19T14:49:32.000Z</time>
      </trkpt>
      <trkpt lat="47.9936" lon="6.91446">
        <ele>903.1</ele>
        <time>2013-01-19T14:49:33.000Z</time>
      </trkpt>
      <trkpt lat="47.99358" lon="6.91451">
        <ele>904.2</ele>
        <time>2013-01-19T14:49:36.000Z</time>
      </trkpt>
      <trkpt lat="47.99357" lon="6.91453">
        <ele>904.3</ele>
        <time>2013-01-19T14:49:37.000Z</time>
      </trkpt>
      <trkpt lat="47.99354" lon="6.91456">
        <ele>904.6</ele>
        <time>2013-01-19T14:49:39.000Z</time>
      </trkpt>
      <trkpt lat="47.9935" lon="6.91457">
        <ele>903.7</ele>
        <time>2013-01-19T14:49:40.000Z</time>
      </trkpt>
      <trkpt lat="47.99348" lon="6.91461">
        <ele>903.7</ele>
        <time>2013-01-19T14:49:44.000Z</time>
      </trkpt>
      <trkpt lat="47.99346" lon="6.91463">
        <ele>904.4</ele>
        <time>2013-01-19T14:49:45.000Z</time>
      </trkpt>
      <trkpt lat="47.99343" lon="6.91467">
        <ele>903.9</ele>
        <time>2013-01-19T14:49:49.000Z</time>
      </trkpt>
      <trkpt lat="47.99341" lon="6.91468">
        <ele>903.2</ele>
        <time>2013-01-19T14:49:50.000Z</time>
      </trkpt>
      <trkpt lat="47.99339" lon="6.91474">
        <ele>902.3</ele>
        <time>2013-01-19T14:49:54.000Z</time>
      </trkpt>
      <trkpt lat="47.99339" lon="6.91475">
        <ele>903.9</ele>
        <time>2013-01-19T14:49:55.000Z</time>
      </trkpt>
      <trkpt lat="47.99336" lon="6.9148">
        <ele>903.4</ele>
        <time>2013-01-19T14:49:58.000Z</time>
      </trkpt>
      <trkpt lat="47.99335" lon="6.91482">
        <ele>904.1</ele>
        <time>2013-01-19T14:49:59.000Z</time>
      </trkpt>
      <trkpt lat="47.99336" lon="6.91486">
        <ele>903.8</ele>
        <time>2013-01-19T14:50:06.000Z</time>
      </trkpt>
      <trkpt lat="47.99335" lon="6.91489">
        <ele>903.1</ele>
        <time>2013-01-19T14:50:07.000Z</time>
      </trkpt>
      <trkpt lat="47.99334" lon="6.91493">
        <ele>902.6</ele>
        <time>2013-01-19T14:50:09.000Z</time>
      </trkpt>
      <trkpt lat="47.99334" lon="6.91496">
        <ele>902.2</ele>
        <time>2013-01-19T14:50:10.000Z</time>
      </trkpt>
      <trkpt lat="47.99334" lon="6.91501">
        <ele>902.3</ele>
        <time>2013-01-19T14:50:12.000Z</time>
      </trkpt>
      <trkpt lat="47.99327" lon="6.91503">
        <ele>901.6</ele>
        <time>2013-01-19T14:50:13.000Z</time>
      </trkpt>
      <trkpt lat="47.99327" lon="6.91508">
        <ele>902.3</ele>
        <time>2013-01-19T14:50:21.000Z</time>
      </trkpt>
      <trkpt lat="47.99327" lon="6.9151">
        <ele>901.9</ele>
        <time>2013-01-19T14:50:22.000Z</time>
      </trkpt>
      <trkpt lat="47.9933" lon="6.91515">
        <ele>901</ele>
        <time>2013-01-19T14:50:29.000Z</time>
      </trkpt>
      <trkpt lat="47.99329" lon="6.9152">
        <ele>900.9</ele>
        <time>2013-01-19T14:50:30.000Z</time>
      </trkpt>
      <trkpt lat="47.99328" lon="6.91525">
        <ele>902</ele>
        <time>2013-01-19T14:50:34.000Z</time>
      </trkpt>
      <trkpt lat="47.99328" lon="6.91529">
        <ele>902.9</ele>
        <time>2013-01-19T14:50:35.000Z</time>
      </trkpt>
      <trkpt lat="47.99331" lon="6.91533">
        <ele>904.5</ele>
        <time>2013-01-19T14:51:14.000Z</time>
      </trkpt>
      <trkpt lat="47.99331" lon="6.91538">
        <ele>905.2</ele>
        <time>2013-01-19T14:51:15.000Z</time>
      </trkpt>
      <trkpt lat="47.99332" lon="6.91546">
        <ele>905.2</ele>
        <time>2013-01-19T14:51:16.000Z</time>
      </trkpt>
      <trkpt lat="47.99336" lon="6.91547">
        <ele>904.5</ele>
        <time>2013-01-19T14:51:17.000Z</time>
      </trkpt>
      <trkpt lat="47.99339" lon="6.9155">
        <ele>902.8</ele>
        <time>2013-01-19T14:51:18.000Z</time>
      </trkpt>
      <trkpt lat="47.99338" lon="6.91555">
        <ele>902.3</ele>
        <time>2013-01-19T14:51:19.000Z</time>
      </trkpt>
      <trkpt lat="47.99341" lon="6.91557">
        <ele>903</ele>
        <time>2013-01-19T14:51:20.000Z</time>
      </trkpt>
      <trkpt lat="47.99341" lon="6.91562">
        <ele>902.2</ele>
        <time>2013-01-19T14:51:23.000Z</time>
      </trkpt>
      <trkpt lat="47.99341" lon="6.91565">
        <ele>902.4</ele>
        <time>2013-01-19T14:51:24.000Z</time>
      </trkpt>
      <trkpt lat="47.99343" lon="6.91569">
        <ele>903</ele>
        <time>2013-01-19T14:51:27.000Z</time>
      </trkpt>
      <trkpt lat="47.99343" lon="6.91571">
        <ele>902.1</ele>
        <time>2013-01-19T14:51:28.000Z</time>
      </trkpt>
      <trkpt lat="47.99343" lon="6.91576">
        <ele>901.4</ele>
        <time>2013-01-19T14:51:29.000Z</time>
      </trkpt>
      <trkpt lat="47.9934" lon="6.9158">
        <ele>900.8</ele>
        <time>2013-01-19T14:51:30.000Z</time>
      </trkpt>
      <trkpt lat="47.99343" lon="6.91583">
        <ele>899.9</ele>
        <time>2013-01-19T14:51:32.000Z</time>
      </trkpt>
      <trkpt lat="47.99342" lon="6.91585">
        <ele>899.5</ele>
        <time>2013-01-19T14:51:33.000Z</time>
      </trkpt>
      <trkpt lat="47.99342" lon="6.9159">
        <ele>900.1</ele>
        <time>2013-01-19T14:51:35.000Z</time>
      </trkpt>
      <trkpt lat="47.99341" lon="6.91592">
        <ele>900</ele>
        <time>2013-01-19T14:51:37.000Z</time>
      </trkpt>
      <trkpt lat="47.9934" lon="6.91595">
        <ele>899.3</ele>
        <time>2013-01-19T14:51:40.000Z</time>
      </trkpt>
      <trkpt lat="47.99337" lon="6.91597">
        <ele>898.8</ele>
        <time>2013-01-19T14:51:41.000Z</time>
      </trkpt>
      <trkpt lat="47.99337" lon="6.916">
        <ele>898.2</ele>
        <time>2013-01-19T14:51:42.000Z</time>
      </trkpt>
      <trkpt lat="47.99336" lon="6.91604">
        <ele>897.7</ele>
        <time>2013-01-19T14:51:43.000Z</time>
      </trkpt>
      <trkpt lat="47.99339" lon="6.91609">
        <ele>897.5</ele>
        <time>2013-01-19T14:51:47.000Z</time>
      </trkpt>
      <trkpt lat="47.99339" lon="6.91611">
        <ele>897.7</ele>
        <time>2013-01-19T14:51:48.000Z</time>
      </trkpt>
      <trkpt lat="47.99339" lon="6.91616">
        <ele>896.8</ele>
        <time>2013-01-19T14:51:51.000Z</time>
      </trkpt>
      <trkpt lat="47.99338" lon="6.91618">
        <ele>897</ele>
        <time>2013-01-19T14:51:52.000Z</time>
      </trkpt>
      <trkpt lat="47.99337" lon="6.91622">
        <ele>897.1</ele>
        <time>2013-01-19T14:51:55.000Z</time>
      </trkpt>
      <trkpt lat="47.99334" lon="6.91623">
        <ele>896.6</ele>
        <time>2013-01-19T14:51:56.000Z</time>
      </trkpt>
      <trkpt lat="47.99333" lon="6.91628">
        <ele>896.2</ele>
        <time>2013-01-19T14:52:01.000Z</time>
      </trkpt>
      <trkpt lat="47.99332" lon="6.91629">
        <ele>895.9</ele>
        <time>2013-01-19T14:52:03.000Z</time>
      </trkpt>
      <trkpt lat="47.99329" lon="6.91626">
        <ele>894.3</ele>
        <time>2013-01-19T14:52:06.000Z</time>
      </trkpt>
      <trkpt lat="47.99327" lon="6.91623">
        <ele>893</ele>
        <time>2013-01-19T14:52:07.000Z</time>
      </trkpt>
      <trkpt lat="47.99324" lon="6.91619">
        <ele>891.4</ele>
        <time>2013-01-19T14:52:10.000Z</time>
      </trkpt>
      <trkpt lat="47.99324" lon="6.91618">
        <ele>891.1</ele>
        <time>2013-01-19T14:52:11.000Z</time>
      </trkpt>
      <trkpt lat="47.99321" lon="6.91621">
        <ele>890</ele>
        <time>2013-01-19T14:56:45.000Z</time>
      </trkpt>
      <trkpt lat="47.9932" lon="6.91624">
        <ele>890.8</ele>
        <time>2013-01-19T14:56:46.000Z</time>
      </trkpt>
      <trkpt lat="47.99321" lon="6.91628">
        <ele>891.2</ele>
        <time>2013-01-19T14:56:47.000Z</time>
      </trkpt>
      <trkpt lat="47.9932" lon="6.91633">
        <ele>892.3</ele>
        <time>2013-01-19T14:56:48.000Z</time>
      </trkpt>
      <trkpt lat="47.99321" lon="6.91638">
        <ele>896.6</ele>
        <time>2013-01-19T14:56:51.000Z</time>
      </trkpt>
      <trkpt lat="47.99319" lon="6.9164">
        <ele>895.6</ele>
        <time>2013-01-19T14:56:52.000Z</time>
      </trkpt>
      <trkpt lat="47.99318" lon="6.91647">
        <ele>897.2</ele>
        <time>2013-01-19T14:56:56.000Z</time>
      </trkpt>
      <trkpt lat="47.99318" lon="6.91647">
        <ele>897.3</ele>
        <time>2013-01-19T14:56:57.000Z</time>
      </trkpt>
      <trkpt lat="47.99317" lon="6.91653">
        <ele>896.2</ele>
        <time>2013-01-19T14:57:19.000Z</time>
      </trkpt>
      <trkpt lat="47.99316" lon="6.91653">
        <ele>896.2</ele>
        <time>2013-01-19T14:57:20.000Z</time>
      </trkpt>
      <trkpt lat="47.99314" lon="6.91658">
        <ele>896.9</ele>
        <time>2013-01-19T14:57:24.000Z</time>
      </trkpt>
      <trkpt lat="47.99313" lon="6.91659">
        <ele>896.8</ele>
        <time>2013-01-19T14:57:25.000Z</time>
      </trkpt>
      <trkpt lat="47.99312" lon="6.91662">
        <ele>896.5</ele>
        <time>2013-01-19T14:57:33.000Z</time>
      </trkpt>
      <trkpt lat="47.99309" lon="6.91666">
        <ele>896.2</ele>
        <time>2013-01-19T14:57:34.000Z</time>
      </trkpt>
      <trkpt lat="47.99306" lon="6.91669">
        <ele>896.1</ele>
        <time>2013-01-19T14:57:35.000Z</time>
      </trkpt>
      <trkpt lat="47.99305" lon="6.91674">
        <ele>895.6</ele>
        <time>2013-01-19T14:57:36.000Z</time>
      </trkpt>
      <trkpt lat="47.99304" lon="6.91678">
        <ele>896.1</ele>
        <time>2013-01-19T14:57:38.000Z</time>
      </trkpt>
      <trkpt lat="47.99302" lon="6.91682">
        <ele>895.7</ele>
        <time>2013-01-19T14:57:39.000Z</time>
      </trkpt>
      <trkpt lat="47.99298" lon="6.91685">
        <ele>897</ele>
        <time>2013-01-19T14:57:43.000Z</time>
      </trkpt>
      <trkpt lat="47.99298" lon="6.91686">
        <ele>896.7</ele>
        <time>2013-01-19T14:57:44.000Z</time>
      </trkpt>
      <trkpt lat="47.99296" lon="6.91691">
        <ele>896.9</ele>
        <time>2013-01-19T14:57:47.000Z</time>
      </trkpt>
      <trkpt lat="47.99295" lon="6.91694">
        <ele>896.7</ele>
        <time>2013-01-19T14:57:48.000Z</time>
      </trkpt>
      <trkpt lat="47.99292" lon="6.91699">
        <ele>897.4</ele>
        <time>2013-01-19T14:57:54.000Z</time>
      </trkpt>
      <trkpt lat="47.99291" lon="6.917">
        <ele>897.9</ele>
        <time>2013-01-19T14:57:55.000Z</time>
      </trkpt>
      <trkpt lat="47.99292" lon="6.91702">
        <ele>897.8</ele>
        <time>2013-01-19T14:58:27.000Z</time>
      </trkpt>
      <trkpt lat="47.99297" lon="6.917">
        <ele>897.5</ele>
        <time>2013-01-19T14:58:28.000Z</time>
      </trkpt>
      <trkpt lat="47.99298" lon="6.91696">
        <ele>897.5</ele>
        <time>2013-01-19T14:58:29.000Z</time>
      </trkpt>
      <trkpt lat="47.993" lon="6.91695">
        <ele>898.2</ele>
        <time>2013-01-19T14:58:30.000Z</time>
      </trkpt>
      <trkpt lat="47.99302" lon="6.9169">
        <ele>898.9</ele>
        <time>2013-01-19T14:58:32.000Z</time>
      </trkpt>
      <trkpt lat="47.99304" lon="6.91689">
        <ele>897.5</ele>
        <time>2013-01-19T14:58:33.000Z</time>
      </trkpt>
      <trkpt lat="47.99307" lon="6.91684">
        <ele>898.3</ele>
        <time>2013-01-19T14:58:38.000Z</time>
      </trkpt>
      <trkpt lat="47.99307" lon="6.91683">
        <ele>897.1</ele>
        <time>2013-01-19T14:58:39.000Z</time>
      </trkpt>
      <trkpt lat="47.99311" lon="6.91684">
        <ele>898.6</ele>
        <time>2013-01-19T14:59:07.000Z</time>
      </trkpt>
      <trkpt lat="47.99315" lon="6.91681">
        <ele>899.7</ele>
        <time>2013-01-19T14:59:08.000Z</time>
      </trkpt>
      <trkpt lat="47.99318" lon="6.91678">
        <ele>900.7</ele>
        <time>2013-01-19T14:59:10.000Z</time>
      </trkpt>
      <trkpt lat="47.9932" lon="6.91676">
        <ele>900.9</ele>
        <time>2013-01-19T14:59:11.000Z</time>
      </trkpt>
      <trkpt lat="47.99323" lon="6.91673">
        <ele>900.9</ele>
        <time>2013-01-19T14:59:13.000Z</time>
      </trkpt>
      <trkpt lat="47.99323" lon="6.9167">
        <ele>899.9</ele>
        <time>2013-01-19T14:59:14.000Z</time>
      </trkpt>
      <trkpt lat="47.99326" lon="6.91665">
        <ele>898.7</ele>
        <time>2013-01-19T14:59:17.000Z</time>
      </trkpt>
      <trkpt lat="47.99327" lon="6.91664">
        <ele>898.6</ele>
        <time>2013-01-19T14:59:18.000Z</time>
      </trkpt>
      <trkpt lat="47.9933" lon="6.91663">
        <ele>897.1</ele>
        <time>2013-01-19T14:59:25.000Z</time>
      </trkpt>
      <trkpt lat="47.99331" lon="6.91663">
        <ele>897.2</ele>
        <time>2013-01-19T14:59:26.000Z</time>
      </trkpt>
      <trkpt lat="47.99335" lon="6.9166">
        <ele>894.9</ele>
        <time>2013-01-19T14:59:34.000Z</time>
      </trkpt>
      <trkpt lat="47.99335" lon="6.91658">
        <ele>894.5</ele>
        <time>2013-01-19T14:59:35.000Z</time>
      </trkpt>
      <trkpt lat="47.99338" lon="6.91657">
        <ele>891.6</ele>
        <time>2013-01-19T14:59:44.000Z</time>
      </trkpt>
      <trkpt lat="47.99339" lon="6.91655">
        <ele>891</ele>
        <time>2013-01-19T14:59:45.000Z</time>
      </trkpt>
      <trkpt lat="47.99342" lon="6.91651">
        <ele>890</ele>
        <time>2013-01-19T14:59:46.000Z</time>
      </trkpt>
      <trkpt lat="47.99344" lon="6.9165">
        <ele>889.3</ele>
        <time>2013-01-19T14:59:47.000Z</time>
      </trkpt>
      <trkpt lat="47.99345" lon="6.91645">
        <ele>888.1</ele>
        <time>2013-01-19T14:59:53.000Z</time>
      </trkpt>
      <trkpt lat="47.99346" lon="6.91643">
        <ele>888.8</ele>
        <time>2013-01-19T14:59:54.000Z</time>
      </trkpt>
      <trkpt lat="47.9935" lon="6.91642">
        <ele>887.4</ele>
        <time>2013-01-19T14:59:58.000Z</time>
      </trkpt>
      <trkpt lat="47.99351" lon="6.91641">
        <ele>886.7</ele>
        <time>2013-01-19T14:59:59.000Z</time>
      </trkpt>
      <trkpt lat="47.99354" lon="6.91643">
        <ele>885.5</ele>
        <time>2013-01-19T15:00:08.000Z</time>
      </trkpt>
      <trkpt lat="47.99355" lon="6.91644">
        <ele>885.7</ele>
        <time>2013-01-19T15:00:09.000Z</time>
      </trkpt>
      <trkpt lat="47.99358" lon="6.91642">
        <ele>883</ele>
        <time>2013-01-19T15:00:11.000Z</time>
      </trkpt>
      <trkpt lat="47.99361" lon="6.91644">
        <ele>881.7</ele>
        <time>2013-01-19T15:00:12.000Z</time>
      </trkpt>
      <trkpt lat="47.99365" lon="6.91642">
        <ele>879.4</ele>
        <time>2013-01-19T15:00:18.000Z</time>
      </trkpt>
      <trkpt lat="47.99365" lon="6.91641">
        <ele>879.2</ele>
        <time>2013-01-19T15:00:19.000Z</time>
      </trkpt>
      <trkpt lat="47.99368" lon="6.91639">
        <ele>878.2</ele>
        <time>2013-01-19T15:00:39.000Z</time>
      </trkpt>
      <trkpt lat="47.99371" lon="6.91635">
        <ele>878.1</ele>
        <time>2013-01-19T15:00:40.000Z</time>
      </trkpt>
      <trkpt lat="47.99372" lon="6.91629">
        <ele>877.5</ele>
        <time>2013-01-19T15:00:45.000Z</time>
      </trkpt>
      <trkpt lat="47.99372" lon="6.91628">
        <ele>877.2</ele>
        <time>2013-01-19T15:00:46.000Z</time>
      </trkpt>
      <trkpt lat="47.99374" lon="6.91622">
        <ele>876.8</ele>
        <time>2013-01-19T15:01:07.000Z</time>
      </trkpt>
      <trkpt lat="47.99373" lon="6.91617">
        <ele>875.6</ele>
        <time>2013-01-19T15:01:08.000Z</time>
      </trkpt>
      <trkpt lat="47.99374" lon="6.91611">
        <ele>873.6</ele>
        <time>2013-01-19T15:01:10.000Z</time>
      </trkpt>
      <trkpt lat="47.99376" lon="6.91609">
        <ele>873.4</ele>
        <time>2013-01-19T15:01:11.000Z</time>
      </trkpt>
      <trkpt lat="47.99377" lon="6.91605">
        <ele>873.6</ele>
        <time>2013-01-19T15:01:14.000Z</time>
      </trkpt>
      <trkpt lat="47.99376" lon="6.91602">
        <ele>874.3</ele>
        <time>2013-01-19T15:01:15.000Z</time>
      </trkpt>
      <trkpt lat="47.99376" lon="6.91597">
        <ele>876</ele>
        <time>2013-01-19T15:01:17.000Z</time>
      </trkpt>
      <trkpt lat="47.99376" lon="6.91595">
        <ele>876.6</ele>
        <time>2013-01-19T15:01:18.000Z</time>
      </trkpt>
      <trkpt lat="47.99378" lon="6.91591">
        <ele>876.3</ele>
        <time>2013-01-19T15:01:44.000Z</time>
      </trkpt>
      <trkpt lat="47.9938" lon="6.91587">
        <ele>877.8</ele>
        <time>2013-01-19T15:01:45.000Z</time>
      </trkpt>
      <trkpt lat="47.99382" lon="6.91585">
        <ele>878.2</ele>
        <time>2013-01-19T15:01:46.000Z</time>
      </trkpt>
      <trkpt lat="47.99384" lon="6.91585">
        <ele>877.4</ele>
        <time>2013-01-19T15:01:47.000Z</time>
      </trkpt>
      <trkpt lat="47.99386" lon="6.91583">
        <ele>877.6</ele>
        <time>2013-01-19T15:01:48.000Z</time>
      </trkpt>
      <trkpt lat="47.99389" lon="6.91581">
        <ele>877.2</ele>
        <time>2013-01-19T15:01:49.000Z</time>
      </trkpt>
      <trkpt lat="47.99392" lon="6.91578">
        <ele>876</ele>
        <time>2013-01-19T15:01:51.000Z</time>
      </trkpt>
      <trkpt lat="47.99394" lon="6.91576">
        <ele>874.2</ele>
        <time>2013-01-19T15:01:52.000Z</time>
      </trkpt>
      <trkpt lat="47.99396" lon="6.9158">
        <ele>873.2</ele>
        <time>2013-01-19T15:01:55.000Z</time>
      </trkpt>
      <trkpt lat="47.994" lon="6.91581">
        <ele>872.3</ele>
        <time>2013-01-19T15:01:56.000Z</time>
      </trkpt>
      <trkpt lat="47.99402" lon="6.91582">
        <ele>870.9</ele>
        <time>2013-01-19T15:01:57.000Z</time>
      </trkpt>
      <trkpt lat="47.99405" lon="6.91583">
        <ele>869.5</ele>
        <time>2013-01-19T15:01:58.000Z</time>
      </trkpt>
      <trkpt lat="47.99408" lon="6.91582">
        <ele>869.8</ele>
        <time>2013-01-19T15:02:00.000Z</time>
      </trkpt>
      <trkpt lat="47.99409" lon="6.91582">
        <ele>869.6</ele>
        <time>2013-01-19T15:02:01.620Z</time>
      </trkpt>
      <trkpt lat="47.99413" lon="6.91585">
        <ele>866.7</ele>
        <time>2013-01-19T15:02:07.000Z</time>
      </trkpt>
      <trkpt lat="47.99413" lon="6.91585">
        <ele>866.7</ele>
        <time>2013-01-19T15:02:08.000Z</time>
      </trkpt>
      <trkpt lat="47.99415" lon="6.91584">
        <ele>863.4</ele>
        <time>2013-01-19T15:02:38.000Z</time>
      </trkpt>
      <trkpt lat="47.99418" lon="6.91582">
        <ele>863.9</ele>
        <time>2013-01-19T15:02:39.000Z</time>
      </trkpt>
      <trkpt lat="47.99417" lon="6.91576">
        <ele>862.7</ele>
        <time>2013-01-19T15:02:51.000Z</time>
      </trkpt>
      <trkpt lat="47.99417" lon="6.91575">
        <ele>862.7</ele>
        <time>2013-01-19T15:02:52.000Z</time>
      </trkpt>
      <trkpt lat="47.99419" lon="6.9157">
        <ele>861.8</ele>
        <time>2013-01-19T15:04:17.000Z</time>
      </trkpt>
      <trkpt lat="47.99419" lon="6.91567">
        <ele>863.9</ele>
        <time>2013-01-19T15:04:18.000Z</time>
      </trkpt>
      <trkpt lat="47.99419" lon="6.91571">
        <ele>857.2</ele>
        <time>2013-01-19T15:04:32.000Z</time>
      </trkpt>
      <trkpt lat="47.9942" lon="6.91574">
        <ele>855.9</ele>
        <time>2013-01-19T15:04:33.000Z</time>
      </trkpt>
      <trkpt lat="47.9942" lon="6.91579">
        <ele>853.5</ele>
        <time>2013-01-19T15:04:36.000Z</time>
      </trkpt>
      <trkpt lat="47.99424" lon="6.91579">
        <ele>853.2</ele>
        <time>2013-01-19T15:04:37.000Z</time>
      </trkpt>
      <trkpt lat="47.99427" lon="6.91579">
        <ele>848.2</ele>
        <time>2013-01-19T15:04:42.000Z</time>
      </trkpt>
      <trkpt lat="47.99429" lon="6.91582">
        <ele>847.2</ele>
        <time>2013-01-19T15:04:43.000Z</time>
      </trkpt>
      <trkpt lat="47.99433" lon="6.91582">
        <ele>844</ele>
        <time>2013-01-19T15:04:56.000Z</time>
      </trkpt>
      <trkpt lat="47.99435" lon="6.91581">
        <ele>844</ele>
        <time>2013-01-19T15:04:57.000Z</time>
      </trkpt>
      <trkpt lat="47.99439" lon="6.91581">
        <ele>847</ele>
        <time>2013-01-19T15:05:28.000Z</time>
      </trkpt>
      <trkpt lat="47.9944" lon="6.91581">
        <ele>847.3</ele>
        <time>2013-01-19T15:05:29.000Z</time>
      </trkpt>
      <trkpt lat="47.9944" lon="6.91583">
        <ele>848.6</ele>
        <time>2013-01-19T15:05:31.000Z</time>
      </trkpt>
      <trkpt lat="47.99447" lon="6.91584">
        <ele>851</ele>
        <time>2013-01-19T15:05:32.000Z</time>
      </trkpt>
      <trkpt lat="47.99449" lon="6.91587">
        <ele>850.2</ele>
        <time>2013-01-19T15:05:39.000Z</time>
      </trkpt>
      <trkpt lat="47.99451" lon="6.91586">
        <ele>850.2</ele>
        <time>2013-01-19T15:05:40.000Z</time>
      </trkpt>
      <trkpt lat="47.99455" lon="6.91586">
        <ele>849.9</ele>
        <time>2013-01-19T15:05:46.000Z</time>
      </trkpt>
      <trkpt lat="47.99457" lon="6.91586">
        <ele>848.4</ele>
        <time>2013-01-19T15:05:47.000Z</time>
      </trkpt>
      <trkpt lat="47.9946" lon="6.91589">
        <ele>842.5</ele>
        <time>2013-01-19T15:05:55.000Z</time>
      </trkpt>
      <trkpt lat="47.99461" lon="6.9159">
        <ele>842.8</ele>
        <time>2013-01-19T15:05:56.000Z</time>
      </trkpt>
      <trkpt lat="47.99465" lon="6.91588">
        <ele>843</ele>
        <time>2013-01-19T15:06:03.000Z</time>
      </trkpt>
      <trkpt lat="47.99466" lon="6.9159">
        <ele>843</ele>
        <time>2013-01-19T15:06:04.000Z</time>
      </trkpt>
      <trkpt lat="47.99467" lon="6.91595">
        <ele>842.6</ele>
        <time>2013-01-19T15:06:09.000Z</time>
      </trkpt>
      <trkpt lat="47.99468" lon="6.91596">
        <ele>842.3</ele>
        <time>2013-01-19T15:06:10.000Z</time>
      </trkpt>
      <trkpt lat="47.99471" lon="6.91598">
        <ele>841.8</ele>
        <time>2013-01-19T15:06:15.000Z</time>
      </trkpt>
      <trkpt lat="47.99472" lon="6.91599">
        <ele>842</ele>
        <time>2013-01-19T15:06:16.000Z</time>
      </trkpt>
      <trkpt lat="47.99476" lon="6.916">
        <ele>842.1</ele>
        <time>2013-01-19T15:06:21.000Z</time>
      </trkpt>
      <trkpt lat="47.99477" lon="6.91602">
        <ele>841.8</ele>
        <time>2013-01-19T15:06:22.000Z</time>
      </trkpt>
      <trkpt lat="47.9948" lon="6.91605">
        <ele>840.9</ele>
        <time>2013-01-19T15:06:27.000Z</time>
      </trkpt>
      <trkpt lat="47.9948" lon="6.91606">
        <ele>840.8</ele>
        <time>2013-01-19T15:06:28.000Z</time>
      </trkpt>
      <trkpt lat="47.99483" lon="6.9161">
        <ele>839.8</ele>
        <time>2013-01-19T15:06:37.000Z</time>
      </trkpt>
      <trkpt lat="47.99484" lon="6.9161">
        <ele>840.1</ele>
        <time>2013-01-19T15:06:38.000Z</time>
      </trkpt>
      <trkpt lat="47.99488" lon="6.91611">
        <ele>837.8</ele>
        <time>2013-01-19T15:07:01.000Z</time>
      </trkpt>
      <trkpt lat="47.9949" lon="6.9161">
        <ele>838</ele>
        <time>2013-01-19T15:07:03.000Z</time>
      </trkpt>
      <trkpt lat="47.99492" lon="6.91605">
        <ele>837.5</ele>
        <time>2013-01-19T15:07:21.000Z</time>
      </trkpt>
      <trkpt lat="47.99492" lon="6.91605">
        <ele>837.5</ele>
        <time>2013-01-19T15:07:22.000Z</time>
      </trkpt>
      <trkpt lat="47.99496" lon="6.91603">
        <ele>835.2</ele>
        <time>2013-01-19T15:08:35.000Z</time>
      </trkpt>
      <trkpt lat="47.99497" lon="6.91603">
        <ele>834.8</ele>
        <time>2013-01-19T15:08:36.000Z</time>
      </trkpt>
      <trkpt lat="47.995" lon="6.91599">
        <ele>834.6</ele>
        <time>2013-01-19T15:08:40.000Z</time>
      </trkpt>
      <trkpt lat="47.99501" lon="6.91598">
        <ele>834.6</ele>
        <time>2013-01-19T15:08:41.000Z</time>
      </trkpt>
      <trkpt lat="47.99499" lon="6.91592">
        <ele>831.1</ele>
        <time>2013-01-19T15:08:45.000Z</time>
      </trkpt>
      <trkpt lat="47.99499" lon="6.91591">
        <ele>830.9</ele>
        <time>2013-01-19T15:08:46.000Z</time>
      </trkpt>
      <trkpt lat="47.99503" lon="6.91587">
        <ele>829.4</ele>
        <time>2013-01-19T15:08:50.000Z</time>
      </trkpt>
      <trkpt lat="47.99504" lon="6.91586">
        <ele>829</ele>
        <time>2013-01-19T15:08:51.000Z</time>
      </trkpt>
      <trkpt lat="47.99507" lon="6.91584">
        <ele>829.4</ele>
        <time>2013-01-19T15:08:54.000Z</time>
      </trkpt>
      <trkpt lat="47.99507" lon="6.91582">
        <ele>829.6</ele>
        <time>2013-01-19T15:08:55.000Z</time>
      </trkpt>
      <trkpt lat="47.99511" lon="6.9158">
        <ele>831.2</ele>
        <time>2013-01-19T15:09:01.000Z</time>
      </trkpt>
      <trkpt lat="47.99512" lon="6.9158">
        <ele>830.9</ele>
        <time>2013-01-19T15:09:02.000Z</time>
      </trkpt>
      <trkpt lat="47.99515" lon="6.91575">
        <ele>828.5</ele>
        <time>2013-01-19T15:09:39.000Z</time>
      </trkpt>
      <trkpt lat="47.99516" lon="6.91575">
        <ele>828.4</ele>
        <time>2013-01-19T15:09:40.000Z</time>
      </trkpt>
      <trkpt lat="47.99519" lon="6.91576">
        <ele>828.5</ele>
        <time>2013-01-19T15:09:44.000Z</time>
      </trkpt>
      <trkpt lat="47.9952" lon="6.91575">
        <ele>828.8</ele>
        <time>2013-01-19T15:09:45.000Z</time>
      </trkpt>
      <trkpt lat="47.99525" lon="6.91574">
        <ele>828.3</ele>
        <time>2013-01-19T15:09:51.000Z</time>
      </trkpt>
      <trkpt lat="47.99525" lon="6.91574">
        <ele>828.3</ele>
        <time>2013-01-19T15:09:52.000Z</time>
      </trkpt>
      <trkpt lat="47.99528" lon="6.91575">
        <ele>829.9</ele>
        <time>2013-01-19T15:10:07.000Z</time>
      </trkpt>
      <trkpt lat="47.9953" lon="6.91573">
        <ele>829.9</ele>
        <time>2013-01-19T15:10:08.000Z</time>
      </trkpt>
      <trkpt lat="47.99532" lon="6.91572">
        <ele>829.1</ele>
        <time>2013-01-19T15:10:09.000Z</time>
      </trkpt>
      <trkpt lat="47.99535" lon="6.91572">
        <ele>828.3</ele>
        <time>2013-01-19T15:10:10.000Z</time>
      </trkpt>
      <trkpt lat="47.99539" lon="6.9157">
        <ele>828.4</ele>
        <time>2013-01-19T15:10:11.000Z</time>
      </trkpt>
      <trkpt lat="47.99543" lon="6.9157">
        <ele>827.7</ele>
        <time>2013-01-19T15:10:13.000Z</time>
      </trkpt>
      <trkpt lat="47.99545" lon="6.9157">
        <ele>828.4</ele>
        <time>2013-01-19T15:10:14.000Z</time>
      </trkpt>
      <trkpt lat="47.99548" lon="6.9157">
        <ele>828.9</ele>
        <time>2013-01-19T15:10:20.000Z</time>
      </trkpt>
      <trkpt lat="47.99549" lon="6.9157">
        <ele>829.1</ele>
        <time>2013-01-19T15:10:21.000Z</time>
      </trkpt>
      <trkpt lat="47.99552" lon="6.9157">
        <ele>829.3</ele>
        <time>2013-01-19T15:10:29.000Z</time>
      </trkpt>
      <trkpt lat="47.99555" lon="6.91572">
        <ele>828.4</ele>
        <time>2013-01-19T15:10:30.000Z</time>
      </trkpt>
      <trkpt lat="47.9956" lon="6.9157">
        <ele>827.2</ele>
        <time>2013-01-19T15:10:31.000Z</time>
      </trkpt>
      <trkpt lat="47.99564" lon="6.91572">
        <ele>827.4</ele>
        <time>2013-01-19T15:10:33.000Z</time>
      </trkpt>
      <trkpt lat="47.99566" lon="6.9157">
        <ele>827.6</ele>
        <time>2013-01-19T15:10:34.000Z</time>
      </trkpt>
      <trkpt lat="47.9957" lon="6.91571">
        <ele>827.4</ele>
        <time>2013-01-19T15:10:36.000Z</time>
      </trkpt>
      <trkpt lat="47.99574" lon="6.91572">
        <ele>827.1</ele>
        <time>2013-01-19T15:10:37.000Z</time>
      </trkpt>
      <trkpt lat="47.99577" lon="6.91573">
        <ele>826.5</ele>
        <time>2013-01-19T15:10:38.000Z</time>
      </trkpt>
      <trkpt lat="47.9958" lon="6.91575">
        <ele>826</ele>
        <time>2013-01-19T15:10:39.000Z</time>
      </trkpt>
      <trkpt lat="47.99582" lon="6.91573">
        <ele>825.8</ele>
        <time>2013-01-19T15:10:40.000Z</time>
      </trkpt>
      <trkpt lat="47.99585" lon="6.91572">
        <ele>825.7</ele>
        <time>2013-01-19T15:10:41.000Z</time>
      </trkpt>
      <trkpt lat="47.99587" lon="6.91574">
        <ele>825.3</ele>
        <time>2013-01-19T15:10:43.000Z</time>
      </trkpt>
      <trkpt lat="47.99589" lon="6.91575">
        <ele>825</ele>
        <time>2013-01-19T15:10:44.000Z</time>
      </trkpt>
      <trkpt lat="47.99593" lon="6.91577">
        <ele>823.9</ele>
        <time>2013-01-19T15:10:47.000Z</time>
      </trkpt>
      <trkpt lat="47.99595" lon="6.91577">
        <ele>824.1</ele>
        <time>2013-01-19T15:10:48.000Z</time>
      </trkpt>
      <trkpt lat="47.99599" lon="6.91578">
        <ele>824.7</ele>
        <time>2013-01-19T15:10:50.000Z</time>
      </trkpt>
      <trkpt lat="47.996" lon="6.91578">
        <ele>824.1</ele>
        <time>2013-01-19T15:10:51.000Z</time>
      </trkpt>
      <trkpt lat="47.99603" lon="6.91579">
        <ele>823.5</ele>
        <time>2013-01-19T15:10:54.000Z</time>
      </trkpt>
      <trkpt lat="47.99603" lon="6.91582">
        <ele>823.2</ele>
        <time>2013-01-19T15:10:55.000Z</time>
      </trkpt>
      <trkpt lat="47.99606" lon="6.91584">
        <ele>822.3</ele>
        <time>2013-01-19T15:10:58.000Z</time>
      </trkpt>
      <trkpt lat="47.99609" lon="6.91582">
        <ele>822.6</ele>
        <time>2013-01-19T15:10:59.000Z</time>
      </trkpt>
      <trkpt lat="47.99612" lon="6.91585">
        <ele>822</ele>
        <time>2013-01-19T15:11:01.000Z</time>
      </trkpt>
      <trkpt lat="47.99614" lon="6.91586">
        <ele>822</ele>
        <time>2013-01-19T15:11:02.000Z</time>
      </trkpt>
      <trkpt lat="47.99618" lon="6.91589">
        <ele>821.7</ele>
        <time>2013-01-19T15:11:05.000Z</time>
      </trkpt>
      <trkpt lat="47.99619" lon="6.91588">
        <ele>821.6</ele>
        <time>2013-01-19T15:11:06.000Z</time>
      </trkpt>
      <trkpt lat="47.99621" lon="6.91593">
        <ele>822.4</ele>
        <time>2013-01-19T15:11:08.000Z</time>
      </trkpt>
      <trkpt lat="47.99623" lon="6.91594">
        <ele>823.1</ele>
        <time>2013-01-19T15:11:09.000Z</time>
      </trkpt>
      <trkpt lat="47.99623" lon="6.91598">
        <ele>822.2</ele>
        <time>2013-01-19T15:11:10.000Z</time>
      </trkpt>
      <trkpt lat="47.99623" lon="6.91601">
        <ele>822.1</ele>
        <time>2013-01-19T15:11:11.000Z</time>
      </trkpt>
      <trkpt lat="47.99625" lon="6.91605">
        <ele>821.9</ele>
        <time>2013-01-19T15:11:13.000Z</time>
      </trkpt>
      <trkpt lat="47.99627" lon="6.91606">
        <ele>823</ele>
        <time>2013-01-19T15:11:14.000Z</time>
      </trkpt>
      <trkpt lat="47.99631" lon="6.91606">
        <ele>823.9</ele>
        <time>2013-01-19T15:11:32.000Z</time>
      </trkpt>
      <trkpt lat="47.99633" lon="6.91607">
        <ele>821.5</ele>
        <time>2013-01-19T15:11:33.000Z</time>
      </trkpt>
      <trkpt lat="47.99635" lon="6.91607">
        <ele>819.6</ele>
        <time>2013-01-19T15:11:34.000Z</time>
      </trkpt>
      <trkpt lat="47.99637" lon="6.91611">
        <ele>819.6</ele>
        <time>2013-01-19T15:11:35.000Z</time>
      </trkpt>
      <trkpt lat="47.9964" lon="6.91612">
        <ele>819.1</ele>
        <time>2013-01-19T15:11:36.000Z</time>
      </trkpt>
      <trkpt lat="47.99642" lon="6.91614">
        <ele>819.4</ele>
        <time>2013-01-19T15:11:37.000Z</time>
      </trkpt>
      <trkpt lat="47.99644" lon="6.91616">
        <ele>819.6</ele>
        <time>2013-01-19T15:11:38.000Z</time>
      </trkpt>
      <trkpt lat="47.99647" lon="6.91617">
        <ele>819.9</ele>
        <time>2013-01-19T15:11:39.000Z</time>
      </trkpt>
      <trkpt lat="47.99649" lon="6.91622">
        <ele>820.8</ele>
        <time>2013-01-19T15:11:41.000Z</time>
      </trkpt>
      <trkpt lat="47.99649" lon="6.91623">
        <ele>821.3</ele>
        <time>2013-01-19T15:11:42.000Z</time>
      </trkpt>
      <trkpt lat="47.99652" lon="6.91626">
        <ele>820.9</ele>
        <time>2013-01-19T15:11:44.000Z</time>
      </trkpt>
      <trkpt lat="47.99653" lon="6.91629">
        <ele>820.6</ele>
        <time>2013-01-19T15:11:45.000Z</time>
      </trkpt>
      <trkpt lat="47.99655" lon="6.91634">
        <ele>819.9</ele>
        <time>2013-01-19T15:11:47.000Z</time>
      </trkpt>
      <trkpt lat="47.99655" lon="6.91638">
        <ele>818.2</ele>
        <time>2013-01-19T15:11:48.000Z</time>
      </trkpt>
      <trkpt lat="47.99657" lon="6.9164">
        <ele>818.3</ele>
        <time>2013-01-19T15:11:50.000Z</time>
      </trkpt>
      <trkpt lat="47.9966" lon="6.91641">
        <ele>819.7</ele>
        <time>2013-01-19T15:11:51.000Z</time>
      </trkpt>
      <trkpt lat="47.99663" lon="6.91644">
        <ele>819.3</ele>
        <time>2013-01-19T15:12:03.000Z</time>
      </trkpt>
      <trkpt lat="47.99665" lon="6.91646">
        <ele>818.4</ele>
        <time>2013-01-19T15:12:04.000Z</time>
      </trkpt>
      <trkpt lat="47.99667" lon="6.91651">
        <ele>819.2</ele>
        <time>2013-01-19T15:12:07.000Z</time>
      </trkpt>
      <trkpt lat="47.99668" lon="6.91651">
        <ele>819.4</ele>
        <time>2013-01-19T15:12:08.000Z</time>
      </trkpt>
      <trkpt lat="47.99671" lon="6.91655">
        <ele>819.9</ele>
        <time>2013-01-19T15:12:11.000Z</time>
      </trkpt>
      <trkpt lat="47.99672" lon="6.91657">
        <ele>819.9</ele>
        <time>2013-01-19T15:12:12.000Z</time>
      </trkpt>
      <trkpt lat="47.99673" lon="6.91658">
        <ele>819.4</ele>
        <time>2013-01-19T15:12:14.000Z</time>
      </trkpt>
      <trkpt lat="47.99676" lon="6.9166">
        <ele>819.6</ele>
        <time>2013-01-19T15:12:15.000Z</time>
      </trkpt>
      <trkpt lat="47.99678" lon="6.9166">
        <ele>818.3</ele>
        <time>2013-01-19T15:12:17.000Z</time>
      </trkpt>
      <trkpt lat="47.9968" lon="6.91662">
        <ele>818.1</ele>
        <time>2013-01-19T15:12:18.000Z</time>
      </trkpt>
      <trkpt lat="47.99682" lon="6.91665">
        <ele>816.7</ele>
        <time>2013-01-19T15:12:20.000Z</time>
      </trkpt>
      <trkpt lat="47.99682" lon="6.91669">
        <ele>816.9</ele>
        <time>2013-01-19T15:12:21.000Z</time>
      </trkpt>
      <trkpt lat="47.99684" lon="6.91672">
        <ele>818</ele>
        <time>2013-01-19T15:12:22.000Z</time>
      </trkpt>
      <trkpt lat="47.99685" lon="6.91676">
        <ele>818.5</ele>
        <time>2013-01-19T15:12:23.000Z</time>
      </trkpt>
      <trkpt lat="47.99688" lon="6.91678">
        <ele>819.8</ele>
        <time>2013-01-19T15:12:25.000Z</time>
      </trkpt>
      <trkpt lat="47.99689" lon="6.9168">
        <ele>819.6</ele>
        <time>2013-01-19T15:12:26.000Z</time>
      </trkpt>
      <trkpt lat="47.9969" lon="6.91682">
        <ele>819.4</ele>
        <time>2013-01-19T15:12:28.000Z</time>
      </trkpt>
      <trkpt lat="47.99693" lon="6.91683">
        <ele>819.4</ele>
        <time>2013-01-19T15:12:29.000Z</time>
      </trkpt>
      <trkpt lat="47.99696" lon="6.91683">
        <ele>819.3</ele>
        <time>2013-01-19T15:12:31.000Z</time>
      </trkpt>
      <trkpt lat="47.99699" lon="6.91683">
        <ele>817.5</ele>
        <time>2013-01-19T15:12:32.000Z</time>
      </trkpt>
      <trkpt lat="47.99702" lon="6.91684">
        <ele>816.9</ele>
        <time>2013-01-19T15:12:33.000Z</time>
      </trkpt>
      <trkpt lat="47.99705" lon="6.91683">
        <ele>816.7</ele>
        <time>2013-01-19T15:12:34.000Z</time>
      </trkpt>
      <trkpt lat="47.99709" lon="6.91683">
        <ele>815.7</ele>
        <time>2013-01-19T15:12:38.000Z</time>
      </trkpt>
      <trkpt lat="47.9971" lon="6.91684">
        <ele>815.9</ele>
        <time>2013-01-19T15:12:39.000Z</time>
      </trkpt>
      <trkpt lat="47.99712" lon="6.91689">
        <ele>814.6</ele>
        <time>2013-01-19T15:12:42.000Z</time>
      </trkpt>
      <trkpt lat="47.99715" lon="6.91689">
        <ele>814.1</ele>
        <time>2013-01-19T15:12:43.000Z</time>
      </trkpt>
      <trkpt lat="47.99718" lon="6.91693">
        <ele>812.6</ele>
        <time>2013-01-19T15:12:46.000Z</time>
      </trkpt>
      <trkpt lat="47.9972" lon="6.91694">
        <ele>812</ele>
        <time>2013-01-19T15:12:47.000Z</time>
      </trkpt>
      <trkpt lat="47.99723" lon="6.91694">
        <ele>811.4</ele>
        <time>2013-01-19T15:12:49.000Z</time>
      </trkpt>
      <trkpt lat="47.99726" lon="6.91693">
        <ele>810.7</ele>
        <time>2013-01-19T15:12:50.000Z</time>
      </trkpt>
      <trkpt lat="47.99729" lon="6.91697">
        <ele>811.6</ele>
        <time>2013-01-19T15:12:53.000Z</time>
      </trkpt>
      <trkpt lat="47.9973" lon="6.91698">
        <ele>810.7</ele>
        <time>2013-01-19T15:12:54.000Z</time>
      </trkpt>
      <trkpt lat="47.99728" lon="6.91703">
        <ele>810.3</ele>
        <time>2013-01-19T15:12:56.000Z</time>
      </trkpt>
      <trkpt lat="47.99729" lon="6.91705">
        <ele>810.4</ele>
        <time>2013-01-19T15:12:57.000Z</time>
      </trkpt>
      <trkpt lat="47.99731" lon="6.91709">
        <ele>809.8</ele>
        <time>2013-01-19T15:13:00.000Z</time>
      </trkpt>
      <trkpt lat="47.99733" lon="6.91709">
        <ele>808</ele>
        <time>2013-01-19T15:13:01.000Z</time>
      </trkpt>
      <trkpt lat="47.99737" lon="6.91713">
        <ele>807</ele>
        <time>2013-01-19T15:13:04.000Z</time>
      </trkpt>
      <trkpt lat="47.99738" lon="6.91714">
        <ele>806.8</ele>
        <time>2013-01-19T15:13:05.000Z</time>
      </trkpt>
      <trkpt lat="47.99742" lon="6.91714">
        <ele>805.3</ele>
        <time>2013-01-19T15:13:11.000Z</time>
      </trkpt>
      <trkpt lat="47.99743" lon="6.91714">
        <ele>805.1</ele>
        <time>2013-01-19T15:13:12.000Z</time>
      </trkpt>
      <trkpt lat="47.99747" lon="6.91715">
        <ele>805.1</ele>
        <time>2013-01-19T15:13:26.000Z</time>
      </trkpt>
      <trkpt lat="47.99747" lon="6.91716">
        <ele>805</ele>
        <time>2013-01-19T15:13:27.000Z</time>
      </trkpt>
      <trkpt lat="47.9975" lon="6.91719">
        <ele>805.9</ele>
        <time>2013-01-19T15:13:31.000Z</time>
      </trkpt>
      <trkpt lat="47.9975" lon="6.91728">
        <ele>803.7</ele>
        <time>2013-01-19T15:13:32.000Z</time>
      </trkpt>
      <trkpt lat="47.99758" lon="6.91728">
        <ele>802.8</ele>
        <time>2013-01-19T15:13:33.000Z</time>
      </trkpt>
      <trkpt lat="47.99761" lon="6.91728">
        <ele>801.2</ele>
        <time>2013-01-19T15:13:34.000Z</time>
      </trkpt>
      <trkpt lat="47.99765" lon="6.91729">
        <ele>799.3</ele>
        <time>2013-01-19T15:13:35.000Z</time>
      </trkpt>
      <trkpt lat="47.9977" lon="6.91729">
        <ele>798.8</ele>
        <time>2013-01-19T15:13:36.000Z</time>
      </trkpt>
      <trkpt lat="47.99777" lon="6.9173">
        <ele>797.7</ele>
        <time>2013-01-19T15:13:37.000Z</time>
      </trkpt>
      <trkpt lat="47.99782" lon="6.91731">
        <ele>795.2</ele>
        <time>2013-01-19T15:13:38.000Z</time>
      </trkpt>
      <trkpt lat="47.99789" lon="6.91728">
        <ele>793.5</ele>
        <time>2013-01-19T15:13:39.000Z</time>
      </trkpt>
      <trkpt lat="47.99792" lon="6.91733">
        <ele>792</ele>
        <time>2013-01-19T15:13:41.000Z</time>
      </trkpt>
      <trkpt lat="47.99794" lon="6.91733">
        <ele>791.6</ele>
        <time>2013-01-19T15:13:42.000Z</time>
      </trkpt>
      <trkpt lat="47.99797" lon="6.91732">
        <ele>791.7</ele>
        <time>2013-01-19T15:13:43.000Z</time>
      </trkpt>
      <trkpt lat="47.998" lon="6.91732">
        <ele>791.8</ele>
        <time>2013-01-19T15:13:44.000Z</time>
      </trkpt>
      <trkpt lat="47.99803" lon="6.91734">
        <ele>792.9</ele>
        <time>2013-01-19T15:13:45.000Z</time>
      </trkpt>
      <trkpt lat="47.99804" lon="6.91736">
        <ele>792.1</ele>
        <time>2013-01-19T15:13:46.000Z</time>
      </trkpt>
      <trkpt lat="47.99807" lon="6.9174">
        <ele>791.1</ele>
        <time>2013-01-19T15:13:51.000Z</time>
      </trkpt>
      <trkpt lat="47.99811" lon="6.91744">
        <ele>790.6</ele>
        <time>2013-01-19T15:13:52.000Z</time>
      </trkpt>
      <trkpt lat="47.99815" lon="6.91742">
        <ele>788.7</ele>
        <time>2013-01-19T15:13:54.000Z</time>
      </trkpt>
      <trkpt lat="47.99817" lon="6.91745">
        <ele>791.3</ele>
        <time>2013-01-19T15:13:55.000Z</time>
      </trkpt>
      <trkpt lat="47.99821" lon="6.91747">
        <ele>789.9</ele>
        <time>2013-01-19T15:14:05.000Z</time>
      </trkpt>
      <trkpt lat="47.99823" lon="6.91746">
        <ele>790.7</ele>
        <time>2013-01-19T15:14:06.000Z</time>
      </trkpt>
      <trkpt lat="47.99824" lon="6.91747">
        <ele>791.2</ele>
        <time>2013-01-19T15:14:10.000Z</time>
      </trkpt>
      <trkpt lat="47.99833" lon="6.91746">
        <ele>788.6</ele>
        <time>2013-01-19T15:14:11.000Z</time>
      </trkpt>
      <trkpt lat="47.9984" lon="6.91746">
        <ele>787.3</ele>
        <time>2013-01-19T15:14:12.000Z</time>
      </trkpt>
      <trkpt lat="47.99844" lon="6.91744">
        <ele>784.2</ele>
        <time>2013-01-19T15:14:14.000Z</time>
      </trkpt>
      <trkpt lat="47.99846" lon="6.91745">
        <ele>784.9</ele>
        <time>2013-01-19T15:14:15.000Z</time>
      </trkpt>
      <trkpt lat="47.9985" lon="6.91743">
        <ele>783.7</ele>
        <time>2013-01-19T15:14:21.000Z</time>
      </trkpt>
      <trkpt lat="47.99851" lon="6.91743">
        <ele>783.4</ele>
        <time>2013-01-19T15:14:22.000Z</time>
      </trkpt>
      <trkpt lat="47.99852" lon="6.91742">
        <ele>782.8</ele>
        <time>2013-01-19T15:14:30.000Z</time>
      </trkpt>
      <trkpt lat="47.99856" lon="6.91738">
        <ele>781.7</ele>
        <time>2013-01-19T15:14:31.000Z</time>
      </trkpt>
      <trkpt lat="47.99864" lon="6.91728">
        <ele>775.4</ele>
        <time>2013-01-19T15:14:32.000Z</time>
      </trkpt>
      <trkpt lat="47.99868" lon="6.91726">
        <ele>773.3</ele>
        <time>2013-01-19T15:14:33.000Z</time>
      </trkpt>
      <trkpt lat="47.99872" lon="6.91721">
        <ele>769.4</ele>
        <time>2013-01-19T15:14:34.000Z</time>
      </trkpt>
      <trkpt lat="47.99876" lon="6.91719">
        <ele>767.1</ele>
        <time>2013-01-19T15:14:35.000Z</time>
      </trkpt>
      <trkpt lat="47.99879" lon="6.91715">
        <ele>766.8</ele>
        <time>2013-01-19T15:14:36.000Z</time>
      </trkpt>
      <trkpt lat="47.99881" lon="6.91713">
        <ele>766</ele>
        <time>2013-01-19T15:14:37.000Z</time>
      </trkpt>
      <trkpt lat="47.99884" lon="6.9171">
        <ele>766.1</ele>
        <time>2013-01-19T15:14:38.000Z</time>
      </trkpt>
      <trkpt lat="47.99886" lon="6.91709">
        <ele>766.4</ele>
        <time>2013-01-19T15:14:40.000Z</time>
      </trkpt>
      <trkpt lat="47.9989" lon="6.91707">
        <ele>768</ele>
        <time>2013-01-19T15:14:41.000Z</time>
      </trkpt>
      <trkpt lat="47.99893" lon="6.91706">
        <ele>767.6</ele>
        <time>2013-01-19T15:14:42.000Z</time>
      </trkpt>
      <trkpt lat="47.99896" lon="6.91706">
        <ele>767.2</ele>
        <time>2013-01-19T15:14:43.000Z</time>
      </trkpt>
      <trkpt lat="47.999" lon="6.91706">
        <ele>767.5</ele>
        <time>2013-01-19T15:14:44.000Z</time>
      </trkpt>
      <trkpt lat="47.99902" lon="6.91711">
        <ele>765.8</ele>
        <time>2013-01-19T15:14:45.000Z</time>
      </trkpt>
      <trkpt lat="47.99906" lon="6.91714">
        <ele>762.5</ele>
        <time>2013-01-19T15:14:52.000Z</time>
      </trkpt>
      <trkpt lat="47.99908" lon="6.91712">
        <ele>762.9</ele>
        <time>2013-01-19T15:14:53.000Z</time>
      </trkpt>
      <trkpt lat="47.99909" lon="6.91708">
        <ele>762.2</ele>
        <time>2013-01-19T15:14:56.000Z</time>
      </trkpt>
      <trkpt lat="47.99911" lon="6.91707">
        <ele>762.2</ele>
        <time>2013-01-19T15:14:57.000Z</time>
      </trkpt>
      <trkpt lat="47.99913" lon="6.91703">
        <ele>761.2</ele>
        <time>2013-01-19T15:15:00.000Z</time>
      </trkpt>
      <trkpt lat="47.99914" lon="6.91701">
        <ele>761</ele>
        <time>2013-01-19T15:15:01.000Z</time>
      </trkpt>
      <trkpt lat="47.99917" lon="6.917">
        <ele>760.7</ele>
        <time>2013-01-19T15:15:03.000Z</time>
      </trkpt>
      <trkpt lat="47.99919" lon="6.91699">
        <ele>760.4</ele>
        <time>2013-01-19T15:15:04.000Z</time>
      </trkpt>
      <trkpt lat="47.99923" lon="6.91697">
        <ele>759.4</ele>
        <time>2013-01-19T15:15:07.000Z</time>
      </trkpt>
      <trkpt lat="47.99924" lon="6.91697">
        <ele>760.5</ele>
        <time>2013-01-19T15:15:08.000Z</time>
      </trkpt>
      <trkpt lat="47.99927" lon="6.91693">
        <ele>761.2</ele>
        <time>2013-01-19T15:15:11.000Z</time>
      </trkpt>
      <trkpt lat="47.99927" lon="6.91691">
        <ele>761</ele>
        <time>2013-01-19T15:15:12.000Z</time>
      </trkpt>
      <trkpt lat="47.99927" lon="6.91686">
        <ele>760.5</ele>
        <time>2013-01-19T15:15:17.000Z</time>
      </trkpt>
      <trkpt lat="47.99928" lon="6.91683">
        <ele>760.5</ele>
        <time>2013-01-19T15:15:18.000Z</time>
      </trkpt>
      <trkpt lat="47.99928" lon="6.91679">
        <ele>759.2</ele>
        <time>2013-01-19T15:15:23.000Z</time>
      </trkpt>
      <trkpt lat="47.99929" lon="6.91677">
        <ele>758.4</ele>
        <time>2013-01-19T15:15:24.000Z</time>
      </trkpt>
      <trkpt lat="47.99926" lon="6.91672">
        <ele>757.8</ele>
        <time>2013-01-19T15:15:30.000Z</time>
      </trkpt>
      <trkpt lat="47.99926" lon="6.91671">
        <ele>757.8</ele>
        <time>2013-01-19T15:15:31.000Z</time>
      </trkpt>
      <trkpt lat="47.99927" lon="6.91666">
        <ele>757.5</ele>
        <time>2013-01-19T15:15:39.000Z</time>
      </trkpt>
      <trkpt lat="47.99926" lon="6.91661">
        <ele>760</ele>
        <time>2013-01-19T15:15:40.000Z</time>
      </trkpt>
      <trkpt lat="47.99924" lon="6.91658">
        <ele>760.2</ele>
        <time>2013-01-19T15:15:43.000Z</time>
      </trkpt>
      <trkpt lat="47.99922" lon="6.91653">
        <ele>759.9</ele>
        <time>2013-01-19T15:15:44.000Z</time>
      </trkpt>
      <trkpt lat="47.99921" lon="6.91649">
        <ele>759.9</ele>
        <time>2013-01-19T15:15:45.000Z</time>
      </trkpt>
      <trkpt lat="47.99919" lon="6.91646">
        <ele>759.4</ele>
        <time>2013-01-19T15:15:46.000Z</time>
      </trkpt>
      <trkpt lat="47.99917" lon="6.91643">
        <ele>759.2</ele>
        <time>2013-01-19T15:15:47.000Z</time>
      </trkpt>
      <trkpt lat="47.99916" lon="6.9164">
        <ele>759.1</ele>
        <time>2013-01-19T15:15:48.000Z</time>
      </trkpt>
      <trkpt lat="47.99915" lon="6.91636">
        <ele>758.9</ele>
        <time>2013-01-19T15:15:49.000Z</time>
      </trkpt>
      <trkpt lat="47.99914" lon="6.91633">
        <ele>759.2</ele>
        <time>2013-01-19T15:15:50.000Z</time>
      </trkpt>
      <trkpt lat="47.99912" lon="6.91629">
        <ele>760.3</ele>
        <time>2013-01-19T15:15:52.000Z</time>
      </trkpt>
      <trkpt lat="47.99911" lon="6.91627">
        <ele>760.1</ele>
        <time>2013-01-19T15:15:53.000Z</time>
      </trkpt>
      <trkpt lat="47.9991" lon="6.91622">
        <ele>760.8</ele>
        <time>2013-01-19T15:15:55.000Z</time>
      </trkpt>
      <trkpt lat="47.9991" lon="6.91619">
        <ele>760.8</ele>
        <time>2013-01-19T15:15:56.000Z</time>
      </trkpt>
      <trkpt lat="47.99908" lon="6.91614">
        <ele>760.9</ele>
        <time>2013-01-19T15:15:58.000Z</time>
      </trkpt>
      <trkpt lat="47.99907" lon="6.91612">
        <ele>760.9</ele>
        <time>2013-01-19T15:15:59.000Z</time>
      </trkpt>
      <trkpt lat="47.99906" lon="6.91606">
        <ele>760.1</ele>
        <time>2013-01-19T15:16:01.000Z</time>
      </trkpt>
      <trkpt lat="47.99906" lon="6.91605">
        <ele>760.8</ele>
        <time>2013-01-19T15:16:02.000Z</time>
      </trkpt>
      <trkpt lat="47.99905" lon="6.916">
        <ele>761</ele>
        <time>2013-01-19T15:16:08.000Z</time>
      </trkpt>
      <trkpt lat="47.99906" lon="6.91598">
        <ele>761.6</ele>
        <time>2013-01-19T15:16:09.000Z</time>
      </trkpt>
      <trkpt lat="47.99905" lon="6.91593">
        <ele>762.5</ele>
        <time>2013-01-19T15:16:11.000Z</time>
      </trkpt>
      <trkpt lat="47.99906" lon="6.91591">
        <ele>762.3</ele>
        <time>2013-01-19T15:16:12.000Z</time>
      </trkpt>
      <trkpt lat="47.99907" lon="6.91585">
        <ele>762.5</ele>
        <time>2013-01-19T15:16:15.000Z</time>
      </trkpt>
      <trkpt lat="47.99907" lon="6.91582">
        <ele>762.6</ele>
        <time>2013-01-19T15:16:16.000Z</time>
      </trkpt>
      <trkpt lat="47.99907" lon="6.91579">
        <ele>763.1</ele>
        <time>2013-01-19T15:16:17.000Z</time>
      </trkpt>
      <trkpt lat="47.99908" lon="6.91575">
        <ele>763.5</ele>
        <time>2013-01-19T15:16:18.000Z</time>
      </trkpt>
      <trkpt lat="47.99907" lon="6.91572">
        <ele>765</ele>
        <time>2013-01-19T15:16:20.000Z</time>
      </trkpt>
      <trkpt lat="47.99909" lon="6.91568">
        <ele>764.7</ele>
        <time>2013-01-19T15:16:21.000Z</time>
      </trkpt>
      <trkpt lat="47.9991" lon="6.91563">
        <ele>765</ele>
        <time>2013-01-19T15:16:23.000Z</time>
      </trkpt>
      <trkpt lat="47.99911" lon="6.9156">
        <ele>766.5</ele>
        <time>2013-01-19T15:16:24.000Z</time>
      </trkpt>
      <trkpt lat="47.99914" lon="6.91564">
        <ele>770</ele>
        <time>2013-01-19T15:16:57.000Z</time>
      </trkpt>
      <trkpt lat="47.99913" lon="6.91567">
        <ele>769.4</ele>
        <time>2013-01-19T15:16:58.000Z</time>
      </trkpt>
      <trkpt lat="47.99912" lon="6.91571">
        <ele>768.7</ele>
        <time>2013-01-19T15:16:59.000Z</time>
      </trkpt>
      <trkpt lat="47.9991" lon="6.91577">
        <ele>769.3</ele>
        <time>2013-01-19T15:17:00.000Z</time>
      </trkpt>
      <trkpt lat="47.99911" lon="6.91581">
        <ele>769.4</ele>
        <time>2013-01-19T15:17:02.000Z</time>
      </trkpt>
      <trkpt lat="47.99911" lon="6.91584">
        <ele>768.5</ele>
        <time>2013-01-19T15:17:03.000Z</time>
      </trkpt>
      <trkpt lat="47.9991" lon="6.9159">
        <ele>767.9</ele>
        <time>2013-01-19T15:17:05.000Z</time>
      </trkpt>
      <trkpt lat="47.99909" lon="6.91592">
        <ele>767.8</ele>
        <time>2013-01-19T15:17:06.000Z</time>
      </trkpt>
      <trkpt lat="47.99907" lon="6.91597">
        <ele>767.4</ele>
        <time>2013-01-19T15:17:08.000Z</time>
      </trkpt>
      <trkpt lat="47.99907" lon="6.916">
        <ele>767.7</ele>
        <time>2013-01-19T15:17:09.000Z</time>
      </trkpt>
      <trkpt lat="47.99908" lon="6.91604">
        <ele>767.5</ele>
        <time>2013-01-19T15:17:10.000Z</time>
      </trkpt>
      <trkpt lat="47.99908" lon="6.91608">
        <ele>766.1</ele>
        <time>2013-01-19T15:17:11.000Z</time>
      </trkpt>
      <trkpt lat="47.99909" lon="6.91614">
        <ele>763.9</ele>
        <time>2013-01-19T15:17:14.000Z</time>
      </trkpt>
      <trkpt lat="47.99909" lon="6.91617">
        <ele>763.3</ele>
        <time>2013-01-19T15:17:15.000Z</time>
      </trkpt>
      <trkpt lat="47.9991" lon="6.91622">
        <ele>761.5</ele>
        <time>2013-01-19T15:17:17.000Z</time>
      </trkpt>
      <trkpt lat="47.99909" lon="6.91628">
        <ele>763</ele>
        <time>2013-01-19T15:17:18.000Z</time>
      </trkpt>
      <trkpt lat="47.99913" lon="6.9163">
        <ele>762.8</ele>
        <time>2013-01-19T15:17:19.000Z</time>
      </trkpt>
      <trkpt lat="47.99916" lon="6.91631">
        <ele>762.6</ele>
        <time>2013-01-19T15:17:20.000Z</time>
      </trkpt>
      <trkpt lat="47.99919" lon="6.91635">
        <ele>763.7</ele>
        <time>2013-01-19T15:17:22.000Z</time>
      </trkpt>
      <trkpt lat="47.99919" lon="6.91637">
        <ele>764.1</ele>
        <time>2013-01-19T15:17:23.000Z</time>
      </trkpt>
      <trkpt lat="47.99921" lon="6.91639">
        <ele>764.9</ele>
        <time>2013-01-19T15:17:25.000Z</time>
      </trkpt>
      <trkpt lat="47.99922" lon="6.91642">
        <ele>764.1</ele>
        <time>2013-01-19T15:17:26.000Z</time>
      </trkpt>
      <trkpt lat="47.9992" lon="6.91647">
        <ele>764</ele>
        <time>2013-01-19T15:17:28.000Z</time>
      </trkpt>
      <trkpt lat="47.99919" lon="6.91648">
        <ele>763.3</ele>
        <time>2013-01-19T15:17:29.000Z</time>
      </trkpt>
      <trkpt lat="47.99923" lon="6.9165">
        <ele>764.8</ele>
        <time>2013-01-19T15:17:31.000Z</time>
      </trkpt>
      <trkpt lat="47.99925" lon="6.91651">
        <ele>764.9</ele>
        <time>2013-01-19T15:17:32.000Z</time>
      </trkpt>
      <trkpt lat="47.99928" lon="6.91655">
        <ele>764.6</ele>
        <time>2013-01-19T15:17:36.000Z</time>
      </trkpt>
      <trkpt lat="47.99928" lon="6.91657">
        <ele>764.2</ele>
        <time>2013-01-19T15:17:37.000Z</time>
      </trkpt>
      <trkpt lat="47.99928" lon="6.91662">
        <ele>764.4</ele>
        <time>2013-01-19T15:17:40.000Z</time>
      </trkpt>
      <trkpt lat="47.99929" lon="6.91664">
        <ele>764.8</ele>
        <time>2013-01-19T15:17:41.000Z</time>
      </trkpt>
      <trkpt lat="47.9993" lon="6.91671">
        <ele>763.5</ele>
        <time>2013-01-19T15:17:44.000Z</time>
      </trkpt>
      <trkpt lat="47.9993" lon="6.91673">
        <ele>763.3</ele>
        <time>2013-01-19T15:17:45.000Z</time>
      </trkpt>
      <trkpt lat="47.99928" lon="6.91679">
        <ele>762.7</ele>
        <time>2013-01-19T15:17:49.000Z</time>
      </trkpt>
      <trkpt lat="47.99927" lon="6.9168">
        <ele>763</ele>
        <time>2013-01-19T15:17:50.000Z</time>
      </trkpt>
      <trkpt lat="47.9993" lon="6.91683">
        <ele>763.3</ele>
        <time>2013-01-19T15:17:52.000Z</time>
      </trkpt>
      <trkpt lat="47.99929" lon="6.91686">
        <ele>763.7</ele>
        <time>2013-01-19T15:17:53.000Z</time>
      </trkpt>
      <trkpt lat="47.99931" lon="6.91689">
        <ele>763.8</ele>
        <time>2013-01-19T15:17:56.000Z</time>
      </trkpt>
      <trkpt lat="47.99934" lon="6.91689">
        <ele>764.1</ele>
        <time>2013-01-19T15:17:57.000Z</time>
      </trkpt>
      <trkpt lat="47.99937" lon="6.91694">
        <ele>762.3</ele>
        <time>2013-01-19T15:18:01.000Z</time>
      </trkpt>
      <trkpt lat="47.9994" lon="6.91695">
        <ele>763.2</ele>
        <time>2013-01-19T15:18:02.000Z</time>
      </trkpt>
      <trkpt lat="47.99942" lon="6.91701">
        <ele>762.1</ele>
        <time>2013-01-19T15:18:06.000Z</time>
      </trkpt>
      <trkpt lat="47.99944" lon="6.91701">
        <ele>762.1</ele>
        <time>2013-01-19T15:18:07.000Z</time>
      </trkpt>
      <trkpt lat="47.99948" lon="6.917">
        <ele>759.3</ele>
        <time>2013-01-19T15:18:12.000Z</time>
      </trkpt>
      <trkpt lat="47.99952" lon="6.91699">
        <ele>758.4</ele>
        <time>2013-01-19T15:18:13.000Z</time>
      </trkpt>
      <trkpt lat="47.99956" lon="6.91697">
        <ele>757.7</ele>
        <time>2013-01-19T15:18:15.000Z</time>
      </trkpt>
      <trkpt lat="47.99957" lon="6.91698">
        <ele>756.2</ele>
        <time>2013-01-19T15:18:16.000Z</time>
      </trkpt>
      <trkpt lat="47.99959" lon="6.91702">
        <ele>754.9</ele>
        <time>2013-01-19T15:18:25.000Z</time>
      </trkpt>
      <trkpt lat="47.9996" lon="6.91703">
        <ele>755.4</ele>
        <time>2013-01-19T15:18:26.000Z</time>
      </trkpt>
      <trkpt lat="47.99964" lon="6.91705">
        <ele>755.2</ele>
        <time>2013-01-19T15:18:30.000Z</time>
      </trkpt>
      <trkpt lat="47.99966" lon="6.91705">
        <ele>755.9</ele>
        <time>2013-01-19T15:18:31.000Z</time>
      </trkpt>
      <trkpt lat="47.99968" lon="6.91705">
        <ele>754.7</ele>
        <time>2013-01-19T15:18:45.000Z</time>
      </trkpt>
      <trkpt lat="47.99971" lon="6.91705">
        <ele>754.2</ele>
        <time>2013-01-19T15:18:46.000Z</time>
      </trkpt>
      <trkpt lat="47.99975" lon="6.91703">
        <ele>750.6</ele>
        <time>2013-01-19T15:18:49.000Z</time>
      </trkpt>
      <trkpt lat="47.99978" lon="6.91703">
        <ele>751.7</ele>
        <time>2013-01-19T15:18:50.000Z</time>
      </trkpt>
      <trkpt lat="47.99981" lon="6.91703">
        <ele>751.7</ele>
        <time>2013-01-19T15:18:51.000Z</time>
      </trkpt>
      <trkpt lat="47.99985" lon="6.91701">
        <ele>751.7</ele>
        <time>2013-01-19T15:18:52.000Z</time>
      </trkpt>
      <trkpt lat="47.99987" lon="6.917">
        <ele>750.5</ele>
        <time>2013-01-19T15:18:54.000Z</time>
      </trkpt>
      <trkpt lat="47.99989" lon="6.91699">
        <ele>749.8</ele>
        <time>2013-01-19T15:18:55.000Z</time>
      </trkpt>
      <trkpt lat="47.99993" lon="6.91697">
        <ele>748.8</ele>
        <time>2013-01-19T15:18:58.000Z</time>
      </trkpt>
      <trkpt lat="47.99995" lon="6.91696">
        <ele>748.6</ele>
        <time>2013-01-19T15:18:59.000Z</time>
      </trkpt>
      <trkpt lat="47.99997" lon="6.91694">
        <ele>746.5</ele>
        <time>2013-01-19T15:19:02.000Z</time>
      </trkpt>
      <trkpt lat="47.99999" lon="6.91692">
        <ele>745.9</ele>
        <time>2013-01-19T15:19:03.000Z</time>
      </trkpt>
      <trkpt lat="48.00002" lon="6.9169">
        <ele>748.6</ele>
        <time>2013-01-19T15:19:05.000Z</time>
      </trkpt>
      <trkpt lat="48.00003" lon="6.91689">
        <ele>749</ele>
        <time>2013-01-19T15:19:06.000Z</time>
      </trkpt>
      <trkpt lat="48.00006" lon="6.91684">
        <ele>749.6</ele>
        <time>2013-01-19T15:19:10.000Z</time>
      </trkpt>
      <trkpt lat="48.00007" lon="6.91683">
        <ele>749.8</ele>
        <time>2013-01-19T15:19:11.000Z</time>
      </trkpt>
      <trkpt lat="48.00011" lon="6.91681">
        <ele>751.9</ele>
        <time>2013-01-19T15:19:13.000Z</time>
      </trkpt>
      <trkpt lat="48.00013" lon="6.9168">
        <ele>752.3</ele>
        <time>2013-01-19T15:19:14.000Z</time>
      </trkpt>
      <trkpt lat="48.00016" lon="6.91675">
        <ele>751.8</ele>
        <time>2013-01-19T15:19:19.000Z</time>
      </trkpt>
      <trkpt lat="48.00016" lon="6.91674">
        <ele>751.5</ele>
        <time>2013-01-19T15:19:20.000Z</time>
      </trkpt>
      <trkpt lat="48.00019" lon="6.91671">
        <ele>750.6</ele>
        <time>2013-01-19T15:19:23.000Z</time>
      </trkpt>
      <trkpt lat="48.0002" lon="6.9167">
        <ele>751.6</ele>
        <time>2013-01-19T15:19:24.000Z</time>
      </trkpt>
      <trkpt lat="48.0002" lon="6.91666">
        <ele>750.8</ele>
        <time>2013-01-19T15:19:28.000Z</time>
      </trkpt>
      <trkpt lat="48.00018" lon="6.91661">
        <ele>751.5</ele>
        <time>2013-01-19T15:19:29.000Z</time>
      </trkpt>
      <trkpt lat="48.00016" lon="6.91657">
        <ele>751.3</ele>
        <time>2013-01-19T15:19:31.000Z</time>
      </trkpt>
      <trkpt lat="48.00016" lon="6.91655">
        <ele>751</ele>
        <time>2013-01-19T15:19:32.000Z</time>
      </trkpt>
      <trkpt lat="48.00014" lon="6.91651">
        <ele>741.5</ele>
        <time>2013-01-19T15:19:36.000Z</time>
      </trkpt>
      <trkpt lat="48.00012" lon="6.91649">
        <ele>740.7</ele>
        <time>2013-01-19T15:19:37.000Z</time>
      </trkpt>
      <trkpt lat="48.00009" lon="6.91644">
        <ele>738.1</ele>
        <time>2013-01-19T15:19:40.000Z</time>
      </trkpt>
      <trkpt lat="48.00008" lon="6.91641">
        <ele>738.9</ele>
        <time>2013-01-19T15:19:41.000Z</time>
      </trkpt>
      <trkpt lat="48.00006" lon="6.91636">
        <ele>739</ele>
        <time>2013-01-19T15:19:45.000Z</time>
      </trkpt>
      <trkpt lat="48.00006" lon="6.91634">
        <ele>739.7</ele>
        <time>2013-01-19T15:19:46.000Z</time>
      </trkpt>
      <trkpt lat="48.00004" lon="6.91629">
        <ele>738.8</ele>
        <time>2013-01-19T15:19:48.000Z</time>
      </trkpt>
      <trkpt lat="48.00003" lon="6.91627">
        <ele>738.2</ele>
        <time>2013-01-19T15:19:49.000Z</time>
      </trkpt>
      <trkpt lat="48.00002" lon="6.91623">
        <ele>739.1</ele>
        <time>2013-01-19T15:19:50.000Z</time>
      </trkpt>
      <trkpt lat="48.00002" lon="6.91619">
        <ele>739.3</ele>
        <time>2013-01-19T15:19:51.000Z</time>
      </trkpt>
      <trkpt lat="48" lon="6.91613">
        <ele>741.8</ele>
        <time>2013-01-19T15:19:55.000Z</time>
      </trkpt>
      <trkpt lat="47.99999" lon="6.91611">
        <ele>741.5</ele>
        <time>2013-01-19T15:19:56.000Z</time>
      </trkpt>
      <trkpt lat="47.99998" lon="6.91605">
        <ele>744</ele>
        <time>2013-01-19T15:19:59.000Z</time>
      </trkpt>
      <trkpt lat="47.99998" lon="6.91603">
        <ele>744.5</ele>
        <time>2013-01-19T15:20:00.000Z</time>
      </trkpt>
      <trkpt lat="47.99998" lon="6.91598">
        <ele>747.5</ele>
        <time>2013-01-19T15:20:02.000Z</time>
      </trkpt>
      <trkpt lat="47.99997" lon="6.91595">
        <ele>748</ele>
        <time>2013-01-19T15:20:03.000Z</time>
      </trkpt>
      <trkpt lat="47.99997" lon="6.9159">
        <ele>747.1</ele>
        <time>2013-01-19T15:20:05.000Z</time>
      </trkpt>
      <trkpt lat="47.99996" lon="6.91588">
        <ele>747.4</ele>
        <time>2013-01-19T15:20:06.000Z</time>
      </trkpt>
      <trkpt lat="47.99996" lon="6.91582">
        <ele>747.7</ele>
        <time>2013-01-19T15:20:10.000Z</time>
      </trkpt>
      <trkpt lat="47.99996" lon="6.9158">
        <ele>747.9</ele>
        <time>2013-01-19T15:20:11.000Z</time>
      </trkpt>
      <trkpt lat="47.99996" lon="6.91573">
        <ele>747.1</ele>
        <time>2013-01-19T15:20:15.000Z</time>
      </trkpt>
      <trkpt lat="47.99996" lon="6.91572">
        <ele>747.2</ele>
        <time>2013-01-19T15:20:16.000Z</time>
      </trkpt>
      <trkpt lat="47.99996" lon="6.91568">
        <ele>746.3</ele>
        <time>2013-01-19T15:20:19.000Z</time>
      </trkpt>
      <trkpt lat="47.99994" lon="6.91564">
        <ele>745.1</ele>
        <time>2013-01-19T15:20:20.000Z</time>
      </trkpt>
      <trkpt lat="47.99993" lon="6.91558">
        <ele>744.9</ele>
        <time>2013-01-19T15:20:23.000Z</time>
      </trkpt>
      <trkpt lat="47.99993" lon="6.91556">
        <ele>744.5</ele>
        <time>2013-01-19T15:20:24.000Z</time>
      </trkpt>
      <trkpt lat="47.99994" lon="6.9155">
        <ele>744.7</ele>
        <time>2013-01-19T15:20:28.000Z</time>
      </trkpt>
      <trkpt lat="47.99994" lon="6.91548">
        <ele>745.2</ele>
        <time>2013-01-19T15:20:29.000Z</time>
      </trkpt>
      <trkpt lat="47.99994" lon="6.91544">
        <ele>745.6</ele>
        <time>2013-01-19T15:20:30.000Z</time>
      </trkpt>
      <trkpt lat="47.99994" lon="6.91541">
        <ele>745.7</ele>
        <time>2013-01-19T15:20:31.000Z</time>
      </trkpt>
      <trkpt lat="47.99995" lon="6.91536">
        <ele>746.1</ele>
        <time>2013-01-19T15:20:34.000Z</time>
      </trkpt>
      <trkpt lat="47.99995" lon="6.91534">
        <ele>746</ele>
        <time>2013-01-19T15:20:35.000Z</time>
      </trkpt>
      <trkpt lat="47.99996" lon="6.91528">
        <ele>745.3</ele>
        <time>2013-01-19T15:20:39.000Z</time>
      </trkpt>
      <trkpt lat="47.99997" lon="6.91527">
        <ele>745.5</ele>
        <time>2013-01-19T15:20:40.000Z</time>
      </trkpt>
      <trkpt lat="47.99997" lon="6.91523">
        <ele>746.2</ele>
        <time>2013-01-19T15:20:41.000Z</time>
      </trkpt>
      <trkpt lat="47.99997" lon="6.9152">
        <ele>746.3</ele>
        <time>2013-01-19T15:20:42.000Z</time>
      </trkpt>
      <trkpt lat="47.99998" lon="6.91515">
        <ele>746.1</ele>
        <time>2013-01-19T15:20:46.000Z</time>
      </trkpt>
      <trkpt lat="47.99998" lon="6.91513">
        <ele>746.3</ele>
        <time>2013-01-19T15:20:47.000Z</time>
      </trkpt>
      <trkpt lat="48" lon="6.91508">
        <ele>745.7</ele>
        <time>2013-01-19T15:20:51.000Z</time>
      </trkpt>
      <trkpt lat="48.00001" lon="6.91506">
        <ele>745.8</ele>
        <time>2013-01-19T15:20:52.000Z</time>
      </trkpt>
      <trkpt lat="48.00001" lon="6.915">
        <ele>744.1</ele>
        <time>2013-01-19T15:20:58.000Z</time>
      </trkpt>
      <trkpt lat="48" lon="6.91499">
        <ele>743.7</ele>
        <time>2013-01-19T15:20:59.000Z</time>
      </trkpt>
      <trkpt lat="48.00002" lon="6.91494">
        <ele>743.3</ele>
        <time>2013-01-19T15:21:01.000Z</time>
      </trkpt>
      <trkpt lat="48.00003" lon="6.91492">
        <ele>743.2</ele>
        <time>2013-01-19T15:21:02.000Z</time>
      </trkpt>
      <trkpt lat="48.00004" lon="6.91486">
        <ele>742.4</ele>
        <time>2013-01-19T15:21:07.000Z</time>
      </trkpt>
      <trkpt lat="48.00005" lon="6.91484">
        <ele>742.8</ele>
        <time>2013-01-19T15:21:08.000Z</time>
      </trkpt>
      <trkpt lat="48.00005" lon="6.91478">
        <ele>744.3</ele>
        <time>2013-01-19T15:21:12.000Z</time>
      </trkpt>
      <trkpt lat="48.00006" lon="6.91477">
        <ele>744.2</ele>
        <time>2013-01-19T15:21:13.000Z</time>
      </trkpt>
      <trkpt lat="48.00008" lon="6.91472">
        <ele>744.8</ele>
        <time>2013-01-19T15:21:16.000Z</time>
      </trkpt>
      <trkpt lat="48.00009" lon="6.91469">
        <ele>744.7</ele>
        <time>2013-01-19T15:21:17.000Z</time>
      </trkpt>
      <trkpt lat="48.00009" lon="6.91464">
        <ele>744.6</ele>
        <time>2013-01-19T15:21:22.000Z</time>
      </trkpt>
      <trkpt lat="48.0001" lon="6.91462">
        <ele>744.6</ele>
        <time>2013-01-19T15:21:23.000Z</time>
      </trkpt>
      <trkpt lat="48.00012" lon="6.91456">
        <ele>745</ele>
        <time>2013-01-19T15:21:27.000Z</time>
      </trkpt>
      <trkpt lat="48.00012" lon="6.91455">
        <ele>744.7</ele>
        <time>2013-01-19T15:21:28.000Z</time>
      </trkpt>
      <trkpt lat="48.00014" lon="6.91451">
        <ele>744.7</ele>
        <time>2013-01-19T15:21:30.000Z</time>
      </trkpt>
      <trkpt lat="48.00015" lon="6.91448">
        <ele>745</ele>
        <time>2013-01-19T15:21:31.000Z</time>
      </trkpt>
      <trkpt lat="48.00015" lon="6.91441">
        <ele>744.7</ele>
        <time>2013-01-19T15:21:37.000Z</time>
      </trkpt>
      <trkpt lat="48.00016" lon="6.9144">
        <ele>744.3</ele>
        <time>2013-01-19T15:21:38.000Z</time>
      </trkpt>
      <trkpt lat="48.00017" lon="6.91435">
        <ele>743.9</ele>
        <time>2013-01-19T15:21:46.000Z</time>
      </trkpt>
      <trkpt lat="48.00018" lon="6.9143">
        <ele>744.5</ele>
        <time>2013-01-19T15:21:47.000Z</time>
      </trkpt>
      <trkpt lat="48.00021" lon="6.91428">
        <ele>744.6</ele>
        <time>2013-01-19T15:21:48.000Z</time>
      </trkpt>
      <trkpt lat="48.00021" lon="6.91425">
        <ele>744.7</ele>
        <time>2013-01-19T15:21:49.000Z</time>
      </trkpt>
      <trkpt lat="48.00021" lon="6.9142">
        <ele>746.3</ele>
        <time>2013-01-19T15:21:51.000Z</time>
      </trkpt>
      <trkpt lat="48.00023" lon="6.91417">
        <ele>744.4</ele>
        <time>2013-01-19T15:21:52.000Z</time>
      </trkpt>
      <trkpt lat="48.00025" lon="6.91413">
        <ele>743.6</ele>
        <time>2013-01-19T15:21:54.000Z</time>
      </trkpt>
      <trkpt lat="48.00025" lon="6.91411">
        <ele>744.1</ele>
        <time>2013-01-19T15:21:55.000Z</time>
      </trkpt>
      <trkpt lat="48.00025" lon="6.91407">
        <ele>744.5</ele>
        <time>2013-01-19T15:21:57.000Z</time>
      </trkpt>
      <trkpt lat="48.00023" lon="6.91399">
        <ele>745.4</ele>
        <time>2013-01-19T15:21:58.000Z</time>
      </trkpt>
      <trkpt lat="48.00022" lon="6.91394">
        <ele>743.4</ele>
        <time>2013-01-19T15:21:59.000Z</time>
      </trkpt>
      <trkpt lat="48.00022" lon="6.91391">
        <ele>743.5</ele>
        <time>2013-01-19T15:22:00.000Z</time>
      </trkpt>
      <trkpt lat="48.00022" lon="6.91385">
        <ele>744.9</ele>
        <time>2013-01-19T15:22:03.000Z</time>
      </trkpt>
      <trkpt lat="48.00022" lon="6.91383">
        <ele>745.2</ele>
        <time>2013-01-19T15:22:04.000Z</time>
      </trkpt>
      <trkpt lat="48.00023" lon="6.91377">
        <ele>745.3</ele>
        <time>2013-01-19T15:22:07.000Z</time>
      </trkpt>
      <trkpt lat="48.00022" lon="6.91374">
        <ele>745.5</ele>
        <time>2013-01-19T15:22:08.000Z</time>
      </trkpt>
      <trkpt lat="48.00021" lon="6.91368">
        <ele>745.9</ele>
        <time>2013-01-19T15:22:11.000Z</time>
      </trkpt>
      <trkpt lat="48.00021" lon="6.91366">
        <ele>746</ele>
        <time>2013-01-19T15:22:12.000Z</time>
      </trkpt>
      <trkpt lat="48.0002" lon="6.9136">
        <ele>747.9</ele>
        <time>2013-01-19T15:22:14.000Z</time>
      </trkpt>
      <trkpt lat="48.0002" lon="6.91358">
        <ele>747.8</ele>
        <time>2013-01-19T15:22:15.000Z</time>
      </trkpt>
      <trkpt lat="48.00019" lon="6.91352">
        <ele>750.5</ele>
        <time>2013-01-19T15:22:19.000Z</time>
      </trkpt>
      <trkpt lat="48.00019" lon="6.9135">
        <ele>750.6</ele>
        <time>2013-01-19T15:22:20.000Z</time>
      </trkpt>
      <trkpt lat="48.0002" lon="6.91346">
        <ele>750.4</ele>
        <time>2013-01-19T15:22:22.000Z</time>
      </trkpt>
      <trkpt lat="48.0002" lon="6.91344">
        <ele>751.1</ele>
        <time>2013-01-19T15:22:23.000Z</time>
      </trkpt>
      <trkpt lat="48.00022" lon="6.91338">
        <ele>752.2</ele>
        <time>2013-01-19T15:22:28.000Z</time>
      </trkpt>
      <trkpt lat="48.00023" lon="6.91337">
        <ele>752.1</ele>
        <time>2013-01-19T15:22:29.000Z</time>
      </trkpt>
      <trkpt lat="48.00025" lon="6.91334">
        <ele>752.5</ele>
        <time>2013-01-19T15:22:32.000Z</time>
      </trkpt>
      <trkpt lat="48.00026" lon="6.91333">
        <ele>752.3</ele>
        <time>2013-01-19T15:22:33.000Z</time>
      </trkpt>
      <trkpt lat="48.00028" lon="6.91329">
        <ele>752.2</ele>
        <time>2013-01-19T15:22:35.000Z</time>
      </trkpt>
      <trkpt lat="48.0003" lon="6.91328">
        <ele>752</ele>
        <time>2013-01-19T15:22:36.000Z</time>
      </trkpt>
      <trkpt lat="48.00032" lon="6.91322">
        <ele>751.3</ele>
        <time>2013-01-19T15:22:42.000Z</time>
      </trkpt>
      <trkpt lat="48.00032" lon="6.91319">
        <ele>751.1</ele>
        <time>2013-01-19T15:22:43.000Z</time>
      </trkpt>
      <trkpt lat="48.00031" lon="6.91313">
        <ele>751.3</ele>
        <time>2013-01-19T15:22:47.000Z</time>
      </trkpt>
      <trkpt lat="48.00032" lon="6.9131">
        <ele>750.9</ele>
        <time>2013-01-19T15:22:48.000Z</time>
      </trkpt>
      <trkpt lat="48.00033" lon="6.91308">
        <ele>751</ele>
        <time>2013-01-19T15:22:49.000Z</time>
      </trkpt>
      <trkpt lat="48.00033" lon="6.91304">
        <ele>750.6</ele>
        <time>2013-01-19T15:22:50.000Z</time>
      </trkpt>
      <trkpt lat="48.00034" lon="6.91301">
        <ele>751.2</ele>
        <time>2013-01-19T15:22:51.000Z</time>
      </trkpt>
      <trkpt lat="48.00037" lon="6.913">
        <ele>750.4</ele>
        <time>2013-01-19T15:22:52.000Z</time>
      </trkpt>
      <trkpt lat="48.0004" lon="6.91297">
        <ele>749.9</ele>
        <time>2013-01-19T15:22:54.000Z</time>
      </trkpt>
      <trkpt lat="48.00043" lon="6.91297">
        <ele>749.2</ele>
        <time>2013-01-19T15:22:55.000Z</time>
      </trkpt>
      <trkpt lat="48.00045" lon="6.91292">
        <ele>748.4</ele>
        <time>2013-01-19T15:22:57.000Z</time>
      </trkpt>
      <trkpt lat="48.00045" lon="6.9129">
        <ele>748.1</ele>
        <time>2013-01-19T15:22:58.000Z</time>
      </trkpt>
      <trkpt lat="48.00047" lon="6.91286">
        <ele>748.4</ele>
        <time>2013-01-19T15:23:01.000Z</time>
      </trkpt>
      <trkpt lat="48.00047" lon="6.91284">
        <ele>748.1</ele>
        <time>2013-01-19T15:23:02.000Z</time>
      </trkpt>
      <trkpt lat="48.0005" lon="6.91279">
        <ele>748</ele>
        <time>2013-01-19T15:23:04.000Z</time>
      </trkpt>
      <trkpt lat="48.00049" lon="6.91276">
        <ele>748.1</ele>
        <time>2013-01-19T15:23:05.000Z</time>
      </trkpt>
      <trkpt lat="48.00051" lon="6.9127">
        <ele>747.4</ele>
        <time>2013-01-19T15:23:08.000Z</time>
      </trkpt>
      <trkpt lat="48.00051" lon="6.91268">
        <ele>747.9</ele>
        <time>2013-01-19T15:23:09.000Z</time>
      </trkpt>
      <trkpt lat="48.00053" lon="6.91264">
        <ele>748.1</ele>
        <time>2013-01-19T15:23:11.000Z</time>
      </trkpt>
      <trkpt lat="48.00055" lon="6.91262">
        <ele>747.3</ele>
        <time>2013-01-19T15:23:12.000Z</time>
      </trkpt>
      <trkpt lat="48.00055" lon="6.91257">
        <ele>746.3</ele>
        <time>2013-01-19T15:23:16.000Z</time>
      </trkpt>
      <trkpt lat="48.00056" lon="6.91254">
        <ele>746.5</ele>
        <time>2013-01-19T15:23:17.000Z</time>
      </trkpt>
      <trkpt lat="48.00058" lon="6.91249">
        <ele>745.8</ele>
        <time>2013-01-19T15:23:19.000Z</time>
      </trkpt>
      <trkpt lat="48.0006" lon="6.91247">
        <ele>746.4</ele>
        <time>2013-01-19T15:23:20.000Z</time>
      </trkpt>
      <trkpt lat="48.0006" lon="6.91241">
        <ele>745.3</ele>
        <time>2013-01-19T15:23:28.000Z</time>
      </trkpt>
      <trkpt lat="48.00061" lon="6.9124">
        <ele>745.1</ele>
        <time>2013-01-19T15:23:29.000Z</time>
      </trkpt>
      <trkpt lat="48.00062" lon="6.91237">
        <ele>745.9</ele>
        <time>2013-01-19T15:23:32.000Z</time>
      </trkpt>
      <trkpt lat="48.00065" lon="6.91235">
        <ele>744.5</ele>
        <time>2013-01-19T15:23:33.000Z</time>
      </trkpt>
      <trkpt lat="48.00066" lon="6.9123">
        <ele>745.2</ele>
        <time>2013-01-19T15:23:34.000Z</time>
      </trkpt>
      <trkpt lat="48.00067" lon="6.91228">
        <ele>744.4</ele>
        <time>2013-01-19T15:23:35.000Z</time>
      </trkpt>
      <trkpt lat="48.0007" lon="6.91227">
        <ele>744.2</ele>
        <time>2013-01-19T15:23:36.000Z</time>
      </trkpt>
      <trkpt lat="48.00071" lon="6.91225">
        <ele>743</ele>
        <time>2013-01-19T15:23:37.000Z</time>
      </trkpt>
      <trkpt lat="48.00073" lon="6.9122">
        <ele>743.5</ele>
        <time>2013-01-19T15:23:38.000Z</time>
      </trkpt>
      <trkpt lat="48.00074" lon="6.91216">
        <ele>743.2</ele>
        <time>2013-01-19T15:23:39.000Z</time>
      </trkpt>
      <trkpt lat="48.00073" lon="6.9121">
        <ele>743.8</ele>
        <time>2013-01-19T15:23:41.000Z</time>
      </trkpt>
      <trkpt lat="48.00074" lon="6.91206">
        <ele>743.1</ele>
        <time>2013-01-19T15:23:42.000Z</time>
      </trkpt>
      <trkpt lat="48.00075" lon="6.91202">
        <ele>743.7</ele>
        <time>2013-01-19T15:23:43.000Z</time>
      </trkpt>
      <trkpt lat="48.00075" lon="6.91198">
        <ele>744.6</ele>
        <time>2013-01-19T15:23:44.000Z</time>
      </trkpt>
      <trkpt lat="48.00077" lon="6.91196">
        <ele>744.7</ele>
        <time>2013-01-19T15:23:46.000Z</time>
      </trkpt>
      <trkpt lat="48.00079" lon="6.91195">
        <ele>744.9</ele>
        <time>2013-01-19T15:23:47.000Z</time>
      </trkpt>
      <trkpt lat="48.00082" lon="6.91191">
        <ele>744.6</ele>
        <time>2013-01-19T15:23:51.000Z</time>
      </trkpt>
      <trkpt lat="48.00083" lon="6.91189">
        <ele>745.3</ele>
        <time>2013-01-19T15:23:52.000Z</time>
      </trkpt>
      <trkpt lat="48.00085" lon="6.91185">
        <ele>743.5</ele>
        <time>2013-01-19T15:23:56.000Z</time>
      </trkpt>
      <trkpt lat="48.00086" lon="6.91183">
        <ele>743.9</ele>
        <time>2013-01-19T15:23:57.000Z</time>
      </trkpt>
      <trkpt lat="48.00087" lon="6.91178">
        <ele>743.3</ele>
        <time>2013-01-19T15:24:01.000Z</time>
      </trkpt>
      <trkpt lat="48.00088" lon="6.91177">
        <ele>743.3</ele>
        <time>2013-01-19T15:24:02.000Z</time>
      </trkpt>
      <trkpt lat="48.00091" lon="6.91175">
        <ele>742</ele>
        <time>2013-01-19T15:24:05.000Z</time>
      </trkpt>
      <trkpt lat="48.00091" lon="6.91172">
        <ele>741.7</ele>
        <time>2013-01-19T15:24:06.000Z</time>
      </trkpt>
      <trkpt lat="48.00091" lon="6.91167">
        <ele>742</ele>
        <time>2013-01-19T15:24:08.000Z</time>
      </trkpt>
      <trkpt lat="48.00093" lon="6.91165">
        <ele>742.4</ele>
        <time>2013-01-19T15:24:09.000Z</time>
      </trkpt>
      <trkpt lat="48.00093" lon="6.91159">
        <ele>743.8</ele>
        <time>2013-01-19T15:24:12.000Z</time>
      </trkpt>
      <trkpt lat="48.00093" lon="6.91157">
        <ele>744.3</ele>
        <time>2013-01-19T15:24:13.000Z</time>
      </trkpt>
      <trkpt lat="48.00096" lon="6.91152">
        <ele>744.5</ele>
        <time>2013-01-19T15:24:15.000Z</time>
      </trkpt>
      <trkpt lat="48.00097" lon="6.91149">
        <ele>744.7</ele>
        <time>2013-01-19T15:24:16.000Z</time>
      </trkpt>
      <trkpt lat="48.00101" lon="6.91146">
        <ele>743.9</ele>
        <time>2013-01-19T15:24:19.000Z</time>
      </trkpt>
      <trkpt lat="48.00102" lon="6.91145">
        <ele>744.3</ele>
        <time>2013-01-19T15:24:20.000Z</time>
      </trkpt>
      <trkpt lat="48.00104" lon="6.9114">
        <ele>745.3</ele>
        <time>2013-01-19T15:24:23.000Z</time>
      </trkpt>
      <trkpt lat="48.00107" lon="6.91137">
        <ele>745.2</ele>
        <time>2013-01-19T15:24:24.000Z</time>
      </trkpt>
      <trkpt lat="48.00108" lon="6.91133">
        <ele>746.6</ele>
        <time>2013-01-19T15:24:28.000Z</time>
      </trkpt>
      <trkpt lat="48.00107" lon="6.91129">
        <ele>746.3</ele>
        <time>2013-01-19T15:24:29.000Z</time>
      </trkpt>
      <trkpt lat="48.0011" lon="6.91125">
        <ele>746.7</ele>
        <time>2013-01-19T15:24:32.000Z</time>
      </trkpt>
      <trkpt lat="48.00111" lon="6.91123">
        <ele>746.8</ele>
        <time>2013-01-19T15:24:33.000Z</time>
      </trkpt>
      <trkpt lat="48.00114" lon="6.91118">
        <ele>747.4</ele>
        <time>2013-01-19T15:24:36.000Z</time>
      </trkpt>
      <trkpt lat="48.00114" lon="6.91114">
        <ele>747.6</ele>
        <time>2013-01-19T15:24:37.000Z</time>
      </trkpt>
      <trkpt lat="48.00117" lon="6.91112">
        <ele>747.5</ele>
        <time>2013-01-19T15:24:39.000Z</time>
      </trkpt>
      <trkpt lat="48.00118" lon="6.91111">
        <ele>747.3</ele>
        <time>2013-01-19T15:24:40.000Z</time>
      </trkpt>
      <trkpt lat="48.0012" lon="6.91108">
        <ele>747.1</ele>
        <time>2013-01-19T15:24:42.000Z</time>
      </trkpt>
      <trkpt lat="48.00121" lon="6.91106">
        <ele>747.4</ele>
        <time>2013-01-19T15:24:43.000Z</time>
      </trkpt>
      <trkpt lat="48.00123" lon="6.911">
        <ele>747.7</ele>
        <time>2013-01-19T15:24:46.000Z</time>
      </trkpt>
      <trkpt lat="48.00124" lon="6.91099">
        <ele>746.8</ele>
        <time>2013-01-19T15:24:47.000Z</time>
      </trkpt>
      <trkpt lat="48.00128" lon="6.91095">
        <ele>747</ele>
        <time>2013-01-19T15:24:50.000Z</time>
      </trkpt>
      <trkpt lat="48.00128" lon="6.91089">
        <ele>746.6</ele>
        <time>2013-01-19T15:24:52.000Z</time>
      </trkpt>
      <trkpt lat="48.0013" lon="6.91085">
        <ele>746.5</ele>
        <time>2013-01-19T15:24:57.000Z</time>
      </trkpt>
      <trkpt lat="48.00131" lon="6.91084">
        <ele>746.6</ele>
        <time>2013-01-19T15:24:58.000Z</time>
      </trkpt>
      <trkpt lat="48.00133" lon="6.91079">
        <ele>746.5</ele>
        <time>2013-01-19T15:25:00.000Z</time>
      </trkpt>
      <trkpt lat="48.00133" lon="6.91077">
        <ele>746.7</ele>
        <time>2013-01-19T15:25:01.000Z</time>
      </trkpt>
      <trkpt lat="48.00135" lon="6.91073">
        <ele>747</ele>
        <time>2013-01-19T15:25:03.000Z</time>
      </trkpt>
      <trkpt lat="48.00136" lon="6.91072">
        <ele>747.5</ele>
        <time>2013-01-19T15:25:04.000Z</time>
      </trkpt>
      <trkpt lat="48.00137" lon="6.91066">
        <ele>747</ele>
        <time>2013-01-19T15:25:07.000Z</time>
      </trkpt>
      <trkpt lat="48.0014" lon="6.91065">
        <ele>746.3</ele>
        <time>2013-01-19T15:25:08.000Z</time>
      </trkpt>
      <trkpt lat="48.00141" lon="6.91059">
        <ele>746.8</ele>
        <time>2013-01-19T15:25:10.000Z</time>
      </trkpt>
      <trkpt lat="48.00142" lon="6.91057">
        <ele>746.7</ele>
        <time>2013-01-19T15:25:11.000Z</time>
      </trkpt>
      <trkpt lat="48.00142" lon="6.91053">
        <ele>746.6</ele>
        <time>2013-01-19T15:25:14.000Z</time>
      </trkpt>
      <trkpt lat="48.00145" lon="6.91051">
        <ele>747</ele>
        <time>2013-01-19T15:25:15.000Z</time>
      </trkpt>
      <trkpt lat="48.00145" lon="6.91045">
        <ele>746.8</ele>
        <time>2013-01-19T15:25:19.000Z</time>
      </trkpt>
      <trkpt lat="48.00143" lon="6.91044">
        <ele>746.5</ele>
        <time>2013-01-19T15:25:20.000Z</time>
      </trkpt>
      <trkpt lat="48.00146" lon="6.91042">
        <ele>747.7</ele>
        <time>2013-01-19T15:25:21.000Z</time>
      </trkpt>
      <trkpt lat="48.00148" lon="6.9104">
        <ele>748.4</ele>
        <time>2013-01-19T15:25:22.000Z</time>
      </trkpt>
      <trkpt lat="48.00151" lon="6.91036">
        <ele>748.3</ele>
        <time>2013-01-19T15:25:24.000Z</time>
      </trkpt>
      <trkpt lat="48.00152" lon="6.91035">
        <ele>748.1</ele>
        <time>2013-01-19T15:25:25.000Z</time>
      </trkpt>
      <trkpt lat="48.00155" lon="6.91032">
        <ele>747.5</ele>
        <time>2013-01-19T15:25:29.000Z</time>
      </trkpt>
      <trkpt lat="48.00157" lon="6.9103">
        <ele>747.8</ele>
        <time>2013-01-19T15:25:30.000Z</time>
      </trkpt>
      <trkpt lat="48.0016" lon="6.91031">
        <ele>748.6</ele>
        <time>2013-01-19T15:25:34.000Z</time>
      </trkpt>
      <trkpt lat="48.00162" lon="6.91032">
        <ele>748.6</ele>
        <time>2013-01-19T15:25:35.000Z</time>
      </trkpt>
      <trkpt lat="48.00164" lon="6.91029">
        <ele>748.4</ele>
        <time>2013-01-19T15:26:13.000Z</time>
      </trkpt>
      <trkpt lat="48.00167" lon="6.91028">
        <ele>747.8</ele>
        <time>2013-01-19T15:26:14.000Z</time>
      </trkpt>
      <trkpt lat="48.00173" lon="6.91027">
        <ele>750.5</ele>
        <time>2013-01-19T15:26:16.000Z</time>
      </trkpt>
      <trkpt lat="48.00175" lon="6.91027">
        <ele>751.9</ele>
        <time>2013-01-19T15:26:23.000Z</time>
      </trkpt>
      <trkpt lat="48.00178" lon="6.91026">
        <ele>750.8</ele>
        <time>2013-01-19T15:26:24.000Z</time>
      </trkpt>
      <trkpt lat="48.00182" lon="6.91024">
        <ele>748.1</ele>
        <time>2013-01-19T15:26:30.000Z</time>
      </trkpt>
      <trkpt lat="48.00183" lon="6.91024">
        <ele>748.4</ele>
        <time>2013-01-19T15:26:31.000Z</time>
      </trkpt>
      <trkpt lat="48.00186" lon="6.91023">
        <ele>742.5</ele>
        <time>2013-01-19T15:26:51.000Z</time>
      </trkpt>
      <trkpt lat="48.00189" lon="6.91022">
        <ele>742.1</ele>
        <time>2013-01-19T15:26:52.000Z</time>
      </trkpt>
      <trkpt lat="48.00191" lon="6.91021">
        <ele>741.7</ele>
        <time>2013-01-19T15:26:53.000Z</time>
      </trkpt>
      <trkpt lat="48.00193" lon="6.91021">
        <ele>741.6</ele>
        <time>2013-01-19T15:26:54.000Z</time>
      </trkpt>
      <trkpt lat="48.00196" lon="6.91017">
        <ele>742.4</ele>
        <time>2013-01-19T15:26:55.000Z</time>
      </trkpt>
      <trkpt lat="48.00198" lon="6.91016">
        <ele>741.9</ele>
        <time>2013-01-19T15:26:56.000Z</time>
      </trkpt>
      <trkpt lat="48.00202" lon="6.91016">
        <ele>742.7</ele>
        <time>2013-01-19T15:26:58.000Z</time>
      </trkpt>
      <trkpt lat="48.00203" lon="6.91013">
        <ele>743.5</ele>
        <time>2013-01-19T15:26:59.000Z</time>
      </trkpt>
      <trkpt lat="48.00205" lon="6.91013">
        <ele>744.6</ele>
        <time>2013-01-19T15:27:00.000Z</time>
      </trkpt>
      <trkpt lat="48.00208" lon="6.91017">
        <ele>744.4</ele>
        <time>2013-01-19T15:27:01.000Z</time>
      </trkpt>
      <trkpt lat="48.0021" lon="6.91021">
        <ele>743.5</ele>
        <time>2013-01-19T15:27:04.000Z</time>
      </trkpt>
      <trkpt lat="48.00211" lon="6.91022">
        <ele>743.5</ele>
        <time>2013-01-19T15:27:05.000Z</time>
      </trkpt>
      <trkpt lat="48.00214" lon="6.91023">
        <ele>743.1</ele>
        <time>2013-01-19T15:27:07.000Z</time>
      </trkpt>
      <trkpt lat="48.00218" lon="6.91022">
        <ele>742.2</ele>
        <time>2013-01-19T15:27:08.000Z</time>
      </trkpt>
      <trkpt lat="48.00222" lon="6.91021">
        <ele>741.7</ele>
        <time>2013-01-19T15:27:10.000Z</time>
      </trkpt>
      <trkpt lat="48.00224" lon="6.9102">
        <ele>742.2</ele>
        <time>2013-01-19T15:27:11.000Z</time>
      </trkpt>
      <trkpt lat="48.00228" lon="6.91018">
        <ele>741.8</ele>
        <time>2013-01-19T15:27:15.000Z</time>
      </trkpt>
      <trkpt lat="48.00229" lon="6.91016">
        <ele>741.6</ele>
        <time>2013-01-19T15:27:16.000Z</time>
      </trkpt>
      <trkpt lat="48.00228" lon="6.9101">
        <ele>739.5</ele>
        <time>2013-01-19T15:27:36.000Z</time>
      </trkpt>
      <trkpt lat="48.00229" lon="6.91009">
        <ele>739.6</ele>
        <time>2013-01-19T15:27:37.000Z</time>
      </trkpt>
      <trkpt lat="48.0023" lon="6.91007">
        <ele>739.3</ele>
        <time>2013-01-19T15:27:38.000Z</time>
      </trkpt>
      <trkpt lat="48.00234" lon="6.91006">
        <ele>739.5</ele>
        <time>2013-01-19T15:27:39.000Z</time>
      </trkpt>
      <trkpt lat="48.00234" lon="6.91004">
        <ele>739.6</ele>
        <time>2013-01-19T15:27:41.000Z</time>
      </trkpt>
      <trkpt lat="48.00235" lon="6.90997">
        <ele>741.8</ele>
        <time>2013-01-19T15:27:42.000Z</time>
      </trkpt>
      <trkpt lat="48.00236" lon="6.90992">
        <ele>742.4</ele>
        <time>2013-01-19T15:27:44.000Z</time>
      </trkpt>
      <trkpt lat="48.00237" lon="6.9099">
        <ele>742.7</ele>
        <time>2013-01-19T15:27:45.000Z</time>
      </trkpt>
      <trkpt lat="48.00239" lon="6.90986">
        <ele>742.5</ele>
        <time>2013-01-19T15:27:47.000Z</time>
      </trkpt>
      <trkpt lat="48.00241" lon="6.90986">
        <ele>742.1</ele>
        <time>2013-01-19T15:27:48.000Z</time>
      </trkpt>
      <trkpt lat="48.00242" lon="6.90985">
        <ele>742.2</ele>
        <time>2013-01-19T15:27:49.000Z</time>
      </trkpt>
      <trkpt lat="48.0024" lon="6.90979">
        <ele>742.2</ele>
        <time>2013-01-19T15:27:50.000Z</time>
      </trkpt>
      <trkpt lat="48.0024" lon="6.90974">
        <ele>742</ele>
        <time>2013-01-19T15:27:51.000Z</time>
      </trkpt>
      <trkpt lat="48.0024" lon="6.90972">
        <ele>742.5</ele>
        <time>2013-01-19T15:27:52.000Z</time>
      </trkpt>
      <trkpt lat="48.0024" lon="6.90967">
        <ele>742.8</ele>
        <time>2013-01-19T15:27:54.000Z</time>
      </trkpt>
      <trkpt lat="48.0024" lon="6.90964">
        <ele>742.4</ele>
        <time>2013-01-19T15:27:55.000Z</time>
      </trkpt>
      <trkpt lat="48.00242" lon="6.9096">
        <ele>741.9</ele>
        <time>2013-01-19T15:27:58.000Z</time>
      </trkpt>
      <trkpt lat="48.00242" lon="6.90957">
        <ele>742</ele>
        <time>2013-01-19T15:27:59.000Z</time>
      </trkpt>
      <trkpt lat="48.00243" lon="6.90952">
        <ele>741</ele>
        <time>2013-01-19T15:28:01.000Z</time>
      </trkpt>
      <trkpt lat="48.00242" lon="6.9095">
        <ele>740.8</ele>
        <time>2013-01-19T15:28:02.000Z</time>
      </trkpt>
      <trkpt lat="48.00243" lon="6.90948">
        <ele>740</ele>
        <time>2013-01-19T15:28:05.000Z</time>
      </trkpt>
      <trkpt lat="48.00243" lon="6.90944">
        <ele>739</ele>
        <time>2013-01-19T15:28:06.000Z</time>
      </trkpt>
      <trkpt lat="48.00244" lon="6.90938">
        <ele>738.9</ele>
        <time>2013-01-19T15:28:09.000Z</time>
      </trkpt>
      <trkpt lat="48.00244" lon="6.90936">
        <ele>739.2</ele>
        <time>2013-01-19T15:28:10.000Z</time>
      </trkpt>
      <trkpt lat="48.00245" lon="6.90931">
        <ele>738.7</ele>
        <time>2013-01-19T15:28:12.000Z</time>
      </trkpt>
      <trkpt lat="48.00245" lon="6.90928">
        <ele>738.8</ele>
        <time>2013-01-19T15:28:13.000Z</time>
      </trkpt>
      <trkpt lat="48.00247" lon="6.90922">
        <ele>738.3</ele>
        <time>2013-01-19T15:28:21.000Z</time>
      </trkpt>
      <trkpt lat="48.00248" lon="6.90921">
        <ele>738.2</ele>
        <time>2013-01-19T15:28:22.000Z</time>
      </trkpt>
      <trkpt lat="48.00247" lon="6.90916">
        <ele>738.1</ele>
        <time>2013-01-19T15:28:27.000Z</time>
      </trkpt>
      <trkpt lat="48.00249" lon="6.90913">
        <ele>738.1</ele>
        <time>2013-01-19T15:28:28.000Z</time>
      </trkpt>
      <trkpt lat="48.00251" lon="6.90908">
        <ele>737.2</ele>
        <time>2013-01-19T15:28:33.000Z</time>
      </trkpt>
      <trkpt lat="48.00252" lon="6.90903">
        <ele>737.7</ele>
        <time>2013-01-19T15:28:34.000Z</time>
      </trkpt>
      <trkpt lat="48.0025" lon="6.90899">
        <ele>737.2</ele>
        <time>2013-01-19T15:28:37.000Z</time>
      </trkpt>
      <trkpt lat="48.00248" lon="6.90898">
        <ele>736.4</ele>
        <time>2013-01-19T15:28:38.000Z</time>
      </trkpt>
      <trkpt lat="48.00244" lon="6.90897">
        <ele>735.2</ele>
        <time>2013-01-19T15:28:41.000Z</time>
      </trkpt>
      <trkpt lat="48.00242" lon="6.90895">
        <ele>734.6</ele>
        <time>2013-01-19T15:28:42.000Z</time>
      </trkpt>
      <trkpt lat="48.0024" lon="6.90894">
        <ele>734.2</ele>
        <time>2013-01-19T15:28:44.000Z</time>
      </trkpt>
      <trkpt lat="48.00237" lon="6.90894">
        <ele>734</ele>
        <time>2013-01-19T15:28:45.000Z</time>
      </trkpt>
      <trkpt lat="48.00233" lon="6.90895">
        <ele>733.6</ele>
        <time>2013-01-19T15:28:48.000Z</time>
      </trkpt>
      <trkpt lat="48.0023" lon="6.90896">
        <ele>733.8</ele>
        <time>2013-01-19T15:28:49.000Z</time>
      </trkpt>
      <trkpt lat="48.00226" lon="6.90896">
        <ele>735</ele>
        <time>2013-01-19T15:28:52.000Z</time>
      </trkpt>
      <trkpt lat="48.00224" lon="6.90897">
        <ele>735.5</ele>
        <time>2013-01-19T15:28:53.000Z</time>
      </trkpt>
      <trkpt lat="48.00221" lon="6.90899">
        <ele>741.8</ele>
        <time>2013-01-19T15:29:44.000Z</time>
      </trkpt>
      <trkpt lat="48.00218" lon="6.90903">
        <ele>743.1</ele>
        <time>2013-01-19T15:29:45.000Z</time>
      </trkpt>
      <trkpt lat="48.00211" lon="6.90908">
        <ele>745.1</ele>
        <time>2013-01-19T15:29:47.000Z</time>
      </trkpt>
      <trkpt lat="48.00207" lon="6.90911">
        <ele>744.2</ele>
        <time>2013-01-19T15:29:48.000Z</time>
      </trkpt>
      <trkpt lat="48.00203" lon="6.90914">
        <ele>745.5</ele>
        <time>2013-01-19T15:29:49.000Z</time>
      </trkpt>
      <trkpt lat="48.00202" lon="6.90915">
        <ele>746.1</ele>
        <time>2013-01-19T15:29:50.000Z</time>
      </trkpt>
      <trkpt lat="48.00206" lon="6.90915">
        <ele>743.6</ele>
        <time>2013-01-19T15:30:18.000Z</time>
      </trkpt>
      <trkpt lat="48.0021" lon="6.90911">
        <ele>743.3</ele>
        <time>2013-01-19T15:30:19.000Z</time>
      </trkpt>
      <trkpt lat="48.00211" lon="6.90908">
        <ele>743.5</ele>
        <time>2013-01-19T15:30:20.000Z</time>
      </trkpt>
      <trkpt lat="48.00214" lon="6.90906">
        <ele>743.7</ele>
        <time>2013-01-19T15:30:21.000Z</time>
      </trkpt>
      <trkpt lat="48.00216" lon="6.90904">
        <ele>743.3</ele>
        <time>2013-01-19T15:30:22.000Z</time>
      </trkpt>
      <trkpt lat="48.00219" lon="6.90903">
        <ele>740.2</ele>
        <time>2013-01-19T15:30:23.000Z</time>
      </trkpt>
      <trkpt lat="48.00221" lon="6.909">
        <ele>738.9</ele>
        <time>2013-01-19T15:30:24.000Z</time>
      </trkpt>
      <trkpt lat="48.00222" lon="6.90898">
        <ele>738.5</ele>
        <time>2013-01-19T15:30:25.000Z</time>
      </trkpt>
      <trkpt lat="48.00224" lon="6.90895">
        <ele>738.4</ele>
        <time>2013-01-19T15:30:26.000Z</time>
      </trkpt>
      <trkpt lat="48.00226" lon="6.90892">
        <ele>738.2</ele>
        <time>2013-01-19T15:30:27.000Z</time>
      </trkpt>
      <trkpt lat="48.00229" lon="6.90891">
        <ele>737.8</ele>
        <time>2013-01-19T15:30:28.000Z</time>
      </trkpt>
      <trkpt lat="48.00231" lon="6.90888">
        <ele>737.5</ele>
        <time>2013-01-19T15:30:29.000Z</time>
      </trkpt>
      <trkpt lat="48.00234" lon="6.90884">
        <ele>738.6</ele>
        <time>2013-01-19T15:30:36.000Z</time>
      </trkpt>
      <trkpt lat="48.00234" lon="6.90884">
        <ele>738.6</ele>
        <time>2013-01-19T15:30:37.000Z</time>
      </trkpt>
      <trkpt lat="48.00236" lon="6.90882">
        <ele>745.5</ele>
        <time>2013-01-19T15:32:30.000Z</time>
      </trkpt>
    </trkseg>
  </trk>
</gpx>